<?xml version="1.0" encoding="UTF-8" standalone="no" ?>
<gpx xmlns="http://www.topografix.com/GPX/1/1" xmlns:xsi="http://www.w3.org/2001/XMLSchema-instance" xsi:schemaLocation="http://www.topografix.com/GPX/1/1 http://www.topografix.com/GPX/1/1/gpx.xsd" version="1.1" creator="VisuGPX - https://www.visugpx.com">
  <metadata>
    <name>170118HR3ROBJeunes</name>
    <desc><![CDATA[Excellente sortie par grand froid froid]]></desc>
  </metadata>
  <trk>
    <name><![CDATA[170118HR3ROBJeunes]]></name>
    <trkseg>
      <trkpt lat="43.41579" lon="6.07038">
        <ele>339.79998779297</ele>
        <time>2017-01-18T12:58:03Z</time>
      </trkpt>
      <trkpt lat="43.41581" lon="6.07036">
        <ele>339.79998779297</ele>
        <time>2017-01-18T12:58:10Z</time>
      </trkpt>
      <trkpt lat="43.41584" lon="6.07033">
        <ele>339.79998779297</ele>
        <time>2017-01-18T12:58:14Z</time>
      </trkpt>
      <trkpt lat="43.41584" lon="6.07032">
        <ele>340</ele>
        <time>2017-01-18T12:58:19Z</time>
      </trkpt>
      <trkpt lat="43.41586" lon="6.0703">
        <ele>340</ele>
        <time>2017-01-18T12:58:24Z</time>
      </trkpt>
      <trkpt lat="43.41582" lon="6.07032">
        <ele>340.60000610352</ele>
        <time>2017-01-18T12:58:34Z</time>
      </trkpt>
      <trkpt lat="43.41581" lon="6.07031">
        <ele>340.60000610352</ele>
        <time>2017-01-18T12:58:44Z</time>
      </trkpt>
      <trkpt lat="43.4158" lon="6.0703">
        <ele>341</ele>
        <time>2017-01-18T12:58:54Z</time>
      </trkpt>
      <trkpt lat="43.41578" lon="6.07031">
        <ele>340.60000610352</ele>
        <time>2017-01-18T12:59:04Z</time>
      </trkpt>
      <trkpt lat="43.41579" lon="6.07031">
        <ele>340.39999389648</ele>
        <time>2017-01-18T12:59:14Z</time>
      </trkpt>
      <trkpt lat="43.4158" lon="6.07031">
        <ele>339.79998779297</ele>
        <time>2017-01-18T12:59:19Z</time>
      </trkpt>
      <trkpt lat="43.41581" lon="6.07031">
        <ele>339.79998779297</ele>
        <time>2017-01-18T12:59:24Z</time>
      </trkpt>
      <trkpt lat="43.41581" lon="6.0703">
        <ele>339.79998779297</ele>
        <time>2017-01-18T12:59:34Z</time>
      </trkpt>
      <trkpt lat="43.41581" lon="6.0703">
        <ele>339.79998779297</ele>
        <time>2017-01-18T12:59:44Z</time>
      </trkpt>
      <trkpt lat="43.41581" lon="6.0703">
        <ele>339.79998779297</ele>
        <time>2017-01-18T13:00:01Z</time>
      </trkpt>
      <trkpt lat="43.41581" lon="6.0703">
        <ele>339.79998779297</ele>
        <time>2017-01-18T13:00:04Z</time>
      </trkpt>
      <trkpt lat="43.41581" lon="6.0703">
        <ele>339.79998779297</ele>
        <time>2017-01-18T13:00:14Z</time>
      </trkpt>
      <trkpt lat="43.41581" lon="6.07031">
        <ele>339.79998779297</ele>
        <time>2017-01-18T13:00:34Z</time>
      </trkpt>
      <trkpt lat="43.4158" lon="6.07031">
        <ele>339.79998779297</ele>
        <time>2017-01-18T13:00:44Z</time>
      </trkpt>
      <trkpt lat="43.4158" lon="6.07032">
        <ele>339.79998779297</ele>
        <time>2017-01-18T13:00:50Z</time>
      </trkpt>
      <trkpt lat="43.4158" lon="6.07032">
        <ele>339.79998779297</ele>
        <time>2017-01-18T13:00:54Z</time>
      </trkpt>
      <trkpt lat="43.4158" lon="6.07032">
        <ele>339.79998779297</ele>
        <time>2017-01-18T13:01:04Z</time>
      </trkpt>
      <trkpt lat="43.4158" lon="6.07032">
        <ele>339.79998779297</ele>
        <time>2017-01-18T13:01:14Z</time>
      </trkpt>
      <trkpt lat="43.4158" lon="6.07033">
        <ele>339.79998779297</ele>
        <time>2017-01-18T13:01:24Z</time>
      </trkpt>
      <trkpt lat="43.4158" lon="6.07033">
        <ele>339.79998779297</ele>
        <time>2017-01-18T13:01:34Z</time>
      </trkpt>
      <trkpt lat="43.4158" lon="6.07034">
        <ele>339.79998779297</ele>
        <time>2017-01-18T13:01:44Z</time>
      </trkpt>
      <trkpt lat="43.4158" lon="6.07034">
        <ele>339.79998779297</ele>
        <time>2017-01-18T13:01:54Z</time>
      </trkpt>
      <trkpt lat="43.4158" lon="6.07034">
        <ele>339.79998779297</ele>
        <time>2017-01-18T13:02:04Z</time>
      </trkpt>
      <trkpt lat="43.4158" lon="6.07033">
        <ele>339.79998779297</ele>
        <time>2017-01-18T13:02:14Z</time>
      </trkpt>
      <trkpt lat="43.4158" lon="6.07033">
        <ele>339.79998779297</ele>
        <time>2017-01-18T13:02:24Z</time>
      </trkpt>
      <trkpt lat="43.41581" lon="6.07037">
        <ele>339.79998779297</ele>
        <time>2017-01-18T13:02:34Z</time>
      </trkpt>
      <trkpt lat="43.41581" lon="6.07038">
        <ele>339.79998779297</ele>
        <time>2017-01-18T13:02:44Z</time>
      </trkpt>
      <trkpt lat="43.4158" lon="6.07046">
        <ele>339.79998779297</ele>
        <time>2017-01-18T13:03:01Z</time>
      </trkpt>
      <trkpt lat="43.41581" lon="6.07055">
        <ele>340</ele>
        <time>2017-01-18T13:03:04Z</time>
      </trkpt>
      <trkpt lat="43.41582" lon="6.07071">
        <ele>340</ele>
        <time>2017-01-18T13:03:08Z</time>
      </trkpt>
      <trkpt lat="43.41583" lon="6.07098">
        <ele>339.39999389648</ele>
        <time>2017-01-18T13:03:14Z</time>
      </trkpt>
      <trkpt lat="43.41582" lon="6.07101">
        <ele>339.20001220703</ele>
        <time>2017-01-18T13:03:15Z</time>
      </trkpt>
      <trkpt lat="43.41555" lon="6.07113">
        <ele>339.20001220703</ele>
        <time>2017-01-18T13:03:24Z</time>
      </trkpt>
      <trkpt lat="43.41552" lon="6.07112">
        <ele>339.20001220703</ele>
        <time>2017-01-18T13:03:25Z</time>
      </trkpt>
      <trkpt lat="43.41548" lon="6.07105">
        <ele>339.20001220703</ele>
        <time>2017-01-18T13:03:27Z</time>
      </trkpt>
      <trkpt lat="43.41543" lon="6.07076">
        <ele>339.20001220703</ele>
        <time>2017-01-18T13:03:34Z</time>
      </trkpt>
      <trkpt lat="43.41536" lon="6.07071">
        <ele>339.20001220703</ele>
        <time>2017-01-18T13:03:35Z</time>
      </trkpt>
      <trkpt lat="43.41527" lon="6.07072">
        <ele>339.20001220703</ele>
        <time>2017-01-18T13:03:37Z</time>
      </trkpt>
      <trkpt lat="43.41513" lon="6.07076">
        <ele>338.20001220703</ele>
        <time>2017-01-18T13:03:40Z</time>
      </trkpt>
      <trkpt lat="43.41509" lon="6.07077">
        <ele>338.20001220703</ele>
        <time>2017-01-18T13:03:41Z</time>
      </trkpt>
      <trkpt lat="43.415" lon="6.07078">
        <ele>337.79998779297</ele>
        <time>2017-01-18T13:03:43Z</time>
      </trkpt>
      <trkpt lat="43.41496" lon="6.07077">
        <ele>337.60000610352</ele>
        <time>2017-01-18T13:03:44Z</time>
      </trkpt>
      <trkpt lat="43.41476" lon="6.0707">
        <ele>337.20001220703</ele>
        <time>2017-01-18T13:03:49Z</time>
      </trkpt>
      <trkpt lat="43.41469" lon="6.07067">
        <ele>337.20001220703</ele>
        <time>2017-01-18T13:03:51Z</time>
      </trkpt>
      <trkpt lat="43.41467" lon="6.07064">
        <ele>337.39999389648</ele>
        <time>2017-01-18T13:03:53Z</time>
      </trkpt>
      <trkpt lat="43.41467" lon="6.07063">
        <ele>337.39999389648</ele>
        <time>2017-01-18T13:03:54Z</time>
      </trkpt>
      <trkpt lat="43.41468" lon="6.07062">
        <ele>337.60000610352</ele>
        <time>2017-01-18T13:04:02Z</time>
      </trkpt>
      <trkpt lat="43.41469" lon="6.07058">
        <ele>337.60000610352</ele>
        <time>2017-01-18T13:04:04Z</time>
      </trkpt>
      <trkpt lat="43.4147" lon="6.07055">
        <ele>337.60000610352</ele>
        <time>2017-01-18T13:04:05Z</time>
      </trkpt>
      <trkpt lat="43.41475" lon="6.07044">
        <ele>337.39999389648</ele>
        <time>2017-01-18T13:04:08Z</time>
      </trkpt>
      <trkpt lat="43.41478" lon="6.07039">
        <ele>337.20001220703</ele>
        <time>2017-01-18T13:04:09Z</time>
      </trkpt>
      <trkpt lat="43.41484" lon="6.07024">
        <ele>337.20001220703</ele>
        <time>2017-01-18T13:04:12Z</time>
      </trkpt>
      <trkpt lat="43.41488" lon="6.07013">
        <ele>337.39999389648</ele>
        <time>2017-01-18T13:04:14Z</time>
      </trkpt>
      <trkpt lat="43.41493" lon="6.06996">
        <ele>337.39999389648</ele>
        <time>2017-01-18T13:04:17Z</time>
      </trkpt>
      <trkpt lat="43.41494" lon="6.0699">
        <ele>337.60000610352</ele>
        <time>2017-01-18T13:04:18Z</time>
      </trkpt>
      <trkpt lat="43.41494" lon="6.06983">
        <ele>337.60000610352</ele>
        <time>2017-01-18T13:04:19Z</time>
      </trkpt>
      <trkpt lat="43.41491" lon="6.06971">
        <ele>337.60000610352</ele>
        <time>2017-01-18T13:04:21Z</time>
      </trkpt>
      <trkpt lat="43.41483" lon="6.06955">
        <ele>338.20001220703</ele>
        <time>2017-01-18T13:04:24Z</time>
      </trkpt>
      <trkpt lat="43.41476" lon="6.06941">
        <ele>338.60000610352</ele>
        <time>2017-01-18T13:04:27Z</time>
      </trkpt>
      <trkpt lat="43.41468" lon="6.06923">
        <ele>338.79998779297</ele>
        <time>2017-01-18T13:04:31Z</time>
      </trkpt>
      <trkpt lat="43.41469" lon="6.06919">
        <ele>339.20001220703</ele>
        <time>2017-01-18T13:04:32Z</time>
      </trkpt>
      <trkpt lat="43.41473" lon="6.0691">
        <ele>339.79998779297</ele>
        <time>2017-01-18T13:04:34Z</time>
      </trkpt>
      <trkpt lat="43.41476" lon="6.06898">
        <ele>340.20001220703</ele>
        <time>2017-01-18T13:04:37Z</time>
      </trkpt>
      <trkpt lat="43.41476" lon="6.06896">
        <ele>340.39999389648</ele>
        <time>2017-01-18T13:04:38Z</time>
      </trkpt>
      <trkpt lat="43.41476" lon="6.06891">
        <ele>340.60000610352</ele>
        <time>2017-01-18T13:04:43Z</time>
      </trkpt>
      <trkpt lat="43.41476" lon="6.06891">
        <ele>340.39999389648</ele>
        <time>2017-01-18T13:04:44Z</time>
      </trkpt>
      <trkpt lat="43.41475" lon="6.06889">
        <ele>340.20001220703</ele>
        <time>2017-01-18T13:04:47Z</time>
      </trkpt>
      <trkpt lat="43.41475" lon="6.06887">
        <ele>340.20001220703</ele>
        <time>2017-01-18T13:04:49Z</time>
      </trkpt>
      <trkpt lat="43.41474" lon="6.0686">
        <ele>340.39999389648</ele>
        <time>2017-01-18T13:04:54Z</time>
      </trkpt>
      <trkpt lat="43.41473" lon="6.06849">
        <ele>340.20001220703</ele>
        <time>2017-01-18T13:04:56Z</time>
      </trkpt>
      <trkpt lat="43.41475" lon="6.06831">
        <ele>339.79998779297</ele>
        <time>2017-01-18T13:05:00Z</time>
      </trkpt>
      <trkpt lat="43.41478" lon="6.06821">
        <ele>339.79998779297</ele>
        <time>2017-01-18T13:05:01Z</time>
      </trkpt>
      <trkpt lat="43.41485" lon="6.06805">
        <ele>339.60000610352</ele>
        <time>2017-01-18T13:05:04Z</time>
      </trkpt>
      <trkpt lat="43.41496" lon="6.06746">
        <ele>340.20001220703</ele>
        <time>2017-01-18T13:05:14Z</time>
      </trkpt>
      <trkpt lat="43.41497" lon="6.06722">
        <ele>340.79998779297</ele>
        <time>2017-01-18T13:05:18Z</time>
      </trkpt>
      <trkpt lat="43.41497" lon="6.06693">
        <ele>341.20001220703</ele>
        <time>2017-01-18T13:05:23Z</time>
      </trkpt>
      <trkpt lat="43.41497" lon="6.06687">
        <ele>341.60000610352</ele>
        <time>2017-01-18T13:05:24Z</time>
      </trkpt>
      <trkpt lat="43.41498" lon="6.06669">
        <ele>342.39999389648</ele>
        <time>2017-01-18T13:05:27Z</time>
      </trkpt>
      <trkpt lat="43.415" lon="6.06658">
        <ele>342.60000610352</ele>
        <time>2017-01-18T13:05:29Z</time>
      </trkpt>
      <trkpt lat="43.41505" lon="6.06631">
        <ele>342.60000610352</ele>
        <time>2017-01-18T13:05:34Z</time>
      </trkpt>
      <trkpt lat="43.41509" lon="6.06604">
        <ele>342.60000610352</ele>
        <time>2017-01-18T13:05:39Z</time>
      </trkpt>
      <trkpt lat="43.41512" lon="6.06582">
        <ele>342.79998779297</ele>
        <time>2017-01-18T13:05:43Z</time>
      </trkpt>
      <trkpt lat="43.41512" lon="6.06582">
        <ele>343</ele>
        <time>2017-01-18T13:05:44Z</time>
      </trkpt>
      <trkpt lat="43.41516" lon="6.0656">
        <ele>343</ele>
        <time>2017-01-18T13:05:47Z</time>
      </trkpt>
      <trkpt lat="43.41518" lon="6.06546">
        <ele>343.20001220703</ele>
        <time>2017-01-18T13:05:50Z</time>
      </trkpt>
      <trkpt lat="43.41521" lon="6.06526">
        <ele>343.39999389648</ele>
        <time>2017-01-18T13:05:54Z</time>
      </trkpt>
      <trkpt lat="43.41524" lon="6.06517">
        <ele>343.39999389648</ele>
        <time>2017-01-18T13:05:56Z</time>
      </trkpt>
      <trkpt lat="43.41539" lon="6.06483">
        <ele>344.20001220703</ele>
        <time>2017-01-18T13:06:04Z</time>
      </trkpt>
      <trkpt lat="43.41541" lon="6.06479">
        <ele>344.39999389648</ele>
        <time>2017-01-18T13:06:05Z</time>
      </trkpt>
      <trkpt lat="43.41541" lon="6.06479">
        <ele>344.39999389648</ele>
        <time>2017-01-18T13:06:06Z</time>
      </trkpt>
      <trkpt lat="43.41545" lon="6.0646">
        <ele>344.79998779297</ele>
        <time>2017-01-18T13:06:09Z</time>
      </trkpt>
      <trkpt lat="43.41544" lon="6.06445">
        <ele>345.20001220703</ele>
        <time>2017-01-18T13:06:12Z</time>
      </trkpt>
      <trkpt lat="43.41544" lon="6.0644">
        <ele>345</ele>
        <time>2017-01-18T13:06:13Z</time>
      </trkpt>
      <trkpt lat="43.41545" lon="6.06435">
        <ele>345</ele>
        <time>2017-01-18T13:06:14Z</time>
      </trkpt>
      <trkpt lat="43.41549" lon="6.06407">
        <ele>345.60000610352</ele>
        <time>2017-01-18T13:06:19Z</time>
      </trkpt>
      <trkpt lat="43.41549" lon="6.06407">
        <ele>345.79998779297</ele>
        <time>2017-01-18T13:06:20Z</time>
      </trkpt>
      <trkpt lat="43.41553" lon="6.06382">
        <ele>346.60000610352</ele>
        <time>2017-01-18T13:06:24Z</time>
      </trkpt>
      <trkpt lat="43.41557" lon="6.06367">
        <ele>347.79998779297</ele>
        <time>2017-01-18T13:06:28Z</time>
      </trkpt>
      <trkpt lat="43.41563" lon="6.06348">
        <ele>349</ele>
        <time>2017-01-18T13:06:32Z</time>
      </trkpt>
      <trkpt lat="43.4157" lon="6.06336">
        <ele>349.79998779297</ele>
        <time>2017-01-18T13:06:34Z</time>
      </trkpt>
      <trkpt lat="43.41572" lon="6.06332">
        <ele>350</ele>
        <time>2017-01-18T13:06:35Z</time>
      </trkpt>
      <trkpt lat="43.4158" lon="6.06322">
        <ele>351.20001220703</ele>
        <time>2017-01-18T13:06:39Z</time>
      </trkpt>
      <trkpt lat="43.41587" lon="6.06304">
        <ele>351.60000610352</ele>
        <time>2017-01-18T13:06:42Z</time>
      </trkpt>
      <trkpt lat="43.41588" lon="6.06294">
        <ele>352</ele>
        <time>2017-01-18T13:06:44Z</time>
      </trkpt>
      <trkpt lat="43.41587" lon="6.06289">
        <ele>352.20001220703</ele>
        <time>2017-01-18T13:06:45Z</time>
      </trkpt>
      <trkpt lat="43.41585" lon="6.06271">
        <ele>352.79998779297</ele>
        <time>2017-01-18T13:06:50Z</time>
      </trkpt>
      <trkpt lat="43.41592" lon="6.06259">
        <ele>353.20001220703</ele>
        <time>2017-01-18T13:06:53Z</time>
      </trkpt>
      <trkpt lat="43.41595" lon="6.06257">
        <ele>353.39999389648</ele>
        <time>2017-01-18T13:06:54Z</time>
      </trkpt>
      <trkpt lat="43.41602" lon="6.06253">
        <ele>354.20001220703</ele>
        <time>2017-01-18T13:07:00Z</time>
      </trkpt>
      <trkpt lat="43.41602" lon="6.06252">
        <ele>354.20001220703</ele>
        <time>2017-01-18T13:07:02Z</time>
      </trkpt>
      <trkpt lat="43.41602" lon="6.06252">
        <ele>354.39999389648</ele>
        <time>2017-01-18T13:07:04Z</time>
      </trkpt>
      <trkpt lat="43.41603" lon="6.06247">
        <ele>354.39999389648</ele>
        <time>2017-01-18T13:07:11Z</time>
      </trkpt>
      <trkpt lat="43.41603" lon="6.06247">
        <ele>354.39999389648</ele>
        <time>2017-01-18T13:07:12Z</time>
      </trkpt>
      <trkpt lat="43.41606" lon="6.06237">
        <ele>354.60000610352</ele>
        <time>2017-01-18T13:07:14Z</time>
      </trkpt>
      <trkpt lat="43.41606" lon="6.06203">
        <ele>354.20001220703</ele>
        <time>2017-01-18T13:07:22Z</time>
      </trkpt>
      <trkpt lat="43.41604" lon="6.06199">
        <ele>354.20001220703</ele>
        <time>2017-01-18T13:07:24Z</time>
      </trkpt>
      <trkpt lat="43.41601" lon="6.06185">
        <ele>353.60000610352</ele>
        <time>2017-01-18T13:07:27Z</time>
      </trkpt>
      <trkpt lat="43.416" lon="6.06179">
        <ele>353.60000610352</ele>
        <time>2017-01-18T13:07:28Z</time>
      </trkpt>
      <trkpt lat="43.41601" lon="6.06173">
        <ele>353.39999389648</ele>
        <time>2017-01-18T13:07:29Z</time>
      </trkpt>
      <trkpt lat="43.41603" lon="6.06167">
        <ele>353.20001220703</ele>
        <time>2017-01-18T13:07:30Z</time>
      </trkpt>
      <trkpt lat="43.41609" lon="6.06157">
        <ele>353</ele>
        <time>2017-01-18T13:07:31Z</time>
      </trkpt>
      <trkpt lat="43.41616" lon="6.06147">
        <ele>352.39999389648</ele>
        <time>2017-01-18T13:07:34Z</time>
      </trkpt>
      <trkpt lat="43.41626" lon="6.06133">
        <ele>352.20001220703</ele>
        <time>2017-01-18T13:07:37Z</time>
      </trkpt>
      <trkpt lat="43.41628" lon="6.06128">
        <ele>352.20001220703</ele>
        <time>2017-01-18T13:07:38Z</time>
      </trkpt>
      <trkpt lat="43.41628" lon="6.06121">
        <ele>352.20001220703</ele>
        <time>2017-01-18T13:07:39Z</time>
      </trkpt>
      <trkpt lat="43.41624" lon="6.06109">
        <ele>352.20001220703</ele>
        <time>2017-01-18T13:07:40Z</time>
      </trkpt>
      <trkpt lat="43.41619" lon="6.06095">
        <ele>351.79998779297</ele>
        <time>2017-01-18T13:07:42Z</time>
      </trkpt>
      <trkpt lat="43.41618" lon="6.06088">
        <ele>351.79998779297</ele>
        <time>2017-01-18T13:07:44Z</time>
      </trkpt>
      <trkpt lat="43.41616" lon="6.06074">
        <ele>351.60000610352</ele>
        <time>2017-01-18T13:07:46Z</time>
      </trkpt>
      <trkpt lat="43.41623" lon="6.06015">
        <ele>352.79998779297</ele>
        <time>2017-01-18T13:07:54Z</time>
      </trkpt>
      <trkpt lat="43.41625" lon="6.06003">
        <ele>353.39999389648</ele>
        <time>2017-01-18T13:07:57Z</time>
      </trkpt>
      <trkpt lat="43.41631" lon="6.05974">
        <ele>354.60000610352</ele>
        <time>2017-01-18T13:08:01Z</time>
      </trkpt>
      <trkpt lat="43.41633" lon="6.05956">
        <ele>355</ele>
        <time>2017-01-18T13:08:04Z</time>
      </trkpt>
      <trkpt lat="43.41637" lon="6.05926">
        <ele>355.60000610352</ele>
        <time>2017-01-18T13:08:09Z</time>
      </trkpt>
      <trkpt lat="43.41638" lon="6.05921">
        <ele>355.79998779297</ele>
        <time>2017-01-18T13:08:10Z</time>
      </trkpt>
      <trkpt lat="43.4164" lon="6.05903">
        <ele>356.60000610352</ele>
        <time>2017-01-18T13:08:13Z</time>
      </trkpt>
      <trkpt lat="43.41641" lon="6.05897">
        <ele>357</ele>
        <time>2017-01-18T13:08:14Z</time>
      </trkpt>
      <trkpt lat="43.41643" lon="6.05873">
        <ele>357.60000610352</ele>
        <time>2017-01-18T13:08:19Z</time>
      </trkpt>
      <trkpt lat="43.41644" lon="6.05842">
        <ele>357.60000610352</ele>
        <time>2017-01-18T13:08:24Z</time>
      </trkpt>
      <trkpt lat="43.41645" lon="6.05812">
        <ele>357.60000610352</ele>
        <time>2017-01-18T13:08:28Z</time>
      </trkpt>
      <trkpt lat="43.41645" lon="6.05812">
        <ele>357.79998779297</ele>
        <time>2017-01-18T13:08:29Z</time>
      </trkpt>
      <trkpt lat="43.41645" lon="6.05777">
        <ele>358.20001220703</ele>
        <time>2017-01-18T13:08:34Z</time>
      </trkpt>
      <trkpt lat="43.41645" lon="6.05745">
        <ele>358</ele>
        <time>2017-01-18T13:08:39Z</time>
      </trkpt>
      <trkpt lat="43.41645" lon="6.05719">
        <ele>357.60000610352</ele>
        <time>2017-01-18T13:08:43Z</time>
      </trkpt>
      <trkpt lat="43.41645" lon="6.05713">
        <ele>357.60000610352</ele>
        <time>2017-01-18T13:08:44Z</time>
      </trkpt>
      <trkpt lat="43.4164" lon="6.05647">
        <ele>357.60000610352</ele>
        <time>2017-01-18T13:08:54Z</time>
      </trkpt>
      <trkpt lat="43.41636" lon="6.05611">
        <ele>356.79998779297</ele>
        <time>2017-01-18T13:08:59Z</time>
      </trkpt>
      <trkpt lat="43.41632" lon="6.05589">
        <ele>356.39999389648</ele>
        <time>2017-01-18T13:09:03Z</time>
      </trkpt>
      <trkpt lat="43.41631" lon="6.05582">
        <ele>356.39999389648</ele>
        <time>2017-01-18T13:09:04Z</time>
      </trkpt>
      <trkpt lat="43.41613" lon="6.05505">
        <ele>356</ele>
        <time>2017-01-18T13:09:14Z</time>
      </trkpt>
      <trkpt lat="43.41594" lon="6.05439">
        <ele>356.20001220703</ele>
        <time>2017-01-18T13:09:24Z</time>
      </trkpt>
      <trkpt lat="43.41579" lon="6.05393">
        <ele>355.60000610352</ele>
        <time>2017-01-18T13:09:31Z</time>
      </trkpt>
      <trkpt lat="43.41572" lon="6.05372">
        <ele>355.39999389648</ele>
        <time>2017-01-18T13:09:34Z</time>
      </trkpt>
      <trkpt lat="43.41549" lon="6.05305">
        <ele>354.39999389648</ele>
        <time>2017-01-18T13:09:44Z</time>
      </trkpt>
      <trkpt lat="43.41529" lon="6.05246">
        <ele>354.60000610352</ele>
        <time>2017-01-18T13:09:54Z</time>
      </trkpt>
      <trkpt lat="43.41521" lon="6.05229">
        <ele>353.79998779297</ele>
        <time>2017-01-18T13:09:57Z</time>
      </trkpt>
      <trkpt lat="43.41521" lon="6.05229">
        <ele>353.79998779297</ele>
        <time>2017-01-18T13:09:58Z</time>
      </trkpt>
      <trkpt lat="43.41513" lon="6.05212">
        <ele>353.39999389648</ele>
        <time>2017-01-18T13:10:00Z</time>
      </trkpt>
      <trkpt lat="43.41504" lon="6.05189">
        <ele>353</ele>
        <time>2017-01-18T13:10:04Z</time>
      </trkpt>
      <trkpt lat="43.415" lon="6.05177">
        <ele>352.79998779297</ele>
        <time>2017-01-18T13:10:07Z</time>
      </trkpt>
      <trkpt lat="43.415" lon="6.05166">
        <ele>352.39999389648</ele>
        <time>2017-01-18T13:10:09Z</time>
      </trkpt>
      <trkpt lat="43.41501" lon="6.05161">
        <ele>352.60000610352</ele>
        <time>2017-01-18T13:10:10Z</time>
      </trkpt>
      <trkpt lat="43.4151" lon="6.05155">
        <ele>352.79998779297</ele>
        <time>2017-01-18T13:10:12Z</time>
      </trkpt>
      <trkpt lat="43.41517" lon="6.05154">
        <ele>353</ele>
        <time>2017-01-18T13:10:14Z</time>
      </trkpt>
      <trkpt lat="43.41533" lon="6.05152">
        <ele>353</ele>
        <time>2017-01-18T13:10:18Z</time>
      </trkpt>
      <trkpt lat="43.41555" lon="6.05152">
        <ele>354</ele>
        <time>2017-01-18T13:10:24Z</time>
      </trkpt>
      <trkpt lat="43.41562" lon="6.05154">
        <ele>354.60000610352</ele>
        <time>2017-01-18T13:10:26Z</time>
      </trkpt>
      <trkpt lat="43.41575" lon="6.05156">
        <ele>355.79998779297</ele>
        <time>2017-01-18T13:10:30Z</time>
      </trkpt>
      <trkpt lat="43.41589" lon="6.05159">
        <ele>356.60000610352</ele>
        <time>2017-01-18T13:10:34Z</time>
      </trkpt>
      <trkpt lat="43.41592" lon="6.05159">
        <ele>356.79998779297</ele>
        <time>2017-01-18T13:10:35Z</time>
      </trkpt>
      <trkpt lat="43.41609" lon="6.05162">
        <ele>358</ele>
        <time>2017-01-18T13:10:40Z</time>
      </trkpt>
      <trkpt lat="43.41622" lon="6.05163">
        <ele>358.79998779297</ele>
        <time>2017-01-18T13:10:44Z</time>
      </trkpt>
      <trkpt lat="43.41629" lon="6.05163">
        <ele>359.20001220703</ele>
        <time>2017-01-18T13:10:46Z</time>
      </trkpt>
      <trkpt lat="43.41645" lon="6.05165">
        <ele>360.39999389648</ele>
        <time>2017-01-18T13:10:51Z</time>
      </trkpt>
      <trkpt lat="43.41656" lon="6.05166">
        <ele>361.39999389648</ele>
        <time>2017-01-18T13:10:55Z</time>
      </trkpt>
      <trkpt lat="43.41666" lon="6.05163">
        <ele>362.60000610352</ele>
        <time>2017-01-18T13:10:59Z</time>
      </trkpt>
      <trkpt lat="43.41678" lon="6.05149">
        <ele>363.60000610352</ele>
        <time>2017-01-18T13:11:05Z</time>
      </trkpt>
      <trkpt lat="43.41697" lon="6.05127">
        <ele>364.39999389648</ele>
        <time>2017-01-18T13:11:14Z</time>
      </trkpt>
      <trkpt lat="43.41705" lon="6.05121">
        <ele>365</ele>
        <time>2017-01-18T13:11:17Z</time>
      </trkpt>
      <trkpt lat="43.41722" lon="6.0511">
        <ele>365.79998779297</ele>
        <time>2017-01-18T13:11:24Z</time>
      </trkpt>
      <trkpt lat="43.41732" lon="6.05108">
        <ele>366.79998779297</ele>
        <time>2017-01-18T13:11:29Z</time>
      </trkpt>
      <trkpt lat="43.41735" lon="6.05114">
        <ele>367.20001220703</ele>
        <time>2017-01-18T13:11:31Z</time>
      </trkpt>
      <trkpt lat="43.41735" lon="6.05122">
        <ele>368.20001220703</ele>
        <time>2017-01-18T13:11:34Z</time>
      </trkpt>
      <trkpt lat="43.41736" lon="6.0516">
        <ele>369</ele>
        <time>2017-01-18T13:11:44Z</time>
      </trkpt>
      <trkpt lat="43.41748" lon="6.05176">
        <ele>369.20001220703</ele>
        <time>2017-01-18T13:11:50Z</time>
      </trkpt>
      <trkpt lat="43.41758" lon="6.05179">
        <ele>369.60000610352</ele>
        <time>2017-01-18T13:11:54Z</time>
      </trkpt>
      <trkpt lat="43.41774" lon="6.0518">
        <ele>370.20001220703</ele>
        <time>2017-01-18T13:12:00Z</time>
      </trkpt>
      <trkpt lat="43.41785" lon="6.0518">
        <ele>370.79998779297</ele>
        <time>2017-01-18T13:12:04Z</time>
      </trkpt>
      <trkpt lat="43.41798" lon="6.05181">
        <ele>371.60000610352</ele>
        <time>2017-01-18T13:12:09Z</time>
      </trkpt>
      <trkpt lat="43.41811" lon="6.05182">
        <ele>372.20001220703</ele>
        <time>2017-01-18T13:12:14Z</time>
      </trkpt>
      <trkpt lat="43.41816" lon="6.05182">
        <ele>372.60000610352</ele>
        <time>2017-01-18T13:12:16Z</time>
      </trkpt>
      <trkpt lat="43.41836" lon="6.05183">
        <ele>373.79998779297</ele>
        <time>2017-01-18T13:12:24Z</time>
      </trkpt>
      <trkpt lat="43.41855" lon="6.05182">
        <ele>374.79998779297</ele>
        <time>2017-01-18T13:12:32Z</time>
      </trkpt>
      <trkpt lat="43.4186" lon="6.0518">
        <ele>375.20001220703</ele>
        <time>2017-01-18T13:12:34Z</time>
      </trkpt>
      <trkpt lat="43.41874" lon="6.05176">
        <ele>375.79998779297</ele>
        <time>2017-01-18T13:12:40Z</time>
      </trkpt>
      <trkpt lat="43.41876" lon="6.05173">
        <ele>376.20001220703</ele>
        <time>2017-01-18T13:12:42Z</time>
      </trkpt>
      <trkpt lat="43.41876" lon="6.05169">
        <ele>376.39999389648</ele>
        <time>2017-01-18T13:12:44Z</time>
      </trkpt>
      <trkpt lat="43.41878" lon="6.05166">
        <ele>377</ele>
        <time>2017-01-18T13:12:48Z</time>
      </trkpt>
      <trkpt lat="43.41884" lon="6.05164">
        <ele>377.20001220703</ele>
        <time>2017-01-18T13:12:51Z</time>
      </trkpt>
      <trkpt lat="43.41887" lon="6.05158">
        <ele>377.60000610352</ele>
        <time>2017-01-18T13:12:54Z</time>
      </trkpt>
      <trkpt lat="43.41891" lon="6.05152">
        <ele>378</ele>
        <time>2017-01-18T13:12:57Z</time>
      </trkpt>
      <trkpt lat="43.41896" lon="6.05148">
        <ele>378.20001220703</ele>
        <time>2017-01-18T13:13:00Z</time>
      </trkpt>
      <trkpt lat="43.41908" lon="6.05159">
        <ele>379</ele>
        <time>2017-01-18T13:13:04Z</time>
      </trkpt>
      <trkpt lat="43.41948" lon="6.05145">
        <ele>380.20001220703</ele>
        <time>2017-01-18T13:13:12Z</time>
      </trkpt>
      <trkpt lat="43.41951" lon="6.05144">
        <ele>380.39999389648</ele>
        <time>2017-01-18T13:13:14Z</time>
      </trkpt>
      <trkpt lat="43.41972" lon="6.05134">
        <ele>381.20001220703</ele>
        <time>2017-01-18T13:13:21Z</time>
      </trkpt>
      <trkpt lat="43.4199" lon="6.05132">
        <ele>382.39999389648</ele>
        <time>2017-01-18T13:13:28Z</time>
      </trkpt>
      <trkpt lat="43.42004" lon="6.05129">
        <ele>383</ele>
        <time>2017-01-18T13:13:34Z</time>
      </trkpt>
      <trkpt lat="43.42017" lon="6.05125">
        <ele>383.39999389648</ele>
        <time>2017-01-18T13:13:39Z</time>
      </trkpt>
      <trkpt lat="43.42033" lon="6.05119">
        <ele>383.79998779297</ele>
        <time>2017-01-18T13:13:46Z</time>
      </trkpt>
      <trkpt lat="43.42054" lon="6.05115">
        <ele>384.39999389648</ele>
        <time>2017-01-18T13:13:54Z</time>
      </trkpt>
      <trkpt lat="43.4208" lon="6.05113">
        <ele>385.60000610352</ele>
        <time>2017-01-18T13:14:03Z</time>
      </trkpt>
      <trkpt lat="43.42082" lon="6.05114">
        <ele>385.60000610352</ele>
        <time>2017-01-18T13:14:04Z</time>
      </trkpt>
      <trkpt lat="43.42105" lon="6.05115">
        <ele>386.60000610352</ele>
        <time>2017-01-18T13:14:13Z</time>
      </trkpt>
      <trkpt lat="43.42108" lon="6.05114">
        <ele>386.79998779297</ele>
        <time>2017-01-18T13:14:14Z</time>
      </trkpt>
      <trkpt lat="43.42124" lon="6.05117">
        <ele>387.79998779297</ele>
        <time>2017-01-18T13:14:21Z</time>
      </trkpt>
      <trkpt lat="43.42129" lon="6.0512">
        <ele>388.20001220703</ele>
        <time>2017-01-18T13:14:24Z</time>
      </trkpt>
      <trkpt lat="43.42133" lon="6.05127">
        <ele>388.60000610352</ele>
        <time>2017-01-18T13:14:28Z</time>
      </trkpt>
      <trkpt lat="43.42136" lon="6.0513">
        <ele>388.79998779297</ele>
        <time>2017-01-18T13:14:30Z</time>
      </trkpt>
      <trkpt lat="43.42141" lon="6.05135">
        <ele>389.39999389648</ele>
        <time>2017-01-18T13:14:34Z</time>
      </trkpt>
      <trkpt lat="43.42146" lon="6.05141">
        <ele>389.79998779297</ele>
        <time>2017-01-18T13:14:38Z</time>
      </trkpt>
      <trkpt lat="43.42149" lon="6.05141">
        <ele>390</ele>
        <time>2017-01-18T13:14:41Z</time>
      </trkpt>
      <trkpt lat="43.42149" lon="6.05142">
        <ele>390</ele>
        <time>2017-01-18T13:14:44Z</time>
      </trkpt>
      <trkpt lat="43.42149" lon="6.05142">
        <ele>389.79998779297</ele>
        <time>2017-01-18T13:14:50Z</time>
      </trkpt>
      <trkpt lat="43.42146" lon="6.05142">
        <ele>390</ele>
        <time>2017-01-18T13:14:54Z</time>
      </trkpt>
      <trkpt lat="43.42144" lon="6.0514">
        <ele>390.39999389648</ele>
        <time>2017-01-18T13:14:59Z</time>
      </trkpt>
      <trkpt lat="43.42144" lon="6.0514">
        <ele>390</ele>
        <time>2017-01-18T13:15:02Z</time>
      </trkpt>
      <trkpt lat="43.42144" lon="6.0514">
        <ele>389.79998779297</ele>
        <time>2017-01-18T13:15:04Z</time>
      </trkpt>
      <trkpt lat="43.42144" lon="6.05141">
        <ele>389.60000610352</ele>
        <time>2017-01-18T13:15:07Z</time>
      </trkpt>
      <trkpt lat="43.42144" lon="6.05141">
        <ele>389.60000610352</ele>
        <time>2017-01-18T13:15:09Z</time>
      </trkpt>
      <trkpt lat="43.42144" lon="6.05141">
        <ele>389.60000610352</ele>
        <time>2017-01-18T13:15:12Z</time>
      </trkpt>
      <trkpt lat="43.42146" lon="6.05141">
        <ele>389.60000610352</ele>
        <time>2017-01-18T13:15:22Z</time>
      </trkpt>
      <trkpt lat="43.42146" lon="6.0514">
        <ele>389.60000610352</ele>
        <time>2017-01-18T13:15:24Z</time>
      </trkpt>
      <trkpt lat="43.42146" lon="6.05138">
        <ele>389.60000610352</ele>
        <time>2017-01-18T13:15:34Z</time>
      </trkpt>
      <trkpt lat="43.42144" lon="6.05135">
        <ele>389.60000610352</ele>
        <time>2017-01-18T13:15:42Z</time>
      </trkpt>
      <trkpt lat="43.42141" lon="6.05133">
        <ele>389.39999389648</ele>
        <time>2017-01-18T13:15:44Z</time>
      </trkpt>
      <trkpt lat="43.42141" lon="6.05133">
        <ele>389</ele>
        <time>2017-01-18T13:15:51Z</time>
      </trkpt>
      <trkpt lat="43.42141" lon="6.05133">
        <ele>389.20001220703</ele>
        <time>2017-01-18T13:15:54Z</time>
      </trkpt>
      <trkpt lat="43.42141" lon="6.05133">
        <ele>389.39999389648</ele>
        <time>2017-01-18T13:16:04Z</time>
      </trkpt>
      <trkpt lat="43.42141" lon="6.05132">
        <ele>389.39999389648</ele>
        <time>2017-01-18T13:16:14Z</time>
      </trkpt>
      <trkpt lat="43.42141" lon="6.05132">
        <ele>389.39999389648</ele>
        <time>2017-01-18T13:16:24Z</time>
      </trkpt>
      <trkpt lat="43.42141" lon="6.05132">
        <ele>389.39999389648</ele>
        <time>2017-01-18T13:16:30Z</time>
      </trkpt>
      <trkpt lat="43.42141" lon="6.05132">
        <ele>389.39999389648</ele>
        <time>2017-01-18T13:16:33Z</time>
      </trkpt>
      <trkpt lat="43.42141" lon="6.05132">
        <ele>389.39999389648</ele>
        <time>2017-01-18T13:16:34Z</time>
      </trkpt>
      <trkpt lat="43.42142" lon="6.05129">
        <ele>389.20001220703</ele>
        <time>2017-01-18T13:16:38Z</time>
      </trkpt>
      <trkpt lat="43.42146" lon="6.05129">
        <ele>389.20001220703</ele>
        <time>2017-01-18T13:16:40Z</time>
      </trkpt>
      <trkpt lat="43.42151" lon="6.05132">
        <ele>389.20001220703</ele>
        <time>2017-01-18T13:16:44Z</time>
      </trkpt>
      <trkpt lat="43.42151" lon="6.05135">
        <ele>389.39999389648</ele>
        <time>2017-01-18T13:16:49Z</time>
      </trkpt>
      <trkpt lat="43.42151" lon="6.05137">
        <ele>389.60000610352</ele>
        <time>2017-01-18T13:16:52Z</time>
      </trkpt>
      <trkpt lat="43.42151" lon="6.05138">
        <ele>389.60000610352</ele>
        <time>2017-01-18T13:16:54Z</time>
      </trkpt>
      <trkpt lat="43.4215" lon="6.05142">
        <ele>389.39999389648</ele>
        <time>2017-01-18T13:17:04Z</time>
      </trkpt>
      <trkpt lat="43.42149" lon="6.05145">
        <ele>389.79998779297</ele>
        <time>2017-01-18T13:17:10Z</time>
      </trkpt>
      <trkpt lat="43.42149" lon="6.05146">
        <ele>389.79998779297</ele>
        <time>2017-01-18T13:17:14Z</time>
      </trkpt>
      <trkpt lat="43.42151" lon="6.05151">
        <ele>389.60000610352</ele>
        <time>2017-01-18T13:17:24Z</time>
      </trkpt>
      <trkpt lat="43.42152" lon="6.05149">
        <ele>389.60000610352</ele>
        <time>2017-01-18T13:17:34Z</time>
      </trkpt>
      <trkpt lat="43.42153" lon="6.05149">
        <ele>389.79998779297</ele>
        <time>2017-01-18T13:17:44Z</time>
      </trkpt>
      <trkpt lat="43.42154" lon="6.0515">
        <ele>389.79998779297</ele>
        <time>2017-01-18T13:17:54Z</time>
      </trkpt>
      <trkpt lat="43.42154" lon="6.0515">
        <ele>389.79998779297</ele>
        <time>2017-01-18T13:18:04Z</time>
      </trkpt>
      <trkpt lat="43.42154" lon="6.0515">
        <ele>389.79998779297</ele>
        <time>2017-01-18T13:18:10Z</time>
      </trkpt>
      <trkpt lat="43.42154" lon="6.0515">
        <ele>389.79998779297</ele>
        <time>2017-01-18T13:18:14Z</time>
      </trkpt>
      <trkpt lat="43.42154" lon="6.0515">
        <ele>389.79998779297</ele>
        <time>2017-01-18T13:18:24Z</time>
      </trkpt>
      <trkpt lat="43.42155" lon="6.05152">
        <ele>389.79998779297</ele>
        <time>2017-01-18T13:18:28Z</time>
      </trkpt>
      <trkpt lat="43.4216" lon="6.05156">
        <ele>389.39999389648</ele>
        <time>2017-01-18T13:18:31Z</time>
      </trkpt>
      <trkpt lat="43.42167" lon="6.05161">
        <ele>389.79998779297</ele>
        <time>2017-01-18T13:18:34Z</time>
      </trkpt>
      <trkpt lat="43.42189" lon="6.05175">
        <ele>390.39999389648</ele>
        <time>2017-01-18T13:18:44Z</time>
      </trkpt>
      <trkpt lat="43.42198" lon="6.0518">
        <ele>390.39999389648</ele>
        <time>2017-01-18T13:18:47Z</time>
      </trkpt>
      <trkpt lat="43.42206" lon="6.05183">
        <ele>390.60000610352</ele>
        <time>2017-01-18T13:18:50Z</time>
      </trkpt>
      <trkpt lat="43.42215" lon="6.05187">
        <ele>391.20001220703</ele>
        <time>2017-01-18T13:18:53Z</time>
      </trkpt>
      <trkpt lat="43.42223" lon="6.05192">
        <ele>392.20001220703</ele>
        <time>2017-01-18T13:18:56Z</time>
      </trkpt>
      <trkpt lat="43.42231" lon="6.05202">
        <ele>392.60000610352</ele>
        <time>2017-01-18T13:19:00Z</time>
      </trkpt>
      <trkpt lat="43.4224" lon="6.05211">
        <ele>393</ele>
        <time>2017-01-18T13:19:04Z</time>
      </trkpt>
      <trkpt lat="43.42242" lon="6.05212">
        <ele>393.39999389648</ele>
        <time>2017-01-18T13:19:05Z</time>
      </trkpt>
      <trkpt lat="43.42258" lon="6.05213">
        <ele>394</ele>
        <time>2017-01-18T13:19:11Z</time>
      </trkpt>
      <trkpt lat="43.42264" lon="6.05213">
        <ele>394.39999389648</ele>
        <time>2017-01-18T13:19:13Z</time>
      </trkpt>
      <trkpt lat="43.42267" lon="6.05213">
        <ele>394.39999389648</ele>
        <time>2017-01-18T13:19:14Z</time>
      </trkpt>
      <trkpt lat="43.4229" lon="6.05217">
        <ele>395.39999389648</ele>
        <time>2017-01-18T13:19:22Z</time>
      </trkpt>
      <trkpt lat="43.42315" lon="6.05225">
        <ele>396.60000610352</ele>
        <time>2017-01-18T13:19:32Z</time>
      </trkpt>
      <trkpt lat="43.4232" lon="6.05225">
        <ele>396.79998779297</ele>
        <time>2017-01-18T13:19:34Z</time>
      </trkpt>
      <trkpt lat="43.4233" lon="6.05227">
        <ele>397.79998779297</ele>
        <time>2017-01-18T13:19:39Z</time>
      </trkpt>
      <trkpt lat="43.42335" lon="6.05229">
        <ele>398.79998779297</ele>
        <time>2017-01-18T13:19:42Z</time>
      </trkpt>
      <trkpt lat="43.42338" lon="6.0523">
        <ele>399.39999389648</ele>
        <time>2017-01-18T13:19:44Z</time>
      </trkpt>
      <trkpt lat="43.42344" lon="6.05232">
        <ele>400</ele>
        <time>2017-01-18T13:19:48Z</time>
      </trkpt>
      <trkpt lat="43.42354" lon="6.05232">
        <ele>400.79998779297</ele>
        <time>2017-01-18T13:19:54Z</time>
      </trkpt>
      <trkpt lat="43.42361" lon="6.0523">
        <ele>401</ele>
        <time>2017-01-18T13:19:58Z</time>
      </trkpt>
      <trkpt lat="43.42371" lon="6.05227">
        <ele>401.39999389648</ele>
        <time>2017-01-18T13:20:04Z</time>
      </trkpt>
      <trkpt lat="43.42383" lon="6.05227">
        <ele>402.20001220703</ele>
        <time>2017-01-18T13:20:11Z</time>
      </trkpt>
      <trkpt lat="43.42408" lon="6.05222">
        <ele>403</ele>
        <time>2017-01-18T13:20:24Z</time>
      </trkpt>
      <trkpt lat="43.4241" lon="6.05222">
        <ele>403.20001220703</ele>
        <time>2017-01-18T13:20:25Z</time>
      </trkpt>
      <trkpt lat="43.4244" lon="6.05221">
        <ele>404.39999389648</ele>
        <time>2017-01-18T13:20:39Z</time>
      </trkpt>
      <trkpt lat="43.4245" lon="6.05218">
        <ele>404.79998779297</ele>
        <time>2017-01-18T13:20:44Z</time>
      </trkpt>
      <trkpt lat="43.42455" lon="6.05215">
        <ele>405.60000610352</ele>
        <time>2017-01-18T13:20:47Z</time>
      </trkpt>
      <trkpt lat="43.42459" lon="6.05213">
        <ele>406.60000610352</ele>
        <time>2017-01-18T13:20:50Z</time>
      </trkpt>
      <trkpt lat="43.42464" lon="6.05211">
        <ele>408</ele>
        <time>2017-01-18T13:20:54Z</time>
      </trkpt>
      <trkpt lat="43.42482" lon="6.05215">
        <ele>408.60000610352</ele>
        <time>2017-01-18T13:21:04Z</time>
      </trkpt>
      <trkpt lat="43.42489" lon="6.05217">
        <ele>408.60000610352</ele>
        <time>2017-01-18T13:21:07Z</time>
      </trkpt>
      <trkpt lat="43.42503" lon="6.05223">
        <ele>408</ele>
        <time>2017-01-18T13:21:12Z</time>
      </trkpt>
      <trkpt lat="43.42508" lon="6.05224">
        <ele>408</ele>
        <time>2017-01-18T13:21:14Z</time>
      </trkpt>
      <trkpt lat="43.42532" lon="6.05223">
        <ele>408.60000610352</ele>
        <time>2017-01-18T13:21:24Z</time>
      </trkpt>
      <trkpt lat="43.4255" lon="6.05219">
        <ele>409.20001220703</ele>
        <time>2017-01-18T13:21:32Z</time>
      </trkpt>
      <trkpt lat="43.42552" lon="6.05218">
        <ele>410</ele>
        <time>2017-01-18T13:21:34Z</time>
      </trkpt>
      <trkpt lat="43.42554" lon="6.05218">
        <ele>410.39999389648</ele>
        <time>2017-01-18T13:21:35Z</time>
      </trkpt>
      <trkpt lat="43.42561" lon="6.05218">
        <ele>411</ele>
        <time>2017-01-18T13:21:39Z</time>
      </trkpt>
      <trkpt lat="43.42574" lon="6.0522">
        <ele>411</ele>
        <time>2017-01-18T13:21:44Z</time>
      </trkpt>
      <trkpt lat="43.42589" lon="6.0523">
        <ele>411</ele>
        <time>2017-01-18T13:21:51Z</time>
      </trkpt>
      <trkpt lat="43.42612" lon="6.05251">
        <ele>411.60000610352</ele>
        <time>2017-01-18T13:22:02Z</time>
      </trkpt>
      <trkpt lat="43.42616" lon="6.05255">
        <ele>411.60000610352</ele>
        <time>2017-01-18T13:22:04Z</time>
      </trkpt>
      <trkpt lat="43.42621" lon="6.05259">
        <ele>412.60000610352</ele>
        <time>2017-01-18T13:22:08Z</time>
      </trkpt>
      <trkpt lat="43.42631" lon="6.05262">
        <ele>413.20001220703</ele>
        <time>2017-01-18T13:22:14Z</time>
      </trkpt>
      <trkpt lat="43.42632" lon="6.05262">
        <ele>413.39999389648</ele>
        <time>2017-01-18T13:22:17Z</time>
      </trkpt>
      <trkpt lat="43.42632" lon="6.05263">
        <ele>413.39999389648</ele>
        <time>2017-01-18T13:22:22Z</time>
      </trkpt>
      <trkpt lat="43.42632" lon="6.05263">
        <ele>413.60000610352</ele>
        <time>2017-01-18T13:22:27Z</time>
      </trkpt>
      <trkpt lat="43.42633" lon="6.05265">
        <ele>413.39999389648</ele>
        <time>2017-01-18T13:22:54Z</time>
      </trkpt>
      <trkpt lat="43.42634" lon="6.05268">
        <ele>413.39999389648</ele>
        <time>2017-01-18T13:22:59Z</time>
      </trkpt>
      <trkpt lat="43.42636" lon="6.05271">
        <ele>413.60000610352</ele>
        <time>2017-01-18T13:23:01Z</time>
      </trkpt>
      <trkpt lat="43.4264" lon="6.05275">
        <ele>413.60000610352</ele>
        <time>2017-01-18T13:23:04Z</time>
      </trkpt>
      <trkpt lat="43.42653" lon="6.05288">
        <ele>414.39999389648</ele>
        <time>2017-01-18T13:23:11Z</time>
      </trkpt>
      <trkpt lat="43.42657" lon="6.05295">
        <ele>414.39999389648</ele>
        <time>2017-01-18T13:23:14Z</time>
      </trkpt>
      <trkpt lat="43.42661" lon="6.053">
        <ele>414.79998779297</ele>
        <time>2017-01-18T13:23:16Z</time>
      </trkpt>
      <trkpt lat="43.42665" lon="6.05307">
        <ele>415.39999389648</ele>
        <time>2017-01-18T13:23:19Z</time>
      </trkpt>
      <trkpt lat="43.42669" lon="6.05313">
        <ele>415.79998779297</ele>
        <time>2017-01-18T13:23:22Z</time>
      </trkpt>
      <trkpt lat="43.42671" lon="6.05317">
        <ele>415.79998779297</ele>
        <time>2017-01-18T13:23:24Z</time>
      </trkpt>
      <trkpt lat="43.42673" lon="6.05318">
        <ele>415.79998779297</ele>
        <time>2017-01-18T13:23:25Z</time>
      </trkpt>
      <trkpt lat="43.42675" lon="6.05323">
        <ele>416.39999389648</ele>
        <time>2017-01-18T13:23:28Z</time>
      </trkpt>
      <trkpt lat="43.42675" lon="6.05324">
        <ele>417</ele>
        <time>2017-01-18T13:23:31Z</time>
      </trkpt>
      <trkpt lat="43.42675" lon="6.05325">
        <ele>417.39999389648</ele>
        <time>2017-01-18T13:23:34Z</time>
      </trkpt>
      <trkpt lat="43.42675" lon="6.05328">
        <ele>418</ele>
        <time>2017-01-18T13:23:44Z</time>
      </trkpt>
      <trkpt lat="43.42676" lon="6.0533">
        <ele>418</ele>
        <time>2017-01-18T13:23:48Z</time>
      </trkpt>
      <trkpt lat="43.42676" lon="6.05329">
        <ele>418.20001220703</ele>
        <time>2017-01-18T13:23:53Z</time>
      </trkpt>
      <trkpt lat="43.42676" lon="6.05329">
        <ele>418.20001220703</ele>
        <time>2017-01-18T13:23:54Z</time>
      </trkpt>
      <trkpt lat="43.42676" lon="6.05332">
        <ele>418</ele>
        <time>2017-01-18T13:24:04Z</time>
      </trkpt>
      <trkpt lat="43.42683" lon="6.05339">
        <ele>418.20001220703</ele>
        <time>2017-01-18T13:24:12Z</time>
      </trkpt>
      <trkpt lat="43.42687" lon="6.0534">
        <ele>418.39999389648</ele>
        <time>2017-01-18T13:24:14Z</time>
      </trkpt>
      <trkpt lat="43.42701" lon="6.05342">
        <ele>419</ele>
        <time>2017-01-18T13:24:20Z</time>
      </trkpt>
      <trkpt lat="43.42709" lon="6.0534">
        <ele>419.20001220703</ele>
        <time>2017-01-18T13:24:24Z</time>
      </trkpt>
      <trkpt lat="43.42719" lon="6.05343">
        <ele>420.20001220703</ele>
        <time>2017-01-18T13:24:30Z</time>
      </trkpt>
      <trkpt lat="43.4272" lon="6.0535">
        <ele>421</ele>
        <time>2017-01-18T13:24:34Z</time>
      </trkpt>
      <trkpt lat="43.42719" lon="6.05363">
        <ele>421.20001220703</ele>
        <time>2017-01-18T13:24:40Z</time>
      </trkpt>
      <trkpt lat="43.42719" lon="6.05373">
        <ele>421.79998779297</ele>
        <time>2017-01-18T13:24:44Z</time>
      </trkpt>
      <trkpt lat="43.42719" lon="6.05379">
        <ele>422.39999389648</ele>
        <time>2017-01-18T13:24:47Z</time>
      </trkpt>
      <trkpt lat="43.42723" lon="6.05393">
        <ele>423.20001220703</ele>
        <time>2017-01-18T13:24:54Z</time>
      </trkpt>
      <trkpt lat="43.42727" lon="6.05409">
        <ele>424.60000610352</ele>
        <time>2017-01-18T13:25:02Z</time>
      </trkpt>
      <trkpt lat="43.42728" lon="6.05413">
        <ele>425</ele>
        <time>2017-01-18T13:25:04Z</time>
      </trkpt>
      <trkpt lat="43.42732" lon="6.05433">
        <ele>425.60000610352</ele>
        <time>2017-01-18T13:25:14Z</time>
      </trkpt>
      <trkpt lat="43.42729" lon="6.05452">
        <ele>426.60000610352</ele>
        <time>2017-01-18T13:25:23Z</time>
      </trkpt>
      <trkpt lat="43.42727" lon="6.05454">
        <ele>426.79998779297</ele>
        <time>2017-01-18T13:25:24Z</time>
      </trkpt>
      <trkpt lat="43.42723" lon="6.05477">
        <ele>427.79998779297</ele>
        <time>2017-01-18T13:25:34Z</time>
      </trkpt>
      <trkpt lat="43.42726" lon="6.05496">
        <ele>428.79998779297</ele>
        <time>2017-01-18T13:25:43Z</time>
      </trkpt>
      <trkpt lat="43.42726" lon="6.05499">
        <ele>429</ele>
        <time>2017-01-18T13:25:44Z</time>
      </trkpt>
      <trkpt lat="43.42728" lon="6.05511">
        <ele>430</ele>
        <time>2017-01-18T13:25:50Z</time>
      </trkpt>
      <trkpt lat="43.42729" lon="6.0552">
        <ele>430.39999389648</ele>
        <time>2017-01-18T13:25:54Z</time>
      </trkpt>
      <trkpt lat="43.42731" lon="6.05529">
        <ele>431</ele>
        <time>2017-01-18T13:25:59Z</time>
      </trkpt>
      <trkpt lat="43.42734" lon="6.0554">
        <ele>431.60000610352</ele>
        <time>2017-01-18T13:26:04Z</time>
      </trkpt>
      <trkpt lat="43.42736" lon="6.05546">
        <ele>432</ele>
        <time>2017-01-18T13:26:08Z</time>
      </trkpt>
      <trkpt lat="43.42739" lon="6.05559">
        <ele>433</ele>
        <time>2017-01-18T13:26:14Z</time>
      </trkpt>
      <trkpt lat="43.42739" lon="6.05561">
        <ele>433</ele>
        <time>2017-01-18T13:26:15Z</time>
      </trkpt>
      <trkpt lat="43.42749" lon="6.05575">
        <ele>434</ele>
        <time>2017-01-18T13:26:24Z</time>
      </trkpt>
      <trkpt lat="43.4275" lon="6.05576">
        <ele>434.20001220703</ele>
        <time>2017-01-18T13:26:25Z</time>
      </trkpt>
      <trkpt lat="43.42754" lon="6.0559">
        <ele>435.39999389648</ele>
        <time>2017-01-18T13:26:33Z</time>
      </trkpt>
      <trkpt lat="43.42754" lon="6.05593">
        <ele>435.79998779297</ele>
        <time>2017-01-18T13:26:34Z</time>
      </trkpt>
      <trkpt lat="43.42754" lon="6.056">
        <ele>436.60000610352</ele>
        <time>2017-01-18T13:26:38Z</time>
      </trkpt>
      <trkpt lat="43.42752" lon="6.05611">
        <ele>437.79998779297</ele>
        <time>2017-01-18T13:26:44Z</time>
      </trkpt>
      <trkpt lat="43.42749" lon="6.05616">
        <ele>438.20001220703</ele>
        <time>2017-01-18T13:26:47Z</time>
      </trkpt>
      <trkpt lat="43.42746" lon="6.05623">
        <ele>438.79998779297</ele>
        <time>2017-01-18T13:26:51Z</time>
      </trkpt>
      <trkpt lat="43.42744" lon="6.05628">
        <ele>439.20001220703</ele>
        <time>2017-01-18T13:26:54Z</time>
      </trkpt>
      <trkpt lat="43.42731" lon="6.05641">
        <ele>439.79998779297</ele>
        <time>2017-01-18T13:27:04Z</time>
      </trkpt>
      <trkpt lat="43.42728" lon="6.05646">
        <ele>440</ele>
        <time>2017-01-18T13:27:07Z</time>
      </trkpt>
      <trkpt lat="43.42723" lon="6.05659">
        <ele>440.79998779297</ele>
        <time>2017-01-18T13:27:14Z</time>
      </trkpt>
      <trkpt lat="43.42723" lon="6.0566">
        <ele>441</ele>
        <time>2017-01-18T13:27:15Z</time>
      </trkpt>
      <trkpt lat="43.4272" lon="6.05667">
        <ele>441.60000610352</ele>
        <time>2017-01-18T13:27:20Z</time>
      </trkpt>
      <trkpt lat="43.42718" lon="6.05671">
        <ele>441.79998779297</ele>
        <time>2017-01-18T13:27:23Z</time>
      </trkpt>
      <trkpt lat="43.42717" lon="6.05673">
        <ele>441.79998779297</ele>
        <time>2017-01-18T13:27:24Z</time>
      </trkpt>
      <trkpt lat="43.42713" lon="6.05675">
        <ele>442</ele>
        <time>2017-01-18T13:27:27Z</time>
      </trkpt>
      <trkpt lat="43.42706" lon="6.05683">
        <ele>443</ele>
        <time>2017-01-18T13:27:34Z</time>
      </trkpt>
      <trkpt lat="43.42704" lon="6.05692">
        <ele>444.20001220703</ele>
        <time>2017-01-18T13:27:40Z</time>
      </trkpt>
      <trkpt lat="43.42703" lon="6.05696">
        <ele>445</ele>
        <time>2017-01-18T13:27:44Z</time>
      </trkpt>
      <trkpt lat="43.42703" lon="6.05695">
        <ele>445.20001220703</ele>
        <time>2017-01-18T13:27:48Z</time>
      </trkpt>
      <trkpt lat="43.42703" lon="6.05697">
        <ele>445.39999389648</ele>
        <time>2017-01-18T13:27:54Z</time>
      </trkpt>
      <trkpt lat="43.42703" lon="6.05698">
        <ele>445.20001220703</ele>
        <time>2017-01-18T13:27:58Z</time>
      </trkpt>
      <trkpt lat="43.42703" lon="6.057">
        <ele>445.60000610352</ele>
        <time>2017-01-18T13:28:04Z</time>
      </trkpt>
      <trkpt lat="43.42703" lon="6.05699">
        <ele>445.60000610352</ele>
        <time>2017-01-18T13:28:14Z</time>
      </trkpt>
      <trkpt lat="43.42703" lon="6.05699">
        <ele>445.39999389648</ele>
        <time>2017-01-18T13:28:18Z</time>
      </trkpt>
      <trkpt lat="43.42703" lon="6.05699">
        <ele>445.39999389648</ele>
        <time>2017-01-18T13:28:24Z</time>
      </trkpt>
      <trkpt lat="43.42702" lon="6.05702">
        <ele>445.39999389648</ele>
        <time>2017-01-18T13:28:27Z</time>
      </trkpt>
      <trkpt lat="43.42701" lon="6.05706">
        <ele>446.20001220703</ele>
        <time>2017-01-18T13:28:33Z</time>
      </trkpt>
      <trkpt lat="43.42701" lon="6.05706">
        <ele>446.20001220703</ele>
        <time>2017-01-18T13:28:34Z</time>
      </trkpt>
      <trkpt lat="43.42699" lon="6.05714">
        <ele>446</ele>
        <time>2017-01-18T13:28:37Z</time>
      </trkpt>
      <trkpt lat="43.42698" lon="6.05715">
        <ele>446.60000610352</ele>
        <time>2017-01-18T13:28:41Z</time>
      </trkpt>
      <trkpt lat="43.42697" lon="6.05717">
        <ele>447</ele>
        <time>2017-01-18T13:28:44Z</time>
      </trkpt>
      <trkpt lat="43.42696" lon="6.0572">
        <ele>447.20001220703</ele>
        <time>2017-01-18T13:28:54Z</time>
      </trkpt>
      <trkpt lat="43.42695" lon="6.05721">
        <ele>447.20001220703</ele>
        <time>2017-01-18T13:28:56Z</time>
      </trkpt>
      <trkpt lat="43.42696" lon="6.0573">
        <ele>447.60000610352</ele>
        <time>2017-01-18T13:29:00Z</time>
      </trkpt>
      <trkpt lat="43.42698" lon="6.05733">
        <ele>448</ele>
        <time>2017-01-18T13:29:01Z</time>
      </trkpt>
      <trkpt lat="43.42704" lon="6.05734">
        <ele>448.60000610352</ele>
        <time>2017-01-18T13:29:04Z</time>
      </trkpt>
      <trkpt lat="43.42707" lon="6.05734">
        <ele>448.79998779297</ele>
        <time>2017-01-18T13:29:06Z</time>
      </trkpt>
      <trkpt lat="43.42723" lon="6.05736">
        <ele>449</ele>
        <time>2017-01-18T13:29:14Z</time>
      </trkpt>
      <trkpt lat="43.42737" lon="6.05738">
        <ele>449.20001220703</ele>
        <time>2017-01-18T13:29:24Z</time>
      </trkpt>
      <trkpt lat="43.42747" lon="6.05739">
        <ele>449.79998779297</ele>
        <time>2017-01-18T13:29:31Z</time>
      </trkpt>
      <trkpt lat="43.42752" lon="6.05736">
        <ele>449.79998779297</ele>
        <time>2017-01-18T13:29:34Z</time>
      </trkpt>
      <trkpt lat="43.42761" lon="6.05727">
        <ele>450</ele>
        <time>2017-01-18T13:29:40Z</time>
      </trkpt>
      <trkpt lat="43.4277" lon="6.05727">
        <ele>450</ele>
        <time>2017-01-18T13:29:44Z</time>
      </trkpt>
      <trkpt lat="43.42785" lon="6.05733">
        <ele>450.79998779297</ele>
        <time>2017-01-18T13:29:54Z</time>
      </trkpt>
      <trkpt lat="43.42788" lon="6.05733">
        <ele>451</ele>
        <time>2017-01-18T13:29:57Z</time>
      </trkpt>
      <trkpt lat="43.42792" lon="6.05737">
        <ele>451.20001220703</ele>
        <time>2017-01-18T13:29:59Z</time>
      </trkpt>
      <trkpt lat="43.428" lon="6.0574">
        <ele>451.79998779297</ele>
        <time>2017-01-18T13:30:04Z</time>
      </trkpt>
      <trkpt lat="43.42804" lon="6.05739">
        <ele>451.79998779297</ele>
        <time>2017-01-18T13:30:05Z</time>
      </trkpt>
      <trkpt lat="43.4281" lon="6.05734">
        <ele>451.60000610352</ele>
        <time>2017-01-18T13:30:10Z</time>
      </trkpt>
      <trkpt lat="43.42814" lon="6.05733">
        <ele>451.39999389648</ele>
        <time>2017-01-18T13:30:11Z</time>
      </trkpt>
      <trkpt lat="43.42822" lon="6.05732">
        <ele>451.20001220703</ele>
        <time>2017-01-18T13:30:14Z</time>
      </trkpt>
      <trkpt lat="43.42827" lon="6.05729">
        <ele>451.20001220703</ele>
        <time>2017-01-18T13:30:18Z</time>
      </trkpt>
      <trkpt lat="43.42831" lon="6.05726">
        <ele>451.39999389648</ele>
        <time>2017-01-18T13:30:24Z</time>
      </trkpt>
      <trkpt lat="43.42833" lon="6.05726">
        <ele>451.60000610352</ele>
        <time>2017-01-18T13:30:30Z</time>
      </trkpt>
      <trkpt lat="43.42833" lon="6.05725">
        <ele>451.60000610352</ele>
        <time>2017-01-18T13:30:34Z</time>
      </trkpt>
      <trkpt lat="43.42833" lon="6.05726">
        <ele>451.20001220703</ele>
        <time>2017-01-18T13:30:44Z</time>
      </trkpt>
      <trkpt lat="43.42833" lon="6.05726">
        <ele>451.39999389648</ele>
        <time>2017-01-18T13:30:54Z</time>
      </trkpt>
      <trkpt lat="43.42833" lon="6.05726">
        <ele>451.20001220703</ele>
        <time>2017-01-18T13:31:04Z</time>
      </trkpt>
      <trkpt lat="43.42834" lon="6.05727">
        <ele>452</ele>
        <time>2017-01-18T13:31:29Z</time>
      </trkpt>
      <trkpt lat="43.42834" lon="6.05727">
        <ele>452</ele>
        <time>2017-01-18T13:31:33Z</time>
      </trkpt>
      <trkpt lat="43.42834" lon="6.05727">
        <ele>452</ele>
        <time>2017-01-18T13:31:34Z</time>
      </trkpt>
      <trkpt lat="43.42834" lon="6.05728">
        <ele>452</ele>
        <time>2017-01-18T13:31:44Z</time>
      </trkpt>
      <trkpt lat="43.42834" lon="6.05728">
        <ele>451.79998779297</ele>
        <time>2017-01-18T13:31:54Z</time>
      </trkpt>
      <trkpt lat="43.42834" lon="6.05728">
        <ele>451.79998779297</ele>
        <time>2017-01-18T13:32:04Z</time>
      </trkpt>
      <trkpt lat="43.42834" lon="6.05728">
        <ele>451.79998779297</ele>
        <time>2017-01-18T13:32:14Z</time>
      </trkpt>
      <trkpt lat="43.42834" lon="6.05728">
        <ele>451.60000610352</ele>
        <time>2017-01-18T13:32:24Z</time>
      </trkpt>
      <trkpt lat="43.42834" lon="6.05729">
        <ele>451.20001220703</ele>
        <time>2017-01-18T13:32:44Z</time>
      </trkpt>
      <trkpt lat="43.42834" lon="6.05729">
        <ele>451.20001220703</ele>
        <time>2017-01-18T13:32:54Z</time>
      </trkpt>
      <trkpt lat="43.42834" lon="6.05728">
        <ele>451</ele>
        <time>2017-01-18T13:33:14Z</time>
      </trkpt>
      <trkpt lat="43.42836" lon="6.05726">
        <ele>451</ele>
        <time>2017-01-18T13:33:24Z</time>
      </trkpt>
      <trkpt lat="43.42837" lon="6.05725">
        <ele>451</ele>
        <time>2017-01-18T13:33:25Z</time>
      </trkpt>
      <trkpt lat="43.42842" lon="6.05714">
        <ele>450.79998779297</ele>
        <time>2017-01-18T13:33:29Z</time>
      </trkpt>
      <trkpt lat="43.42844" lon="6.057">
        <ele>451.20001220703</ele>
        <time>2017-01-18T13:33:34Z</time>
      </trkpt>
      <trkpt lat="43.42847" lon="6.05665">
        <ele>451.20001220703</ele>
        <time>2017-01-18T13:33:44Z</time>
      </trkpt>
      <trkpt lat="43.4285" lon="6.05637">
        <ele>450.79998779297</ele>
        <time>2017-01-18T13:33:49Z</time>
      </trkpt>
      <trkpt lat="43.42852" lon="6.05617">
        <ele>450</ele>
        <time>2017-01-18T13:33:54Z</time>
      </trkpt>
      <trkpt lat="43.42855" lon="6.05585">
        <ele>450</ele>
        <time>2017-01-18T13:34:01Z</time>
      </trkpt>
      <trkpt lat="43.42857" lon="6.05569">
        <ele>449.60000610352</ele>
        <time>2017-01-18T13:34:04Z</time>
      </trkpt>
      <trkpt lat="43.42865" lon="6.05518">
        <ele>449.79998779297</ele>
        <time>2017-01-18T13:34:14Z</time>
      </trkpt>
      <trkpt lat="43.42867" lon="6.05499">
        <ele>449.79998779297</ele>
        <time>2017-01-18T13:34:19Z</time>
      </trkpt>
      <trkpt lat="43.4287" lon="6.05474">
        <ele>450</ele>
        <time>2017-01-18T13:34:24Z</time>
      </trkpt>
      <trkpt lat="43.42873" lon="6.05437">
        <ele>450.39999389648</ele>
        <time>2017-01-18T13:34:34Z</time>
      </trkpt>
      <trkpt lat="43.42873" lon="6.0543">
        <ele>450.60000610352</ele>
        <time>2017-01-18T13:34:36Z</time>
      </trkpt>
      <trkpt lat="43.42877" lon="6.05402">
        <ele>451.20001220703</ele>
        <time>2017-01-18T13:34:44Z</time>
      </trkpt>
      <trkpt lat="43.42878" lon="6.05385">
        <ele>451.79998779297</ele>
        <time>2017-01-18T13:34:48Z</time>
      </trkpt>
      <trkpt lat="43.42879" lon="6.05369">
        <ele>452.60000610352</ele>
        <time>2017-01-18T13:34:54Z</time>
      </trkpt>
      <trkpt lat="43.42879" lon="6.05366">
        <ele>453</ele>
        <time>2017-01-18T13:34:55Z</time>
      </trkpt>
      <trkpt lat="43.42884" lon="6.05343">
        <ele>453.79998779297</ele>
        <time>2017-01-18T13:35:02Z</time>
      </trkpt>
      <trkpt lat="43.42884" lon="6.0534">
        <ele>453.79998779297</ele>
        <time>2017-01-18T13:35:04Z</time>
      </trkpt>
      <trkpt lat="43.42885" lon="6.05337">
        <ele>454</ele>
        <time>2017-01-18T13:35:05Z</time>
      </trkpt>
      <trkpt lat="43.42887" lon="6.05316">
        <ele>454.60000610352</ele>
        <time>2017-01-18T13:35:11Z</time>
      </trkpt>
      <trkpt lat="43.42888" lon="6.05311">
        <ele>454.79998779297</ele>
        <time>2017-01-18T13:35:14Z</time>
      </trkpt>
      <trkpt lat="43.42889" lon="6.05305">
        <ele>455.20001220703</ele>
        <time>2017-01-18T13:35:16Z</time>
      </trkpt>
      <trkpt lat="43.42892" lon="6.05276">
        <ele>455.79998779297</ele>
        <time>2017-01-18T13:35:24Z</time>
      </trkpt>
      <trkpt lat="43.42897" lon="6.05238">
        <ele>455.20001220703</ele>
        <time>2017-01-18T13:35:34Z</time>
      </trkpt>
      <trkpt lat="43.42903" lon="6.05191">
        <ele>454.60000610352</ele>
        <time>2017-01-18T13:35:46Z</time>
      </trkpt>
      <trkpt lat="43.42906" lon="6.05167">
        <ele>454.39999389648</ele>
        <time>2017-01-18T13:35:52Z</time>
      </trkpt>
      <trkpt lat="43.42907" lon="6.05158">
        <ele>454.20001220703</ele>
        <time>2017-01-18T13:35:54Z</time>
      </trkpt>
      <trkpt lat="43.42909" lon="6.05141">
        <ele>453.39999389648</ele>
        <time>2017-01-18T13:35:57Z</time>
      </trkpt>
      <trkpt lat="43.4291" lon="6.05136">
        <ele>452.79998779297</ele>
        <time>2017-01-18T13:35:59Z</time>
      </trkpt>
      <trkpt lat="43.42915" lon="6.05103">
        <ele>451.79998779297</ele>
        <time>2017-01-18T13:36:04Z</time>
      </trkpt>
      <trkpt lat="43.4292" lon="6.05049">
        <ele>451.39999389648</ele>
        <time>2017-01-18T13:36:14Z</time>
      </trkpt>
      <trkpt lat="43.42923" lon="6.05022">
        <ele>450.60000610352</ele>
        <time>2017-01-18T13:36:19Z</time>
      </trkpt>
      <trkpt lat="43.42925" lon="6.05001">
        <ele>450</ele>
        <time>2017-01-18T13:36:24Z</time>
      </trkpt>
      <trkpt lat="43.42927" lon="6.04979">
        <ele>449.39999389648</ele>
        <time>2017-01-18T13:36:28Z</time>
      </trkpt>
      <trkpt lat="43.42931" lon="6.04947">
        <ele>448.79998779297</ele>
        <time>2017-01-18T13:36:34Z</time>
      </trkpt>
      <trkpt lat="43.42933" lon="6.049">
        <ele>448</ele>
        <time>2017-01-18T13:36:42Z</time>
      </trkpt>
      <trkpt lat="43.42934" lon="6.04894">
        <ele>447</ele>
        <time>2017-01-18T13:36:44Z</time>
      </trkpt>
      <trkpt lat="43.42934" lon="6.04887">
        <ele>446.60000610352</ele>
        <time>2017-01-18T13:36:45Z</time>
      </trkpt>
      <trkpt lat="43.42936" lon="6.04869">
        <ele>445.20001220703</ele>
        <time>2017-01-18T13:36:47Z</time>
      </trkpt>
      <trkpt lat="43.42941" lon="6.0485">
        <ele>443.39999389648</ele>
        <time>2017-01-18T13:36:49Z</time>
      </trkpt>
      <trkpt lat="43.42944" lon="6.04839">
        <ele>442.39999389648</ele>
        <time>2017-01-18T13:36:50Z</time>
      </trkpt>
      <trkpt lat="43.42949" lon="6.04809">
        <ele>440.60000610352</ele>
        <time>2017-01-18T13:36:52Z</time>
      </trkpt>
      <trkpt lat="43.4295" lon="6.04801">
        <ele>440</ele>
        <time>2017-01-18T13:36:54Z</time>
      </trkpt>
      <trkpt lat="43.42953" lon="6.04779">
        <ele>440.20001220703</ele>
        <time>2017-01-18T13:36:56Z</time>
      </trkpt>
      <trkpt lat="43.42953" lon="6.04762">
        <ele>441.39999389648</ele>
        <time>2017-01-18T13:36:59Z</time>
      </trkpt>
      <trkpt lat="43.42953" lon="6.04757">
        <ele>442</ele>
        <time>2017-01-18T13:37:00Z</time>
      </trkpt>
      <trkpt lat="43.42954" lon="6.04748">
        <ele>442.60000610352</ele>
        <time>2017-01-18T13:37:02Z</time>
      </trkpt>
      <trkpt lat="43.42956" lon="6.04738">
        <ele>443</ele>
        <time>2017-01-18T13:37:04Z</time>
      </trkpt>
      <trkpt lat="43.42957" lon="6.04733">
        <ele>443.39999389648</ele>
        <time>2017-01-18T13:37:06Z</time>
      </trkpt>
      <trkpt lat="43.42959" lon="6.04717">
        <ele>443.79998779297</ele>
        <time>2017-01-18T13:37:08Z</time>
      </trkpt>
      <trkpt lat="43.42963" lon="6.04685">
        <ele>443</ele>
        <time>2017-01-18T13:37:14Z</time>
      </trkpt>
      <trkpt lat="43.42968" lon="6.04635">
        <ele>443.60000610352</ele>
        <time>2017-01-18T13:37:24Z</time>
      </trkpt>
      <trkpt lat="43.42972" lon="6.04602">
        <ele>443.79998779297</ele>
        <time>2017-01-18T13:37:29Z</time>
      </trkpt>
      <trkpt lat="43.42976" lon="6.04577">
        <ele>443.60000610352</ele>
        <time>2017-01-18T13:37:34Z</time>
      </trkpt>
      <trkpt lat="43.42977" lon="6.04562">
        <ele>442.60000610352</ele>
        <time>2017-01-18T13:37:36Z</time>
      </trkpt>
      <trkpt lat="43.42977" lon="6.04553">
        <ele>441.79998779297</ele>
        <time>2017-01-18T13:37:37Z</time>
      </trkpt>
      <trkpt lat="43.42977" lon="6.04544">
        <ele>441</ele>
        <time>2017-01-18T13:37:38Z</time>
      </trkpt>
      <trkpt lat="43.42978" lon="6.04535">
        <ele>440.20001220703</ele>
        <time>2017-01-18T13:37:39Z</time>
      </trkpt>
      <trkpt lat="43.42978" lon="6.04528">
        <ele>439.79998779297</ele>
        <time>2017-01-18T13:37:40Z</time>
      </trkpt>
      <trkpt lat="43.42976" lon="6.04515">
        <ele>440.79998779297</ele>
        <time>2017-01-18T13:37:44Z</time>
      </trkpt>
      <trkpt lat="43.42977" lon="6.04515">
        <ele>441.60000610352</ele>
        <time>2017-01-18T13:37:45Z</time>
      </trkpt>
      <trkpt lat="43.42977" lon="6.04514">
        <ele>442.60000610352</ele>
        <time>2017-01-18T13:37:48Z</time>
      </trkpt>
      <trkpt lat="43.42976" lon="6.04511">
        <ele>443.39999389648</ele>
        <time>2017-01-18T13:37:54Z</time>
      </trkpt>
      <trkpt lat="43.42975" lon="6.04511">
        <ele>443.79998779297</ele>
        <time>2017-01-18T13:37:57Z</time>
      </trkpt>
      <trkpt lat="43.42974" lon="6.04511">
        <ele>443.79998779297</ele>
        <time>2017-01-18T13:38:03Z</time>
      </trkpt>
      <trkpt lat="43.42974" lon="6.04511">
        <ele>443.79998779297</ele>
        <time>2017-01-18T13:38:04Z</time>
      </trkpt>
      <trkpt lat="43.42975" lon="6.04508">
        <ele>444</ele>
        <time>2017-01-18T13:38:12Z</time>
      </trkpt>
      <trkpt lat="43.42975" lon="6.04509">
        <ele>444</ele>
        <time>2017-01-18T13:38:14Z</time>
      </trkpt>
      <trkpt lat="43.42976" lon="6.04509">
        <ele>444</ele>
        <time>2017-01-18T13:38:24Z</time>
      </trkpt>
      <trkpt lat="43.42977" lon="6.0451">
        <ele>444.20001220703</ele>
        <time>2017-01-18T13:38:34Z</time>
      </trkpt>
      <trkpt lat="43.42977" lon="6.04508">
        <ele>444.20001220703</ele>
        <time>2017-01-18T13:38:44Z</time>
      </trkpt>
      <trkpt lat="43.42978" lon="6.04507">
        <ele>444.20001220703</ele>
        <time>2017-01-18T13:38:47Z</time>
      </trkpt>
      <trkpt lat="43.42978" lon="6.04503">
        <ele>444.39999389648</ele>
        <time>2017-01-18T13:38:50Z</time>
      </trkpt>
      <trkpt lat="43.42978" lon="6.04496">
        <ele>444.79998779297</ele>
        <time>2017-01-18T13:38:53Z</time>
      </trkpt>
      <trkpt lat="43.42978" lon="6.04494">
        <ele>445</ele>
        <time>2017-01-18T13:38:54Z</time>
      </trkpt>
      <trkpt lat="43.42978" lon="6.04489">
        <ele>446</ele>
        <time>2017-01-18T13:38:57Z</time>
      </trkpt>
      <trkpt lat="43.42979" lon="6.04481">
        <ele>446.79998779297</ele>
        <time>2017-01-18T13:39:01Z</time>
      </trkpt>
      <trkpt lat="43.42981" lon="6.04469">
        <ele>447.60000610352</ele>
        <time>2017-01-18T13:39:07Z</time>
      </trkpt>
      <trkpt lat="43.42982" lon="6.04464">
        <ele>448.20001220703</ele>
        <time>2017-01-18T13:39:10Z</time>
      </trkpt>
      <trkpt lat="43.42984" lon="6.04456">
        <ele>448.79998779297</ele>
        <time>2017-01-18T13:39:14Z</time>
      </trkpt>
      <trkpt lat="43.42985" lon="6.04452">
        <ele>449.39999389648</ele>
        <time>2017-01-18T13:39:17Z</time>
      </trkpt>
      <trkpt lat="43.42986" lon="6.04445">
        <ele>450.39999389648</ele>
        <time>2017-01-18T13:39:24Z</time>
      </trkpt>
      <trkpt lat="43.42986" lon="6.04445">
        <ele>450.39999389648</ele>
        <time>2017-01-18T13:39:25Z</time>
      </trkpt>
      <trkpt lat="43.42986" lon="6.04446">
        <ele>450.60000610352</ele>
        <time>2017-01-18T13:39:34Z</time>
      </trkpt>
      <trkpt lat="43.42986" lon="6.04446">
        <ele>450.60000610352</ele>
        <time>2017-01-18T13:39:50Z</time>
      </trkpt>
      <trkpt lat="43.42986" lon="6.04446">
        <ele>450.60000610352</ele>
        <time>2017-01-18T13:39:54Z</time>
      </trkpt>
      <trkpt lat="43.42986" lon="6.04445">
        <ele>450.39999389648</ele>
        <time>2017-01-18T13:40:02Z</time>
      </trkpt>
      <trkpt lat="43.42988" lon="6.04439">
        <ele>450.39999389648</ele>
        <time>2017-01-18T13:40:04Z</time>
      </trkpt>
      <trkpt lat="43.42994" lon="6.04404">
        <ele>450.20001220703</ele>
        <time>2017-01-18T13:40:14Z</time>
      </trkpt>
      <trkpt lat="43.42998" lon="6.04386">
        <ele>449.79998779297</ele>
        <time>2017-01-18T13:40:19Z</time>
      </trkpt>
      <trkpt lat="43.43" lon="6.04373">
        <ele>449.39999389648</ele>
        <time>2017-01-18T13:40:23Z</time>
      </trkpt>
      <trkpt lat="43.43001" lon="6.04368">
        <ele>449.20001220703</ele>
        <time>2017-01-18T13:40:24Z</time>
      </trkpt>
      <trkpt lat="43.43002" lon="6.04343">
        <ele>448.20001220703</ele>
        <time>2017-01-18T13:40:28Z</time>
      </trkpt>
      <trkpt lat="43.43004" lon="6.04326">
        <ele>447.20001220703</ele>
        <time>2017-01-18T13:40:32Z</time>
      </trkpt>
      <trkpt lat="43.43007" lon="6.04312">
        <ele>447</ele>
        <time>2017-01-18T13:40:34Z</time>
      </trkpt>
      <trkpt lat="43.43009" lon="6.04294">
        <ele>446.79998779297</ele>
        <time>2017-01-18T13:40:39Z</time>
      </trkpt>
      <trkpt lat="43.4301" lon="6.04283">
        <ele>447.20001220703</ele>
        <time>2017-01-18T13:40:42Z</time>
      </trkpt>
      <trkpt lat="43.43011" lon="6.04276">
        <ele>447.60000610352</ele>
        <time>2017-01-18T13:40:44Z</time>
      </trkpt>
      <trkpt lat="43.43014" lon="6.04258">
        <ele>448.20001220703</ele>
        <time>2017-01-18T13:40:50Z</time>
      </trkpt>
      <trkpt lat="43.43017" lon="6.04245">
        <ele>448.79998779297</ele>
        <time>2017-01-18T13:40:54Z</time>
      </trkpt>
      <trkpt lat="43.43018" lon="6.04239">
        <ele>449.20001220703</ele>
        <time>2017-01-18T13:40:56Z</time>
      </trkpt>
      <trkpt lat="43.43024" lon="6.04212">
        <ele>449.20001220703</ele>
        <time>2017-01-18T13:41:04Z</time>
      </trkpt>
      <trkpt lat="43.43028" lon="6.04194">
        <ele>449</ele>
        <time>2017-01-18T13:41:09Z</time>
      </trkpt>
      <trkpt lat="43.43032" lon="6.04174">
        <ele>448.79998779297</ele>
        <time>2017-01-18T13:41:14Z</time>
      </trkpt>
      <trkpt lat="43.43039" lon="6.04139">
        <ele>448.60000610352</ele>
        <time>2017-01-18T13:41:24Z</time>
      </trkpt>
      <trkpt lat="43.43046" lon="6.04104">
        <ele>448.79998779297</ele>
        <time>2017-01-18T13:41:34Z</time>
      </trkpt>
      <trkpt lat="43.43053" lon="6.04073">
        <ele>449</ele>
        <time>2017-01-18T13:41:44Z</time>
      </trkpt>
      <trkpt lat="43.43061" lon="6.04041">
        <ele>449.39999389648</ele>
        <time>2017-01-18T13:41:54Z</time>
      </trkpt>
      <trkpt lat="43.43065" lon="6.04021">
        <ele>449.39999389648</ele>
        <time>2017-01-18T13:42:04Z</time>
      </trkpt>
      <trkpt lat="43.43085" lon="6.04018">
        <ele>449.60000610352</ele>
        <time>2017-01-18T13:42:14Z</time>
      </trkpt>
      <trkpt lat="43.43097" lon="6.04001">
        <ele>449.39999389648</ele>
        <time>2017-01-18T13:42:20Z</time>
      </trkpt>
      <trkpt lat="43.43101" lon="6.0399">
        <ele>449.20001220703</ele>
        <time>2017-01-18T13:42:24Z</time>
      </trkpt>
      <trkpt lat="43.43112" lon="6.03972">
        <ele>449.20001220703</ele>
        <time>2017-01-18T13:42:29Z</time>
      </trkpt>
      <trkpt lat="43.43118" lon="6.03962">
        <ele>449.39999389648</ele>
        <time>2017-01-18T13:42:34Z</time>
      </trkpt>
      <trkpt lat="43.43123" lon="6.03946">
        <ele>449.20001220703</ele>
        <time>2017-01-18T13:42:38Z</time>
      </trkpt>
      <trkpt lat="43.43129" lon="6.03934">
        <ele>449.60000610352</ele>
        <time>2017-01-18T13:42:42Z</time>
      </trkpt>
      <trkpt lat="43.43133" lon="6.03929">
        <ele>449.79998779297</ele>
        <time>2017-01-18T13:42:44Z</time>
      </trkpt>
      <trkpt lat="43.43135" lon="6.03923">
        <ele>450.20001220703</ele>
        <time>2017-01-18T13:42:46Z</time>
      </trkpt>
      <trkpt lat="43.43138" lon="6.03911">
        <ele>451</ele>
        <time>2017-01-18T13:42:51Z</time>
      </trkpt>
      <trkpt lat="43.43138" lon="6.03911">
        <ele>451.20001220703</ele>
        <time>2017-01-18T13:42:52Z</time>
      </trkpt>
      <trkpt lat="43.43136" lon="6.03903">
        <ele>451.39999389648</ele>
        <time>2017-01-18T13:42:54Z</time>
      </trkpt>
      <trkpt lat="43.43136" lon="6.039">
        <ele>451.39999389648</ele>
        <time>2017-01-18T13:42:55Z</time>
      </trkpt>
      <trkpt lat="43.43139" lon="6.03895">
        <ele>451.39999389648</ele>
        <time>2017-01-18T13:42:58Z</time>
      </trkpt>
      <trkpt lat="43.4314" lon="6.03874">
        <ele>452</ele>
        <time>2017-01-18T13:43:04Z</time>
      </trkpt>
      <trkpt lat="43.4314" lon="6.03868">
        <ele>452.20001220703</ele>
        <time>2017-01-18T13:43:06Z</time>
      </trkpt>
      <trkpt lat="43.43141" lon="6.03853">
        <ele>453</ele>
        <time>2017-01-18T13:43:11Z</time>
      </trkpt>
      <trkpt lat="43.43138" lon="6.03844">
        <ele>453.20001220703</ele>
        <time>2017-01-18T13:43:14Z</time>
      </trkpt>
      <trkpt lat="43.43138" lon="6.03841">
        <ele>453.39999389648</ele>
        <time>2017-01-18T13:43:16Z</time>
      </trkpt>
      <trkpt lat="43.43135" lon="6.03815">
        <ele>454</ele>
        <time>2017-01-18T13:43:24Z</time>
      </trkpt>
      <trkpt lat="43.43134" lon="6.03797">
        <ele>454.39999389648</ele>
        <time>2017-01-18T13:43:30Z</time>
      </trkpt>
      <trkpt lat="43.43132" lon="6.03791">
        <ele>454.60000610352</ele>
        <time>2017-01-18T13:43:32Z</time>
      </trkpt>
      <trkpt lat="43.43129" lon="6.03785">
        <ele>454.79998779297</ele>
        <time>2017-01-18T13:43:34Z</time>
      </trkpt>
      <trkpt lat="43.43123" lon="6.03774">
        <ele>454.79998779297</ele>
        <time>2017-01-18T13:43:39Z</time>
      </trkpt>
      <trkpt lat="43.43126" lon="6.03763">
        <ele>455.20001220703</ele>
        <time>2017-01-18T13:43:44Z</time>
      </trkpt>
      <trkpt lat="43.43126" lon="6.0376">
        <ele>455.20001220703</ele>
        <time>2017-01-18T13:43:45Z</time>
      </trkpt>
      <trkpt lat="43.43121" lon="6.03748">
        <ele>455.20001220703</ele>
        <time>2017-01-18T13:43:50Z</time>
      </trkpt>
      <trkpt lat="43.43115" lon="6.03745">
        <ele>455</ele>
        <time>2017-01-18T13:43:54Z</time>
      </trkpt>
      <trkpt lat="43.43108" lon="6.0373">
        <ele>455.39999389648</ele>
        <time>2017-01-18T13:44:00Z</time>
      </trkpt>
      <trkpt lat="43.43102" lon="6.03725">
        <ele>456.79998779297</ele>
        <time>2017-01-18T13:44:04Z</time>
      </trkpt>
      <trkpt lat="43.43096" lon="6.03722">
        <ele>457</ele>
        <time>2017-01-18T13:44:08Z</time>
      </trkpt>
      <trkpt lat="43.43096" lon="6.03711">
        <ele>457</ele>
        <time>2017-01-18T13:44:13Z</time>
      </trkpt>
      <trkpt lat="43.43096" lon="6.03709">
        <ele>457.20001220703</ele>
        <time>2017-01-18T13:44:14Z</time>
      </trkpt>
      <trkpt lat="43.43098" lon="6.03691">
        <ele>457.20001220703</ele>
        <time>2017-01-18T13:44:22Z</time>
      </trkpt>
      <trkpt lat="43.43099" lon="6.03688">
        <ele>457.20001220703</ele>
        <time>2017-01-18T13:44:24Z</time>
      </trkpt>
      <trkpt lat="43.43098" lon="6.03687">
        <ele>457.39999389648</ele>
        <time>2017-01-18T13:44:28Z</time>
      </trkpt>
      <trkpt lat="43.43099" lon="6.03687">
        <ele>457.60000610352</ele>
        <time>2017-01-18T13:44:33Z</time>
      </trkpt>
      <trkpt lat="43.43099" lon="6.03687">
        <ele>457.60000610352</ele>
        <time>2017-01-18T13:44:34Z</time>
      </trkpt>
      <trkpt lat="43.43099" lon="6.03687">
        <ele>457.60000610352</ele>
        <time>2017-01-18T13:44:40Z</time>
      </trkpt>
      <trkpt lat="43.43099" lon="6.03686">
        <ele>457.79998779297</ele>
        <time>2017-01-18T13:44:42Z</time>
      </trkpt>
      <trkpt lat="43.43099" lon="6.03687">
        <ele>457.79998779297</ele>
        <time>2017-01-18T13:44:46Z</time>
      </trkpt>
      <trkpt lat="43.43099" lon="6.03687">
        <ele>457.79998779297</ele>
        <time>2017-01-18T13:44:48Z</time>
      </trkpt>
      <trkpt lat="43.43099" lon="6.03687">
        <ele>457.60000610352</ele>
        <time>2017-01-18T13:44:53Z</time>
      </trkpt>
      <trkpt lat="43.43098" lon="6.03687">
        <ele>457.39999389648</ele>
        <time>2017-01-18T13:44:56Z</time>
      </trkpt>
      <trkpt lat="43.43098" lon="6.03687">
        <ele>457.39999389648</ele>
        <time>2017-01-18T13:44:59Z</time>
      </trkpt>
      <trkpt lat="43.43099" lon="6.03685">
        <ele>457.60000610352</ele>
        <time>2017-01-18T13:45:02Z</time>
      </trkpt>
      <trkpt lat="43.43099" lon="6.03685">
        <ele>457.60000610352</ele>
        <time>2017-01-18T13:45:04Z</time>
      </trkpt>
      <trkpt lat="43.431" lon="6.0368">
        <ele>457.60000610352</ele>
        <time>2017-01-18T13:45:06Z</time>
      </trkpt>
      <trkpt lat="43.431" lon="6.03667">
        <ele>457.60000610352</ele>
        <time>2017-01-18T13:45:14Z</time>
      </trkpt>
      <trkpt lat="43.43102" lon="6.03657">
        <ele>457.79998779297</ele>
        <time>2017-01-18T13:45:20Z</time>
      </trkpt>
      <trkpt lat="43.43104" lon="6.03651">
        <ele>457.60000610352</ele>
        <time>2017-01-18T13:45:24Z</time>
      </trkpt>
      <trkpt lat="43.43104" lon="6.03649">
        <ele>457.60000610352</ele>
        <time>2017-01-18T13:45:25Z</time>
      </trkpt>
      <trkpt lat="43.43101" lon="6.03629">
        <ele>457.60000610352</ele>
        <time>2017-01-18T13:45:34Z</time>
      </trkpt>
      <trkpt lat="43.43103" lon="6.03607">
        <ele>458.20001220703</ele>
        <time>2017-01-18T13:45:44Z</time>
      </trkpt>
      <trkpt lat="43.43106" lon="6.03592">
        <ele>458.79998779297</ele>
        <time>2017-01-18T13:45:51Z</time>
      </trkpt>
      <trkpt lat="43.43106" lon="6.03586">
        <ele>459.20001220703</ele>
        <time>2017-01-18T13:45:54Z</time>
      </trkpt>
      <trkpt lat="43.43106" lon="6.03583">
        <ele>459.79998779297</ele>
        <time>2017-01-18T13:46:03Z</time>
      </trkpt>
      <trkpt lat="43.43106" lon="6.03584">
        <ele>459.79998779297</ele>
        <time>2017-01-18T13:46:14Z</time>
      </trkpt>
      <trkpt lat="43.43106" lon="6.03584">
        <ele>459.79998779297</ele>
        <time>2017-01-18T13:46:24Z</time>
      </trkpt>
      <trkpt lat="43.43106" lon="6.03583">
        <ele>459.60000610352</ele>
        <time>2017-01-18T13:46:34Z</time>
      </trkpt>
      <trkpt lat="43.43106" lon="6.03583">
        <ele>459.79998779297</ele>
        <time>2017-01-18T13:46:54Z</time>
      </trkpt>
      <trkpt lat="43.43106" lon="6.03584">
        <ele>460.20001220703</ele>
        <time>2017-01-18T13:47:04Z</time>
      </trkpt>
      <trkpt lat="43.43106" lon="6.03583">
        <ele>460.20001220703</ele>
        <time>2017-01-18T13:47:24Z</time>
      </trkpt>
      <trkpt lat="43.43106" lon="6.03583">
        <ele>460.20001220703</ele>
        <time>2017-01-18T13:47:34Z</time>
      </trkpt>
      <trkpt lat="43.43106" lon="6.03582">
        <ele>460.20001220703</ele>
        <time>2017-01-18T13:47:49Z</time>
      </trkpt>
      <trkpt lat="43.43106" lon="6.03583">
        <ele>460.20001220703</ele>
        <time>2017-01-18T13:47:54Z</time>
      </trkpt>
      <trkpt lat="43.43106" lon="6.03581">
        <ele>460.20001220703</ele>
        <time>2017-01-18T13:47:57Z</time>
      </trkpt>
      <trkpt lat="43.43107" lon="6.03578">
        <ele>460.20001220703</ele>
        <time>2017-01-18T13:48:00Z</time>
      </trkpt>
      <trkpt lat="43.43108" lon="6.03571">
        <ele>460</ele>
        <time>2017-01-18T13:48:03Z</time>
      </trkpt>
      <trkpt lat="43.43107" lon="6.03569">
        <ele>460.20001220703</ele>
        <time>2017-01-18T13:48:04Z</time>
      </trkpt>
      <trkpt lat="43.43107" lon="6.03541">
        <ele>460.39999389648</ele>
        <time>2017-01-18T13:48:13Z</time>
      </trkpt>
      <trkpt lat="43.43107" lon="6.03538">
        <ele>460.60000610352</ele>
        <time>2017-01-18T13:48:14Z</time>
      </trkpt>
      <trkpt lat="43.43108" lon="6.03524">
        <ele>460.79998779297</ele>
        <time>2017-01-18T13:48:18Z</time>
      </trkpt>
      <trkpt lat="43.43108" lon="6.0351">
        <ele>461.39999389648</ele>
        <time>2017-01-18T13:48:22Z</time>
      </trkpt>
      <trkpt lat="43.43108" lon="6.03503">
        <ele>461.39999389648</ele>
        <time>2017-01-18T13:48:24Z</time>
      </trkpt>
      <trkpt lat="43.43109" lon="6.03486">
        <ele>462</ele>
        <time>2017-01-18T13:48:29Z</time>
      </trkpt>
      <trkpt lat="43.43109" lon="6.03473">
        <ele>463</ele>
        <time>2017-01-18T13:48:33Z</time>
      </trkpt>
      <trkpt lat="43.4311" lon="6.03469">
        <ele>463.20001220703</ele>
        <time>2017-01-18T13:48:34Z</time>
      </trkpt>
      <trkpt lat="43.4311" lon="6.03453">
        <ele>463.20001220703</ele>
        <time>2017-01-18T13:48:39Z</time>
      </trkpt>
      <trkpt lat="43.43111" lon="6.03438">
        <ele>463.39999389648</ele>
        <time>2017-01-18T13:48:44Z</time>
      </trkpt>
      <trkpt lat="43.43117" lon="6.03407">
        <ele>463.79998779297</ele>
        <time>2017-01-18T13:48:54Z</time>
      </trkpt>
      <trkpt lat="43.43118" lon="6.03379">
        <ele>464</ele>
        <time>2017-01-18T13:49:03Z</time>
      </trkpt>
      <trkpt lat="43.43118" lon="6.03376">
        <ele>464</ele>
        <time>2017-01-18T13:49:04Z</time>
      </trkpt>
      <trkpt lat="43.43121" lon="6.03345">
        <ele>464.60000610352</ele>
        <time>2017-01-18T13:49:14Z</time>
      </trkpt>
      <trkpt lat="43.43122" lon="6.03334">
        <ele>465.20001220703</ele>
        <time>2017-01-18T13:49:17Z</time>
      </trkpt>
      <trkpt lat="43.43124" lon="6.0331">
        <ele>466</ele>
        <time>2017-01-18T13:49:24Z</time>
      </trkpt>
      <trkpt lat="43.43124" lon="6.033">
        <ele>466.39999389648</ele>
        <time>2017-01-18T13:49:27Z</time>
      </trkpt>
      <trkpt lat="43.43125" lon="6.03276">
        <ele>467.20001220703</ele>
        <time>2017-01-18T13:49:34Z</time>
      </trkpt>
      <trkpt lat="43.43125" lon="6.03272">
        <ele>467.39999389648</ele>
        <time>2017-01-18T13:49:35Z</time>
      </trkpt>
      <trkpt lat="43.43127" lon="6.03242">
        <ele>468.39999389648</ele>
        <time>2017-01-18T13:49:44Z</time>
      </trkpt>
      <trkpt lat="43.43128" lon="6.03239">
        <ele>468.39999389648</ele>
        <time>2017-01-18T13:49:46Z</time>
      </trkpt>
      <trkpt lat="43.4313" lon="6.03209">
        <ele>468.39999389648</ele>
        <time>2017-01-18T13:49:53Z</time>
      </trkpt>
      <trkpt lat="43.4313" lon="6.03204">
        <ele>468.20001220703</ele>
        <time>2017-01-18T13:49:54Z</time>
      </trkpt>
      <trkpt lat="43.43132" lon="6.03178">
        <ele>467.20001220703</ele>
        <time>2017-01-18T13:49:58Z</time>
      </trkpt>
      <trkpt lat="43.43132" lon="6.0317">
        <ele>466</ele>
        <time>2017-01-18T13:50:00Z</time>
      </trkpt>
      <trkpt lat="43.43131" lon="6.03163">
        <ele>464.60000610352</ele>
        <time>2017-01-18T13:50:01Z</time>
      </trkpt>
      <trkpt lat="43.43129" lon="6.03154">
        <ele>463</ele>
        <time>2017-01-18T13:50:02Z</time>
      </trkpt>
      <trkpt lat="43.43127" lon="6.03154">
        <ele>461.79998779297</ele>
        <time>2017-01-18T13:50:03Z</time>
      </trkpt>
      <trkpt lat="43.43125" lon="6.03155">
        <ele>461</ele>
        <time>2017-01-18T13:50:04Z</time>
      </trkpt>
      <trkpt lat="43.43124" lon="6.03156">
        <ele>460.79998779297</ele>
        <time>2017-01-18T13:50:05Z</time>
      </trkpt>
      <trkpt lat="43.43124" lon="6.03156">
        <ele>460.60000610352</ele>
        <time>2017-01-18T13:50:06Z</time>
      </trkpt>
      <trkpt lat="43.43122" lon="6.03155">
        <ele>460.79998779297</ele>
        <time>2017-01-18T13:50:12Z</time>
      </trkpt>
      <trkpt lat="43.43122" lon="6.03155">
        <ele>460.79998779297</ele>
        <time>2017-01-18T13:50:14Z</time>
      </trkpt>
      <trkpt lat="43.43122" lon="6.03155">
        <ele>460.60000610352</ele>
        <time>2017-01-18T13:50:18Z</time>
      </trkpt>
      <trkpt lat="43.43122" lon="6.03155">
        <ele>460.60000610352</ele>
        <time>2017-01-18T13:50:22Z</time>
      </trkpt>
      <trkpt lat="43.43122" lon="6.03155">
        <ele>460.60000610352</ele>
        <time>2017-01-18T13:50:24Z</time>
      </trkpt>
      <trkpt lat="43.43122" lon="6.03156">
        <ele>460.60000610352</ele>
        <time>2017-01-18T13:50:29Z</time>
      </trkpt>
      <trkpt lat="43.43122" lon="6.03156">
        <ele>460.60000610352</ele>
        <time>2017-01-18T13:50:34Z</time>
      </trkpt>
      <trkpt lat="43.43122" lon="6.03156">
        <ele>460.60000610352</ele>
        <time>2017-01-18T13:50:36Z</time>
      </trkpt>
      <trkpt lat="43.43122" lon="6.03157">
        <ele>460.79998779297</ele>
        <time>2017-01-18T13:50:44Z</time>
      </trkpt>
      <trkpt lat="43.43122" lon="6.03157">
        <ele>460.60000610352</ele>
        <time>2017-01-18T13:50:54Z</time>
      </trkpt>
      <trkpt lat="43.43121" lon="6.03157">
        <ele>460.79998779297</ele>
        <time>2017-01-18T13:51:00Z</time>
      </trkpt>
      <trkpt lat="43.43121" lon="6.03156">
        <ele>460.60000610352</ele>
        <time>2017-01-18T13:51:04Z</time>
      </trkpt>
      <trkpt lat="43.43121" lon="6.03156">
        <ele>460.39999389648</ele>
        <time>2017-01-18T13:51:10Z</time>
      </trkpt>
      <trkpt lat="43.43121" lon="6.03156">
        <ele>460.60000610352</ele>
        <time>2017-01-18T13:51:14Z</time>
      </trkpt>
      <trkpt lat="43.43121" lon="6.03156">
        <ele>460.60000610352</ele>
        <time>2017-01-18T13:51:24Z</time>
      </trkpt>
      <trkpt lat="43.43121" lon="6.03156">
        <ele>460.60000610352</ele>
        <time>2017-01-18T13:51:34Z</time>
      </trkpt>
      <trkpt lat="43.4312" lon="6.03155">
        <ele>460.60000610352</ele>
        <time>2017-01-18T13:51:38Z</time>
      </trkpt>
      <trkpt lat="43.43118" lon="6.03156">
        <ele>460.60000610352</ele>
        <time>2017-01-18T13:51:40Z</time>
      </trkpt>
      <trkpt lat="43.43111" lon="6.03156">
        <ele>461.20001220703</ele>
        <time>2017-01-18T13:51:44Z</time>
      </trkpt>
      <trkpt lat="43.43102" lon="6.03159">
        <ele>461.39999389648</ele>
        <time>2017-01-18T13:51:51Z</time>
      </trkpt>
      <trkpt lat="43.43094" lon="6.03163">
        <ele>461.79998779297</ele>
        <time>2017-01-18T13:51:56Z</time>
      </trkpt>
      <trkpt lat="43.43086" lon="6.03164">
        <ele>462.39999389648</ele>
        <time>2017-01-18T13:52:00Z</time>
      </trkpt>
      <trkpt lat="43.43077" lon="6.03168">
        <ele>462.39999389648</ele>
        <time>2017-01-18T13:52:04Z</time>
      </trkpt>
      <trkpt lat="43.43074" lon="6.03171">
        <ele>462.60000610352</ele>
        <time>2017-01-18T13:52:06Z</time>
      </trkpt>
      <trkpt lat="43.43066" lon="6.03177">
        <ele>463.60000610352</ele>
        <time>2017-01-18T13:52:10Z</time>
      </trkpt>
      <trkpt lat="43.4306" lon="6.03176">
        <ele>464.79998779297</ele>
        <time>2017-01-18T13:52:14Z</time>
      </trkpt>
      <trkpt lat="43.43052" lon="6.03173">
        <ele>466</ele>
        <time>2017-01-18T13:52:19Z</time>
      </trkpt>
      <trkpt lat="43.43046" lon="6.03174">
        <ele>466.60000610352</ele>
        <time>2017-01-18T13:52:23Z</time>
      </trkpt>
      <trkpt lat="43.43046" lon="6.03174">
        <ele>466.60000610352</ele>
        <time>2017-01-18T13:52:24Z</time>
      </trkpt>
      <trkpt lat="43.43044" lon="6.03174">
        <ele>466.79998779297</ele>
        <time>2017-01-18T13:52:25Z</time>
      </trkpt>
      <trkpt lat="43.43039" lon="6.03175">
        <ele>466.79998779297</ele>
        <time>2017-01-18T13:52:28Z</time>
      </trkpt>
      <trkpt lat="43.43037" lon="6.03175">
        <ele>467</ele>
        <time>2017-01-18T13:52:29Z</time>
      </trkpt>
      <trkpt lat="43.43031" lon="6.03175">
        <ele>468</ele>
        <time>2017-01-18T13:52:34Z</time>
      </trkpt>
      <trkpt lat="43.43012" lon="6.03171">
        <ele>469</ele>
        <time>2017-01-18T13:52:44Z</time>
      </trkpt>
      <trkpt lat="43.43003" lon="6.03165">
        <ele>470.20001220703</ele>
        <time>2017-01-18T13:52:52Z</time>
      </trkpt>
      <trkpt lat="43.43002" lon="6.03164">
        <ele>470.20001220703</ele>
        <time>2017-01-18T13:52:53Z</time>
      </trkpt>
      <trkpt lat="43.43" lon="6.03164">
        <ele>470.39999389648</ele>
        <time>2017-01-18T13:52:54Z</time>
      </trkpt>
      <trkpt lat="43.4299" lon="6.0316">
        <ele>471.20001220703</ele>
        <time>2017-01-18T13:53:01Z</time>
      </trkpt>
      <trkpt lat="43.42984" lon="6.03157">
        <ele>471.79998779297</ele>
        <time>2017-01-18T13:53:04Z</time>
      </trkpt>
      <trkpt lat="43.42977" lon="6.03155">
        <ele>472.39999389648</ele>
        <time>2017-01-18T13:53:10Z</time>
      </trkpt>
      <trkpt lat="43.42972" lon="6.03152">
        <ele>472.79998779297</ele>
        <time>2017-01-18T13:53:14Z</time>
      </trkpt>
      <trkpt lat="43.42963" lon="6.03149">
        <ele>473.39999389648</ele>
        <time>2017-01-18T13:53:21Z</time>
      </trkpt>
      <trkpt lat="43.42958" lon="6.03147">
        <ele>473.60000610352</ele>
        <time>2017-01-18T13:53:24Z</time>
      </trkpt>
      <trkpt lat="43.42948" lon="6.03141">
        <ele>474.39999389648</ele>
        <time>2017-01-18T13:53:31Z</time>
      </trkpt>
      <trkpt lat="43.42946" lon="6.0314">
        <ele>474.60000610352</ele>
        <time>2017-01-18T13:53:32Z</time>
      </trkpt>
      <trkpt lat="43.42945" lon="6.03139">
        <ele>474.79998779297</ele>
        <time>2017-01-18T13:53:34Z</time>
      </trkpt>
      <trkpt lat="43.42937" lon="6.03132">
        <ele>475.39999389648</ele>
        <time>2017-01-18T13:53:40Z</time>
      </trkpt>
      <trkpt lat="43.42932" lon="6.03129">
        <ele>476</ele>
        <time>2017-01-18T13:53:44Z</time>
      </trkpt>
      <trkpt lat="43.42928" lon="6.03128">
        <ele>476.60000610352</ele>
        <time>2017-01-18T13:53:48Z</time>
      </trkpt>
      <trkpt lat="43.42918" lon="6.03126">
        <ele>477.39999389648</ele>
        <time>2017-01-18T13:53:54Z</time>
      </trkpt>
      <trkpt lat="43.42916" lon="6.03125">
        <ele>477.60000610352</ele>
        <time>2017-01-18T13:53:55Z</time>
      </trkpt>
      <trkpt lat="43.42908" lon="6.0312">
        <ele>478.79998779297</ele>
        <time>2017-01-18T13:54:02Z</time>
      </trkpt>
      <trkpt lat="43.42905" lon="6.03119">
        <ele>479.20001220703</ele>
        <time>2017-01-18T13:54:04Z</time>
      </trkpt>
      <trkpt lat="43.429" lon="6.03116">
        <ele>479.79998779297</ele>
        <time>2017-01-18T13:54:08Z</time>
      </trkpt>
      <trkpt lat="43.42883" lon="6.03113">
        <ele>480.39999389648</ele>
        <time>2017-01-18T13:54:19Z</time>
      </trkpt>
      <trkpt lat="43.42878" lon="6.03114">
        <ele>480.60000610352</ele>
        <time>2017-01-18T13:54:22Z</time>
      </trkpt>
      <trkpt lat="43.42876" lon="6.03116">
        <ele>480.79998779297</ele>
        <time>2017-01-18T13:54:24Z</time>
      </trkpt>
      <trkpt lat="43.42873" lon="6.03118">
        <ele>481.20001220703</ele>
        <time>2017-01-18T13:54:26Z</time>
      </trkpt>
      <trkpt lat="43.42862" lon="6.03117">
        <ele>481.60000610352</ele>
        <time>2017-01-18T13:54:32Z</time>
      </trkpt>
      <trkpt lat="43.42858" lon="6.03116">
        <ele>481.79998779297</ele>
        <time>2017-01-18T13:54:34Z</time>
      </trkpt>
      <trkpt lat="43.42853" lon="6.03116">
        <ele>482</ele>
        <time>2017-01-18T13:54:37Z</time>
      </trkpt>
      <trkpt lat="43.42842" lon="6.03117">
        <ele>482.39999389648</ele>
        <time>2017-01-18T13:54:43Z</time>
      </trkpt>
      <trkpt lat="43.42841" lon="6.03117">
        <ele>482.60000610352</ele>
        <time>2017-01-18T13:54:44Z</time>
      </trkpt>
      <trkpt lat="43.42838" lon="6.03119">
        <ele>482.79998779297</ele>
        <time>2017-01-18T13:54:46Z</time>
      </trkpt>
      <trkpt lat="43.42833" lon="6.03125">
        <ele>483</ele>
        <time>2017-01-18T13:54:50Z</time>
      </trkpt>
      <trkpt lat="43.42829" lon="6.0313">
        <ele>483.60000610352</ele>
        <time>2017-01-18T13:54:54Z</time>
      </trkpt>
      <trkpt lat="43.42813" lon="6.03144">
        <ele>484.20001220703</ele>
        <time>2017-01-18T13:55:02Z</time>
      </trkpt>
      <trkpt lat="43.4281" lon="6.03146">
        <ele>484.20001220703</ele>
        <time>2017-01-18T13:55:04Z</time>
      </trkpt>
      <trkpt lat="43.42798" lon="6.03152">
        <ele>485.39999389648</ele>
        <time>2017-01-18T13:55:12Z</time>
      </trkpt>
      <trkpt lat="43.42794" lon="6.03153">
        <ele>485.60000610352</ele>
        <time>2017-01-18T13:55:14Z</time>
      </trkpt>
      <trkpt lat="43.42788" lon="6.03156">
        <ele>486.39999389648</ele>
        <time>2017-01-18T13:55:18Z</time>
      </trkpt>
      <trkpt lat="43.42779" lon="6.03159">
        <ele>487.20001220703</ele>
        <time>2017-01-18T13:55:24Z</time>
      </trkpt>
      <trkpt lat="43.42776" lon="6.03162">
        <ele>487.39999389648</ele>
        <time>2017-01-18T13:55:26Z</time>
      </trkpt>
      <trkpt lat="43.42775" lon="6.03163">
        <ele>487.79998779297</ele>
        <time>2017-01-18T13:55:27Z</time>
      </trkpt>
      <trkpt lat="43.42765" lon="6.03166">
        <ele>488.39999389648</ele>
        <time>2017-01-18T13:55:32Z</time>
      </trkpt>
      <trkpt lat="43.42763" lon="6.03167">
        <ele>488.60000610352</ele>
        <time>2017-01-18T13:55:33Z</time>
      </trkpt>
      <trkpt lat="43.42763" lon="6.03167">
        <ele>488.60000610352</ele>
        <time>2017-01-18T13:55:34Z</time>
      </trkpt>
      <trkpt lat="43.42744" lon="6.03171">
        <ele>489.39999389648</ele>
        <time>2017-01-18T13:55:44Z</time>
      </trkpt>
      <trkpt lat="43.42737" lon="6.0317">
        <ele>489.60000610352</ele>
        <time>2017-01-18T13:55:48Z</time>
      </trkpt>
      <trkpt lat="43.42725" lon="6.03171">
        <ele>489.79998779297</ele>
        <time>2017-01-18T13:55:54Z</time>
      </trkpt>
      <trkpt lat="43.42719" lon="6.03173">
        <ele>490.60000610352</ele>
        <time>2017-01-18T13:55:58Z</time>
      </trkpt>
      <trkpt lat="43.4271" lon="6.03172">
        <ele>491.20001220703</ele>
        <time>2017-01-18T13:56:04Z</time>
      </trkpt>
      <trkpt lat="43.42697" lon="6.03155">
        <ele>491.79998779297</ele>
        <time>2017-01-18T13:56:13Z</time>
      </trkpt>
      <trkpt lat="43.42697" lon="6.03155">
        <ele>491.79998779297</ele>
        <time>2017-01-18T13:56:14Z</time>
      </trkpt>
      <trkpt lat="43.42677" lon="6.03141">
        <ele>492.79998779297</ele>
        <time>2017-01-18T13:56:25Z</time>
      </trkpt>
      <trkpt lat="43.4266" lon="6.03152">
        <ele>493.79998779297</ele>
        <time>2017-01-18T13:56:35Z</time>
      </trkpt>
      <trkpt lat="43.42653" lon="6.03173">
        <ele>494.79998779297</ele>
        <time>2017-01-18T13:56:44Z</time>
      </trkpt>
      <trkpt lat="43.42651" lon="6.03174">
        <ele>494.79998779297</ele>
        <time>2017-01-18T13:56:45Z</time>
      </trkpt>
      <trkpt lat="43.42637" lon="6.03179">
        <ele>495.79998779297</ele>
        <time>2017-01-18T13:56:54Z</time>
      </trkpt>
      <trkpt lat="43.42635" lon="6.03179">
        <ele>496</ele>
        <time>2017-01-18T13:56:55Z</time>
      </trkpt>
      <trkpt lat="43.42619" lon="6.0318">
        <ele>496.79998779297</ele>
        <time>2017-01-18T13:57:04Z</time>
      </trkpt>
      <trkpt lat="43.42617" lon="6.03181">
        <ele>497</ele>
        <time>2017-01-18T13:57:05Z</time>
      </trkpt>
      <trkpt lat="43.42606" lon="6.03184">
        <ele>498</ele>
        <time>2017-01-18T13:57:12Z</time>
      </trkpt>
      <trkpt lat="43.42602" lon="6.03184">
        <ele>498.39999389648</ele>
        <time>2017-01-18T13:57:14Z</time>
      </trkpt>
      <trkpt lat="43.42593" lon="6.03184">
        <ele>499</ele>
        <time>2017-01-18T13:57:19Z</time>
      </trkpt>
      <trkpt lat="43.42584" lon="6.03184">
        <ele>499.39999389648</ele>
        <time>2017-01-18T13:57:24Z</time>
      </trkpt>
      <trkpt lat="43.42572" lon="6.03189">
        <ele>500.20001220703</ele>
        <time>2017-01-18T13:57:31Z</time>
      </trkpt>
      <trkpt lat="43.42568" lon="6.03194">
        <ele>500.79998779297</ele>
        <time>2017-01-18T13:57:34Z</time>
      </trkpt>
      <trkpt lat="43.42561" lon="6.032">
        <ele>501.20001220703</ele>
        <time>2017-01-18T13:57:38Z</time>
      </trkpt>
      <trkpt lat="43.4255" lon="6.03205">
        <ele>501.60000610352</ele>
        <time>2017-01-18T13:57:44Z</time>
      </trkpt>
      <trkpt lat="43.42542" lon="6.03212">
        <ele>502.39999389648</ele>
        <time>2017-01-18T13:57:49Z</time>
      </trkpt>
      <trkpt lat="43.42532" lon="6.0322">
        <ele>503.39999389648</ele>
        <time>2017-01-18T13:57:56Z</time>
      </trkpt>
      <trkpt lat="43.42522" lon="6.0323">
        <ele>504.39999389648</ele>
        <time>2017-01-18T13:58:04Z</time>
      </trkpt>
      <trkpt lat="43.42519" lon="6.03233">
        <ele>504.60000610352</ele>
        <time>2017-01-18T13:58:07Z</time>
      </trkpt>
      <trkpt lat="43.42511" lon="6.03241">
        <ele>505.39999389648</ele>
        <time>2017-01-18T13:58:14Z</time>
      </trkpt>
      <trkpt lat="43.42511" lon="6.03243">
        <ele>505.60000610352</ele>
        <time>2017-01-18T13:58:15Z</time>
      </trkpt>
      <trkpt lat="43.42506" lon="6.0325">
        <ele>506.79998779297</ele>
        <time>2017-01-18T13:58:22Z</time>
      </trkpt>
      <trkpt lat="43.42506" lon="6.0325">
        <ele>506.79998779297</ele>
        <time>2017-01-18T13:58:28Z</time>
      </trkpt>
      <trkpt lat="43.42506" lon="6.03249">
        <ele>507</ele>
        <time>2017-01-18T13:58:34Z</time>
      </trkpt>
      <trkpt lat="43.42506" lon="6.03249">
        <ele>506.79998779297</ele>
        <time>2017-01-18T13:58:47Z</time>
      </trkpt>
      <trkpt lat="43.42506" lon="6.03249">
        <ele>507</ele>
        <time>2017-01-18T13:58:54Z</time>
      </trkpt>
      <trkpt lat="43.42507" lon="6.03249">
        <ele>507</ele>
        <time>2017-01-18T13:58:59Z</time>
      </trkpt>
      <trkpt lat="43.42507" lon="6.0325">
        <ele>506.79998779297</ele>
        <time>2017-01-18T13:59:04Z</time>
      </trkpt>
      <trkpt lat="43.42507" lon="6.0325">
        <ele>507.20001220703</ele>
        <time>2017-01-18T13:59:10Z</time>
      </trkpt>
      <trkpt lat="43.42507" lon="6.0325">
        <ele>507</ele>
        <time>2017-01-18T13:59:14Z</time>
      </trkpt>
      <trkpt lat="43.42507" lon="6.0325">
        <ele>506.60000610352</ele>
        <time>2017-01-18T13:59:17Z</time>
      </trkpt>
      <trkpt lat="43.42507" lon="6.0325">
        <ele>506.20001220703</ele>
        <time>2017-01-18T13:59:24Z</time>
      </trkpt>
      <trkpt lat="43.42507" lon="6.0325">
        <ele>506.20001220703</ele>
        <time>2017-01-18T13:59:27Z</time>
      </trkpt>
      <trkpt lat="43.42507" lon="6.03251">
        <ele>506</ele>
        <time>2017-01-18T13:59:30Z</time>
      </trkpt>
      <trkpt lat="43.42507" lon="6.03251">
        <ele>506</ele>
        <time>2017-01-18T13:59:34Z</time>
      </trkpt>
      <trkpt lat="43.42507" lon="6.0325">
        <ele>506.20001220703</ele>
        <time>2017-01-18T13:59:44Z</time>
      </trkpt>
      <trkpt lat="43.42506" lon="6.03248">
        <ele>506.79998779297</ele>
        <time>2017-01-18T14:00:04Z</time>
      </trkpt>
      <trkpt lat="43.42507" lon="6.03248">
        <ele>506.20001220703</ele>
        <time>2017-01-18T14:00:14Z</time>
      </trkpt>
      <trkpt lat="43.42507" lon="6.03248">
        <ele>506</ele>
        <time>2017-01-18T14:00:16Z</time>
      </trkpt>
      <trkpt lat="43.42506" lon="6.03245">
        <ele>506</ele>
        <time>2017-01-18T14:00:39Z</time>
      </trkpt>
      <trkpt lat="43.42506" lon="6.03245">
        <ele>506</ele>
        <time>2017-01-18T14:00:44Z</time>
      </trkpt>
      <trkpt lat="43.42506" lon="6.03247">
        <ele>506</ele>
        <time>2017-01-18T14:00:54Z</time>
      </trkpt>
      <trkpt lat="43.42505" lon="6.03247">
        <ele>506</ele>
        <time>2017-01-18T14:00:59Z</time>
      </trkpt>
      <trkpt lat="43.42505" lon="6.03247">
        <ele>506</ele>
        <time>2017-01-18T14:01:04Z</time>
      </trkpt>
      <trkpt lat="43.42504" lon="6.03246">
        <ele>506</ele>
        <time>2017-01-18T14:01:14Z</time>
      </trkpt>
      <trkpt lat="43.42503" lon="6.03248">
        <ele>506</ele>
        <time>2017-01-18T14:01:24Z</time>
      </trkpt>
      <trkpt lat="43.42503" lon="6.03248">
        <ele>506</ele>
        <time>2017-01-18T14:01:34Z</time>
      </trkpt>
      <trkpt lat="43.42503" lon="6.03249">
        <ele>506</ele>
        <time>2017-01-18T14:01:44Z</time>
      </trkpt>
      <trkpt lat="43.42503" lon="6.03248">
        <ele>506</ele>
        <time>2017-01-18T14:01:54Z</time>
      </trkpt>
      <trkpt lat="43.42504" lon="6.03249">
        <ele>506</ele>
        <time>2017-01-18T14:02:04Z</time>
      </trkpt>
      <trkpt lat="43.42505" lon="6.0325">
        <ele>506</ele>
        <time>2017-01-18T14:02:12Z</time>
      </trkpt>
      <trkpt lat="43.42506" lon="6.0325">
        <ele>506</ele>
        <time>2017-01-18T14:02:18Z</time>
      </trkpt>
      <trkpt lat="43.42508" lon="6.03249">
        <ele>506</ele>
        <time>2017-01-18T14:02:22Z</time>
      </trkpt>
      <trkpt lat="43.42508" lon="6.03249">
        <ele>506</ele>
        <time>2017-01-18T14:02:24Z</time>
      </trkpt>
      <trkpt lat="43.42508" lon="6.03249">
        <ele>506</ele>
        <time>2017-01-18T14:02:28Z</time>
      </trkpt>
      <trkpt lat="43.42507" lon="6.03248">
        <ele>506</ele>
        <time>2017-01-18T14:02:34Z</time>
      </trkpt>
      <trkpt lat="43.42507" lon="6.03247">
        <ele>506</ele>
        <time>2017-01-18T14:02:44Z</time>
      </trkpt>
      <trkpt lat="43.42507" lon="6.03247">
        <ele>506</ele>
        <time>2017-01-18T14:02:54Z</time>
      </trkpt>
      <trkpt lat="43.42508" lon="6.03247">
        <ele>506</ele>
        <time>2017-01-18T14:03:04Z</time>
      </trkpt>
      <trkpt lat="43.42506" lon="6.0325">
        <ele>506</ele>
        <time>2017-01-18T14:03:14Z</time>
      </trkpt>
      <trkpt lat="43.42505" lon="6.03251">
        <ele>506</ele>
        <time>2017-01-18T14:03:15Z</time>
      </trkpt>
      <trkpt lat="43.42502" lon="6.03254">
        <ele>505.79998779297</ele>
        <time>2017-01-18T14:03:18Z</time>
      </trkpt>
      <trkpt lat="43.42493" lon="6.03264">
        <ele>506.79998779297</ele>
        <time>2017-01-18T14:03:24Z</time>
      </trkpt>
      <trkpt lat="43.42489" lon="6.03271">
        <ele>507.20001220703</ele>
        <time>2017-01-18T14:03:28Z</time>
      </trkpt>
      <trkpt lat="43.42486" lon="6.03281">
        <ele>507.79998779297</ele>
        <time>2017-01-18T14:03:33Z</time>
      </trkpt>
      <trkpt lat="43.42485" lon="6.03283">
        <ele>508</ele>
        <time>2017-01-18T14:03:34Z</time>
      </trkpt>
      <trkpt lat="43.4248" lon="6.03288">
        <ele>508.79998779297</ele>
        <time>2017-01-18T14:03:38Z</time>
      </trkpt>
      <trkpt lat="43.42474" lon="6.03294">
        <ele>509.60000610352</ele>
        <time>2017-01-18T14:03:43Z</time>
      </trkpt>
      <trkpt lat="43.42471" lon="6.03296">
        <ele>510</ele>
        <time>2017-01-18T14:03:46Z</time>
      </trkpt>
      <trkpt lat="43.42467" lon="6.03301">
        <ele>510.79998779297</ele>
        <time>2017-01-18T14:03:51Z</time>
      </trkpt>
      <trkpt lat="43.42465" lon="6.03303">
        <ele>511</ele>
        <time>2017-01-18T14:03:53Z</time>
      </trkpt>
      <trkpt lat="43.42464" lon="6.03305">
        <ele>511.20001220703</ele>
        <time>2017-01-18T14:03:54Z</time>
      </trkpt>
      <trkpt lat="43.42459" lon="6.03308">
        <ele>512</ele>
        <time>2017-01-18T14:03:58Z</time>
      </trkpt>
      <trkpt lat="43.42458" lon="6.03309">
        <ele>512</ele>
        <time>2017-01-18T14:03:59Z</time>
      </trkpt>
      <trkpt lat="43.42455" lon="6.0331">
        <ele>513.20001220703</ele>
        <time>2017-01-18T14:04:03Z</time>
      </trkpt>
      <trkpt lat="43.42452" lon="6.0331">
        <ele>513.59997558594</ele>
        <time>2017-01-18T14:04:04Z</time>
      </trkpt>
      <trkpt lat="43.42448" lon="6.03311">
        <ele>514.40002441406</ele>
        <time>2017-01-18T14:04:08Z</time>
      </trkpt>
      <trkpt lat="43.42445" lon="6.03311">
        <ele>515.40002441406</ele>
        <time>2017-01-18T14:04:11Z</time>
      </trkpt>
      <trkpt lat="43.42442" lon="6.03311">
        <ele>516</ele>
        <time>2017-01-18T14:04:14Z</time>
      </trkpt>
      <trkpt lat="43.42439" lon="6.03311">
        <ele>516.59997558594</ele>
        <time>2017-01-18T14:04:18Z</time>
      </trkpt>
      <trkpt lat="43.42434" lon="6.03313">
        <ele>517.79998779297</ele>
        <time>2017-01-18T14:04:24Z</time>
      </trkpt>
      <trkpt lat="43.4243" lon="6.03313">
        <ele>519</ele>
        <time>2017-01-18T14:04:28Z</time>
      </trkpt>
      <trkpt lat="43.42428" lon="6.03313">
        <ele>519.20001220703</ele>
        <time>2017-01-18T14:04:30Z</time>
      </trkpt>
      <trkpt lat="43.42424" lon="6.03314">
        <ele>519.79998779297</ele>
        <time>2017-01-18T14:04:34Z</time>
      </trkpt>
      <trkpt lat="43.42422" lon="6.03316">
        <ele>520.40002441406</ele>
        <time>2017-01-18T14:04:37Z</time>
      </trkpt>
      <trkpt lat="43.42419" lon="6.03317">
        <ele>521</ele>
        <time>2017-01-18T14:04:41Z</time>
      </trkpt>
      <trkpt lat="43.42418" lon="6.03317">
        <ele>521</ele>
        <time>2017-01-18T14:04:42Z</time>
      </trkpt>
      <trkpt lat="43.42415" lon="6.03317">
        <ele>521.40002441406</ele>
        <time>2017-01-18T14:04:44Z</time>
      </trkpt>
      <trkpt lat="43.42413" lon="6.03317">
        <ele>522</ele>
        <time>2017-01-18T14:04:47Z</time>
      </trkpt>
      <trkpt lat="43.4241" lon="6.03317">
        <ele>522.79998779297</ele>
        <time>2017-01-18T14:04:50Z</time>
      </trkpt>
      <trkpt lat="43.42406" lon="6.03318">
        <ele>523</ele>
        <time>2017-01-18T14:04:54Z</time>
      </trkpt>
      <trkpt lat="43.42405" lon="6.03318">
        <ele>523.20001220703</ele>
        <time>2017-01-18T14:04:55Z</time>
      </trkpt>
      <trkpt lat="43.42398" lon="6.03319">
        <ele>524</ele>
        <time>2017-01-18T14:05:02Z</time>
      </trkpt>
      <trkpt lat="43.42395" lon="6.0332">
        <ele>524.20001220703</ele>
        <time>2017-01-18T14:05:04Z</time>
      </trkpt>
      <trkpt lat="43.42391" lon="6.03321">
        <ele>524.59997558594</ele>
        <time>2017-01-18T14:05:08Z</time>
      </trkpt>
      <trkpt lat="43.4239" lon="6.03322">
        <ele>524.79998779297</ele>
        <time>2017-01-18T14:05:09Z</time>
      </trkpt>
      <trkpt lat="43.42386" lon="6.03325">
        <ele>525</ele>
        <time>2017-01-18T14:05:14Z</time>
      </trkpt>
      <trkpt lat="43.42383" lon="6.03325">
        <ele>525.20001220703</ele>
        <time>2017-01-18T14:05:17Z</time>
      </trkpt>
      <trkpt lat="43.42381" lon="6.03325">
        <ele>525.40002441406</ele>
        <time>2017-01-18T14:05:20Z</time>
      </trkpt>
      <trkpt lat="43.42378" lon="6.03322">
        <ele>525.79998779297</ele>
        <time>2017-01-18T14:05:24Z</time>
      </trkpt>
      <trkpt lat="43.42378" lon="6.03322">
        <ele>526</ele>
        <time>2017-01-18T14:05:27Z</time>
      </trkpt>
      <trkpt lat="43.42378" lon="6.03321">
        <ele>525.79998779297</ele>
        <time>2017-01-18T14:05:34Z</time>
      </trkpt>
      <trkpt lat="43.42377" lon="6.03322">
        <ele>525.59997558594</ele>
        <time>2017-01-18T14:05:36Z</time>
      </trkpt>
      <trkpt lat="43.42378" lon="6.03322">
        <ele>525.59997558594</ele>
        <time>2017-01-18T14:05:48Z</time>
      </trkpt>
      <trkpt lat="43.42378" lon="6.03322">
        <ele>525.59997558594</ele>
        <time>2017-01-18T14:06:00Z</time>
      </trkpt>
      <trkpt lat="43.42378" lon="6.03322">
        <ele>525.79998779297</ele>
        <time>2017-01-18T14:06:11Z</time>
      </trkpt>
      <trkpt lat="43.42377" lon="6.03322">
        <ele>526</ele>
        <time>2017-01-18T14:06:24Z</time>
      </trkpt>
      <trkpt lat="43.42378" lon="6.03322">
        <ele>525.40002441406</ele>
        <time>2017-01-18T14:06:34Z</time>
      </trkpt>
      <trkpt lat="43.42378" lon="6.03322">
        <ele>525.40002441406</ele>
        <time>2017-01-18T14:06:44Z</time>
      </trkpt>
      <trkpt lat="43.42377" lon="6.03322">
        <ele>525.40002441406</ele>
        <time>2017-01-18T14:06:50Z</time>
      </trkpt>
      <trkpt lat="43.42377" lon="6.03322">
        <ele>525.40002441406</ele>
        <time>2017-01-18T14:06:54Z</time>
      </trkpt>
      <trkpt lat="43.42378" lon="6.03322">
        <ele>525.40002441406</ele>
        <time>2017-01-18T14:07:02Z</time>
      </trkpt>
      <trkpt lat="43.42377" lon="6.03322">
        <ele>525.40002441406</ele>
        <time>2017-01-18T14:07:04Z</time>
      </trkpt>
      <trkpt lat="43.42377" lon="6.03323">
        <ele>525.40002441406</ele>
        <time>2017-01-18T14:07:14Z</time>
      </trkpt>
      <trkpt lat="43.42377" lon="6.03323">
        <ele>525.40002441406</ele>
        <time>2017-01-18T14:07:24Z</time>
      </trkpt>
      <trkpt lat="43.42377" lon="6.03323">
        <ele>525.40002441406</ele>
        <time>2017-01-18T14:07:34Z</time>
      </trkpt>
      <trkpt lat="43.42377" lon="6.03323">
        <ele>525.40002441406</ele>
        <time>2017-01-18T14:07:50Z</time>
      </trkpt>
      <trkpt lat="43.42377" lon="6.03323">
        <ele>525.40002441406</ele>
        <time>2017-01-18T14:07:54Z</time>
      </trkpt>
      <trkpt lat="43.42377" lon="6.03323">
        <ele>525.40002441406</ele>
        <time>2017-01-18T14:07:58Z</time>
      </trkpt>
      <trkpt lat="43.42377" lon="6.03322">
        <ele>525.40002441406</ele>
        <time>2017-01-18T14:08:01Z</time>
      </trkpt>
      <trkpt lat="43.42375" lon="6.03318">
        <ele>525.40002441406</ele>
        <time>2017-01-18T14:08:04Z</time>
      </trkpt>
      <trkpt lat="43.42376" lon="6.03308">
        <ele>525.40002441406</ele>
        <time>2017-01-18T14:08:09Z</time>
      </trkpt>
      <trkpt lat="43.42377" lon="6.03295">
        <ele>525</ele>
        <time>2017-01-18T14:08:14Z</time>
      </trkpt>
      <trkpt lat="43.42374" lon="6.0328">
        <ele>525</ele>
        <time>2017-01-18T14:08:21Z</time>
      </trkpt>
      <trkpt lat="43.42372" lon="6.0327">
        <ele>525</ele>
        <time>2017-01-18T14:08:24Z</time>
      </trkpt>
      <trkpt lat="43.42368" lon="6.03238">
        <ele>524.79998779297</ele>
        <time>2017-01-18T14:08:33Z</time>
      </trkpt>
      <trkpt lat="43.42368" lon="6.03235">
        <ele>524.79998779297</ele>
        <time>2017-01-18T14:08:34Z</time>
      </trkpt>
      <trkpt lat="43.42371" lon="6.03202">
        <ele>525.59997558594</ele>
        <time>2017-01-18T14:08:44Z</time>
      </trkpt>
      <trkpt lat="43.42371" lon="6.03183">
        <ele>525.79998779297</ele>
        <time>2017-01-18T14:08:50Z</time>
      </trkpt>
      <trkpt lat="43.42371" lon="6.03169">
        <ele>526</ele>
        <time>2017-01-18T14:08:54Z</time>
      </trkpt>
      <trkpt lat="43.42371" lon="6.03162">
        <ele>526.40002441406</ele>
        <time>2017-01-18T14:08:56Z</time>
      </trkpt>
      <trkpt lat="43.42374" lon="6.03121">
        <ele>527.40002441406</ele>
        <time>2017-01-18T14:09:09Z</time>
      </trkpt>
      <trkpt lat="43.42374" lon="6.03108">
        <ele>528.59997558594</ele>
        <time>2017-01-18T14:09:13Z</time>
      </trkpt>
      <trkpt lat="43.42378" lon="6.03091">
        <ele>529.40002441406</ele>
        <time>2017-01-18T14:09:19Z</time>
      </trkpt>
      <trkpt lat="43.4238" lon="6.03079">
        <ele>530.20001220703</ele>
        <time>2017-01-18T14:09:24Z</time>
      </trkpt>
      <trkpt lat="43.42382" lon="6.0306">
        <ele>531.59997558594</ele>
        <time>2017-01-18T14:09:32Z</time>
      </trkpt>
      <trkpt lat="43.42383" lon="6.03046">
        <ele>533</ele>
        <time>2017-01-18T14:09:38Z</time>
      </trkpt>
      <trkpt lat="43.42384" lon="6.03033">
        <ele>533.79998779297</ele>
        <time>2017-01-18T14:09:44Z</time>
      </trkpt>
      <trkpt lat="43.42384" lon="6.03031">
        <ele>534</ele>
        <time>2017-01-18T14:09:45Z</time>
      </trkpt>
      <trkpt lat="43.42383" lon="6.03024">
        <ele>535</ele>
        <time>2017-01-18T14:09:49Z</time>
      </trkpt>
      <trkpt lat="43.42382" lon="6.03014">
        <ele>535.79998779297</ele>
        <time>2017-01-18T14:09:54Z</time>
      </trkpt>
      <trkpt lat="43.4238" lon="6.03004">
        <ele>536.20001220703</ele>
        <time>2017-01-18T14:09:59Z</time>
      </trkpt>
      <trkpt lat="43.42377" lon="6.02997">
        <ele>537.20001220703</ele>
        <time>2017-01-18T14:10:03Z</time>
      </trkpt>
      <trkpt lat="43.42377" lon="6.02995">
        <ele>537.40002441406</ele>
        <time>2017-01-18T14:10:04Z</time>
      </trkpt>
      <trkpt lat="43.42376" lon="6.02983">
        <ele>538.40002441406</ele>
        <time>2017-01-18T14:10:11Z</time>
      </trkpt>
      <trkpt lat="43.42376" lon="6.02978">
        <ele>538.59997558594</ele>
        <time>2017-01-18T14:10:14Z</time>
      </trkpt>
      <trkpt lat="43.42376" lon="6.02968">
        <ele>539.59997558594</ele>
        <time>2017-01-18T14:10:19Z</time>
      </trkpt>
      <trkpt lat="43.42376" lon="6.02957">
        <ele>540.20001220703</ele>
        <time>2017-01-18T14:10:24Z</time>
      </trkpt>
      <trkpt lat="43.42379" lon="6.02939">
        <ele>540.59997558594</ele>
        <time>2017-01-18T14:10:32Z</time>
      </trkpt>
      <trkpt lat="43.42385" lon="6.02911">
        <ele>541.20001220703</ele>
        <time>2017-01-18T14:10:43Z</time>
      </trkpt>
      <trkpt lat="43.42386" lon="6.02908">
        <ele>541</ele>
        <time>2017-01-18T14:10:44Z</time>
      </trkpt>
      <trkpt lat="43.42396" lon="6.02881">
        <ele>540.79998779297</ele>
        <time>2017-01-18T14:10:53Z</time>
      </trkpt>
      <trkpt lat="43.42398" lon="6.02879">
        <ele>540.79998779297</ele>
        <time>2017-01-18T14:10:54Z</time>
      </trkpt>
      <trkpt lat="43.42402" lon="6.02868">
        <ele>541</ele>
        <time>2017-01-18T14:10:57Z</time>
      </trkpt>
      <trkpt lat="43.4241" lon="6.0285">
        <ele>540.40002441406</ele>
        <time>2017-01-18T14:11:01Z</time>
      </trkpt>
      <trkpt lat="43.42414" lon="6.02839">
        <ele>540</ele>
        <time>2017-01-18T14:11:03Z</time>
      </trkpt>
      <trkpt lat="43.42416" lon="6.02834">
        <ele>539.59997558594</ele>
        <time>2017-01-18T14:11:04Z</time>
      </trkpt>
      <trkpt lat="43.42424" lon="6.02817">
        <ele>538.79998779297</ele>
        <time>2017-01-18T14:11:07Z</time>
      </trkpt>
      <trkpt lat="43.42428" lon="6.02806">
        <ele>538.40002441406</ele>
        <time>2017-01-18T14:11:09Z</time>
      </trkpt>
      <trkpt lat="43.42432" lon="6.02794">
        <ele>538</ele>
        <time>2017-01-18T14:11:11Z</time>
      </trkpt>
      <trkpt lat="43.42431" lon="6.02768">
        <ele>537.20001220703</ele>
        <time>2017-01-18T14:11:15Z</time>
      </trkpt>
      <trkpt lat="43.42432" lon="6.02762">
        <ele>537.20001220703</ele>
        <time>2017-01-18T14:11:16Z</time>
      </trkpt>
      <trkpt lat="43.42434" lon="6.02756">
        <ele>537</ele>
        <time>2017-01-18T14:11:17Z</time>
      </trkpt>
      <trkpt lat="43.4244" lon="6.02745">
        <ele>536.59997558594</ele>
        <time>2017-01-18T14:11:19Z</time>
      </trkpt>
      <trkpt lat="43.42442" lon="6.02732">
        <ele>536</ele>
        <time>2017-01-18T14:11:21Z</time>
      </trkpt>
      <trkpt lat="43.42441" lon="6.02711">
        <ele>535.20001220703</ele>
        <time>2017-01-18T14:11:24Z</time>
      </trkpt>
      <trkpt lat="43.4244" lon="6.02698">
        <ele>534.59997558594</ele>
        <time>2017-01-18T14:11:26Z</time>
      </trkpt>
      <trkpt lat="43.42442" lon="6.02678">
        <ele>534</ele>
        <time>2017-01-18T14:11:29Z</time>
      </trkpt>
      <trkpt lat="43.4244" lon="6.02647">
        <ele>533.20001220703</ele>
        <time>2017-01-18T14:11:34Z</time>
      </trkpt>
      <trkpt lat="43.42435" lon="6.02629">
        <ele>533</ele>
        <time>2017-01-18T14:11:37Z</time>
      </trkpt>
      <trkpt lat="43.4243" lon="6.02621">
        <ele>533</ele>
        <time>2017-01-18T14:11:39Z</time>
      </trkpt>
      <trkpt lat="43.4242" lon="6.02611">
        <ele>532.79998779297</ele>
        <time>2017-01-18T14:11:42Z</time>
      </trkpt>
      <trkpt lat="43.42419" lon="6.02601">
        <ele>532.59997558594</ele>
        <time>2017-01-18T14:11:44Z</time>
      </trkpt>
      <trkpt lat="43.42419" lon="6.02593">
        <ele>532.20001220703</ele>
        <time>2017-01-18T14:11:46Z</time>
      </trkpt>
      <trkpt lat="43.42419" lon="6.0259">
        <ele>532.20001220703</ele>
        <time>2017-01-18T14:11:47Z</time>
      </trkpt>
      <trkpt lat="43.42419" lon="6.02586">
        <ele>532</ele>
        <time>2017-01-18T14:11:48Z</time>
      </trkpt>
      <trkpt lat="43.42419" lon="6.02583">
        <ele>532</ele>
        <time>2017-01-18T14:11:49Z</time>
      </trkpt>
      <trkpt lat="43.42419" lon="6.02566">
        <ele>532.59997558594</ele>
        <time>2017-01-18T14:11:54Z</time>
      </trkpt>
      <trkpt lat="43.4242" lon="6.0256">
        <ele>533</ele>
        <time>2017-01-18T14:11:56Z</time>
      </trkpt>
      <trkpt lat="43.42421" lon="6.02553">
        <ele>533.59997558594</ele>
        <time>2017-01-18T14:11:58Z</time>
      </trkpt>
      <trkpt lat="43.42422" lon="6.02543">
        <ele>534</ele>
        <time>2017-01-18T14:12:01Z</time>
      </trkpt>
      <trkpt lat="43.42425" lon="6.02532">
        <ele>534.40002441406</ele>
        <time>2017-01-18T14:12:04Z</time>
      </trkpt>
      <trkpt lat="43.42428" lon="6.02522">
        <ele>535.20001220703</ele>
        <time>2017-01-18T14:12:07Z</time>
      </trkpt>
      <trkpt lat="43.4243" lon="6.02497">
        <ele>536</ele>
        <time>2017-01-18T14:12:14Z</time>
      </trkpt>
      <trkpt lat="43.42436" lon="6.02459">
        <ele>536.40002441406</ele>
        <time>2017-01-18T14:12:24Z</time>
      </trkpt>
      <trkpt lat="43.42447" lon="6.02421">
        <ele>536.20001220703</ele>
        <time>2017-01-18T14:12:34Z</time>
      </trkpt>
      <trkpt lat="43.42464" lon="6.02381">
        <ele>536.20001220703</ele>
        <time>2017-01-18T14:12:44Z</time>
      </trkpt>
      <trkpt lat="43.42467" lon="6.02345">
        <ele>537.20001220703</ele>
        <time>2017-01-18T14:12:54Z</time>
      </trkpt>
      <trkpt lat="43.42467" lon="6.02343">
        <ele>537.40002441406</ele>
        <time>2017-01-18T14:12:55Z</time>
      </trkpt>
      <trkpt lat="43.42466" lon="6.02329">
        <ele>538.79998779297</ele>
        <time>2017-01-18T14:13:00Z</time>
      </trkpt>
      <trkpt lat="43.42467" lon="6.0232">
        <ele>539.40002441406</ele>
        <time>2017-01-18T14:13:04Z</time>
      </trkpt>
      <trkpt lat="43.42468" lon="6.02315">
        <ele>539.79998779297</ele>
        <time>2017-01-18T14:13:06Z</time>
      </trkpt>
      <trkpt lat="43.42471" lon="6.02307">
        <ele>541</ele>
        <time>2017-01-18T14:13:10Z</time>
      </trkpt>
      <trkpt lat="43.42472" lon="6.02293">
        <ele>542.20001220703</ele>
        <time>2017-01-18T14:13:16Z</time>
      </trkpt>
      <trkpt lat="43.42473" lon="6.02284">
        <ele>543.20001220703</ele>
        <time>2017-01-18T14:13:20Z</time>
      </trkpt>
      <trkpt lat="43.42473" lon="6.02277">
        <ele>543.40002441406</ele>
        <time>2017-01-18T14:13:24Z</time>
      </trkpt>
      <trkpt lat="43.42474" lon="6.02257">
        <ele>544.40002441406</ele>
        <time>2017-01-18T14:13:31Z</time>
      </trkpt>
      <trkpt lat="43.42474" lon="6.02251">
        <ele>544.59997558594</ele>
        <time>2017-01-18T14:13:34Z</time>
      </trkpt>
      <trkpt lat="43.42476" lon="6.02224">
        <ele>545</ele>
        <time>2017-01-18T14:13:44Z</time>
      </trkpt>
      <trkpt lat="43.42476" lon="6.02197">
        <ele>545.20001220703</ele>
        <time>2017-01-18T14:13:54Z</time>
      </trkpt>
      <trkpt lat="43.42476" lon="6.02191">
        <ele>545.40002441406</ele>
        <time>2017-01-18T14:13:57Z</time>
      </trkpt>
      <trkpt lat="43.42476" lon="6.02169">
        <ele>545.79998779297</ele>
        <time>2017-01-18T14:14:03Z</time>
      </trkpt>
      <trkpt lat="43.42476" lon="6.02165">
        <ele>546</ele>
        <time>2017-01-18T14:14:04Z</time>
      </trkpt>
      <trkpt lat="43.42478" lon="6.02135">
        <ele>546.20001220703</ele>
        <time>2017-01-18T14:14:14Z</time>
      </trkpt>
      <trkpt lat="43.42479" lon="6.02125">
        <ele>546.40002441406</ele>
        <time>2017-01-18T14:14:18Z</time>
      </trkpt>
      <trkpt lat="43.42479" lon="6.02114">
        <ele>547.20001220703</ele>
        <time>2017-01-18T14:14:24Z</time>
      </trkpt>
      <trkpt lat="43.42479" lon="6.02107">
        <ele>547.40002441406</ele>
        <time>2017-01-18T14:14:26Z</time>
      </trkpt>
      <trkpt lat="43.42479" lon="6.02093">
        <ele>548.79998779297</ele>
        <time>2017-01-18T14:14:33Z</time>
      </trkpt>
      <trkpt lat="43.42479" lon="6.02091">
        <ele>549</ele>
        <time>2017-01-18T14:14:34Z</time>
      </trkpt>
      <trkpt lat="43.42479" lon="6.02087">
        <ele>549.79998779297</ele>
        <time>2017-01-18T14:14:37Z</time>
      </trkpt>
      <trkpt lat="43.4248" lon="6.02075">
        <ele>550.79998779297</ele>
        <time>2017-01-18T14:14:43Z</time>
      </trkpt>
      <trkpt lat="43.4248" lon="6.02073">
        <ele>551</ele>
        <time>2017-01-18T14:14:44Z</time>
      </trkpt>
      <trkpt lat="43.42481" lon="6.02059">
        <ele>552.20001220703</ele>
        <time>2017-01-18T14:14:51Z</time>
      </trkpt>
      <trkpt lat="43.42481" lon="6.02055">
        <ele>552.79998779297</ele>
        <time>2017-01-18T14:14:54Z</time>
      </trkpt>
      <trkpt lat="43.42482" lon="6.02047">
        <ele>553.20001220703</ele>
        <time>2017-01-18T14:14:58Z</time>
      </trkpt>
      <trkpt lat="43.42481" lon="6.02035">
        <ele>554.20001220703</ele>
        <time>2017-01-18T14:15:04Z</time>
      </trkpt>
      <trkpt lat="43.4248" lon="6.02033">
        <ele>554.40002441406</ele>
        <time>2017-01-18T14:15:05Z</time>
      </trkpt>
      <trkpt lat="43.4248" lon="6.02016">
        <ele>554.79998779297</ele>
        <time>2017-01-18T14:15:14Z</time>
      </trkpt>
      <trkpt lat="43.42482" lon="6.02009">
        <ele>555.40002441406</ele>
        <time>2017-01-18T14:15:18Z</time>
      </trkpt>
      <trkpt lat="43.42485" lon="6.02003">
        <ele>556</ele>
        <time>2017-01-18T14:15:23Z</time>
      </trkpt>
      <trkpt lat="43.42485" lon="6.02002">
        <ele>556.20001220703</ele>
        <time>2017-01-18T14:15:24Z</time>
      </trkpt>
      <trkpt lat="43.42485" lon="6.02003">
        <ele>556.40002441406</ele>
        <time>2017-01-18T14:15:32Z</time>
      </trkpt>
      <trkpt lat="43.42485" lon="6.02003">
        <ele>556.40002441406</ele>
        <time>2017-01-18T14:15:47Z</time>
      </trkpt>
      <trkpt lat="43.42485" lon="6.02003">
        <ele>555.79998779297</ele>
        <time>2017-01-18T14:16:52Z</time>
      </trkpt>
      <trkpt lat="43.42485" lon="6.02003">
        <ele>555.79998779297</ele>
        <time>2017-01-18T14:16:59Z</time>
      </trkpt>
      <trkpt lat="43.42486" lon="6.02002">
        <ele>555.79998779297</ele>
        <time>2017-01-18T14:17:04Z</time>
      </trkpt>
      <trkpt lat="43.42487" lon="6.02002">
        <ele>555.79998779297</ele>
        <time>2017-01-18T14:17:14Z</time>
      </trkpt>
      <trkpt lat="43.42487" lon="6.02002">
        <ele>555.79998779297</ele>
        <time>2017-01-18T14:17:24Z</time>
      </trkpt>
      <trkpt lat="43.42487" lon="6.02002">
        <ele>555.79998779297</ele>
        <time>2017-01-18T14:17:53Z</time>
      </trkpt>
      <trkpt lat="43.42487" lon="6.02002">
        <ele>555.79998779297</ele>
        <time>2017-01-18T14:18:24Z</time>
      </trkpt>
      <trkpt lat="43.42487" lon="6.02001">
        <ele>555.79998779297</ele>
        <time>2017-01-18T14:18:44Z</time>
      </trkpt>
      <trkpt lat="43.42487" lon="6.02001">
        <ele>555.79998779297</ele>
        <time>2017-01-18T14:18:54Z</time>
      </trkpt>
      <trkpt lat="43.42487" lon="6.02001">
        <ele>555.79998779297</ele>
        <time>2017-01-18T14:19:04Z</time>
      </trkpt>
      <trkpt lat="43.42487" lon="6.02001">
        <ele>555.79998779297</ele>
        <time>2017-01-18T14:19:34Z</time>
      </trkpt>
      <trkpt lat="43.42487" lon="6.02001">
        <ele>555.79998779297</ele>
        <time>2017-01-18T14:19:44Z</time>
      </trkpt>
      <trkpt lat="43.42487" lon="6.02001">
        <ele>555.79998779297</ele>
        <time>2017-01-18T14:19:49Z</time>
      </trkpt>
      <trkpt lat="43.42487" lon="6.02001">
        <ele>555.79998779297</ele>
        <time>2017-01-18T14:19:54Z</time>
      </trkpt>
      <trkpt lat="43.42489" lon="6.02001">
        <ele>555.79998779297</ele>
        <time>2017-01-18T14:20:03Z</time>
      </trkpt>
      <trkpt lat="43.4249" lon="6.02001">
        <ele>555.79998779297</ele>
        <time>2017-01-18T14:20:04Z</time>
      </trkpt>
      <trkpt lat="43.42492" lon="6.02">
        <ele>556.40002441406</ele>
        <time>2017-01-18T14:20:05Z</time>
      </trkpt>
      <trkpt lat="43.42497" lon="6.02">
        <ele>556.59997558594</ele>
        <time>2017-01-18T14:20:08Z</time>
      </trkpt>
      <trkpt lat="43.42504" lon="6.02002">
        <ele>556.79998779297</ele>
        <time>2017-01-18T14:20:11Z</time>
      </trkpt>
      <trkpt lat="43.42512" lon="6.02003">
        <ele>556.79998779297</ele>
        <time>2017-01-18T14:20:14Z</time>
      </trkpt>
      <trkpt lat="43.42516" lon="6.02003">
        <ele>556.79998779297</ele>
        <time>2017-01-18T14:20:18Z</time>
      </trkpt>
      <trkpt lat="43.42516" lon="6.02002">
        <ele>556.79998779297</ele>
        <time>2017-01-18T14:20:23Z</time>
      </trkpt>
      <trkpt lat="43.42516" lon="6.02002">
        <ele>556.79998779297</ele>
        <time>2017-01-18T14:20:24Z</time>
      </trkpt>
      <trkpt lat="43.42517" lon="6.02002">
        <ele>557.20001220703</ele>
        <time>2017-01-18T14:20:29Z</time>
      </trkpt>
      <trkpt lat="43.42521" lon="6.02004">
        <ele>557</ele>
        <time>2017-01-18T14:20:33Z</time>
      </trkpt>
      <trkpt lat="43.42522" lon="6.02005">
        <ele>557</ele>
        <time>2017-01-18T14:20:34Z</time>
      </trkpt>
      <trkpt lat="43.42566" lon="6.02011">
        <ele>555.20001220703</ele>
        <time>2017-01-18T14:20:44Z</time>
      </trkpt>
      <trkpt lat="43.42577" lon="6.02013">
        <ele>553.59997558594</ele>
        <time>2017-01-18T14:20:46Z</time>
      </trkpt>
      <trkpt lat="43.42587" lon="6.02015">
        <ele>552</ele>
        <time>2017-01-18T14:20:48Z</time>
      </trkpt>
      <trkpt lat="43.42598" lon="6.02017">
        <ele>550</ele>
        <time>2017-01-18T14:20:50Z</time>
      </trkpt>
      <trkpt lat="43.42608" lon="6.02018">
        <ele>548</ele>
        <time>2017-01-18T14:20:52Z</time>
      </trkpt>
      <trkpt lat="43.42618" lon="6.02019">
        <ele>546.20001220703</ele>
        <time>2017-01-18T14:20:54Z</time>
      </trkpt>
      <trkpt lat="43.42632" lon="6.02022">
        <ele>544.79998779297</ele>
        <time>2017-01-18T14:20:57Z</time>
      </trkpt>
      <trkpt lat="43.42636" lon="6.02023">
        <ele>543.59997558594</ele>
        <time>2017-01-18T14:20:59Z</time>
      </trkpt>
      <trkpt lat="43.42644" lon="6.02025">
        <ele>542.59997558594</ele>
        <time>2017-01-18T14:21:01Z</time>
      </trkpt>
      <trkpt lat="43.42649" lon="6.02025">
        <ele>541.20001220703</ele>
        <time>2017-01-18T14:21:03Z</time>
      </trkpt>
      <trkpt lat="43.42657" lon="6.02026">
        <ele>540.40002441406</ele>
        <time>2017-01-18T14:21:04Z</time>
      </trkpt>
      <trkpt lat="43.42661" lon="6.02027">
        <ele>540</ele>
        <time>2017-01-18T14:21:05Z</time>
      </trkpt>
      <trkpt lat="43.42673" lon="6.02028">
        <ele>538.79998779297</ele>
        <time>2017-01-18T14:21:07Z</time>
      </trkpt>
      <trkpt lat="43.42685" lon="6.0203">
        <ele>536.40002441406</ele>
        <time>2017-01-18T14:21:09Z</time>
      </trkpt>
      <trkpt lat="43.42685" lon="6.0203">
        <ele>535.20001220703</ele>
        <time>2017-01-18T14:21:10Z</time>
      </trkpt>
      <trkpt lat="43.42691" lon="6.02031">
        <ele>534.20001220703</ele>
        <time>2017-01-18T14:21:11Z</time>
      </trkpt>
      <trkpt lat="43.4271" lon="6.02034">
        <ele>532.79998779297</ele>
        <time>2017-01-18T14:21:13Z</time>
      </trkpt>
      <trkpt lat="43.42717" lon="6.02035">
        <ele>532.20001220703</ele>
        <time>2017-01-18T14:21:14Z</time>
      </trkpt>
      <trkpt lat="43.42724" lon="6.02036">
        <ele>531.40002441406</ele>
        <time>2017-01-18T14:21:15Z</time>
      </trkpt>
      <trkpt lat="43.42738" lon="6.02038">
        <ele>529.40002441406</ele>
        <time>2017-01-18T14:21:17Z</time>
      </trkpt>
      <trkpt lat="43.42742" lon="6.02039">
        <ele>528.40002441406</ele>
        <time>2017-01-18T14:21:18Z</time>
      </trkpt>
      <trkpt lat="43.42743" lon="6.0204">
        <ele>527.59997558594</ele>
        <time>2017-01-18T14:21:19Z</time>
      </trkpt>
      <trkpt lat="43.42743" lon="6.02042">
        <ele>527.20001220703</ele>
        <time>2017-01-18T14:21:20Z</time>
      </trkpt>
      <trkpt lat="43.42742" lon="6.02053">
        <ele>527</ele>
        <time>2017-01-18T14:21:23Z</time>
      </trkpt>
      <trkpt lat="43.42742" lon="6.02057">
        <ele>527</ele>
        <time>2017-01-18T14:21:24Z</time>
      </trkpt>
      <trkpt lat="43.42739" lon="6.02069">
        <ele>527.20001220703</ele>
        <time>2017-01-18T14:21:27Z</time>
      </trkpt>
      <trkpt lat="43.42737" lon="6.02085">
        <ele>527.20001220703</ele>
        <time>2017-01-18T14:21:30Z</time>
      </trkpt>
      <trkpt lat="43.42735" lon="6.02097">
        <ele>527.20001220703</ele>
        <time>2017-01-18T14:21:32Z</time>
      </trkpt>
      <trkpt lat="43.42735" lon="6.02108">
        <ele>527.20001220703</ele>
        <time>2017-01-18T14:21:34Z</time>
      </trkpt>
      <trkpt lat="43.42727" lon="6.02132">
        <ele>526.20001220703</ele>
        <time>2017-01-18T14:21:38Z</time>
      </trkpt>
      <trkpt lat="43.42724" lon="6.02138">
        <ele>526.20001220703</ele>
        <time>2017-01-18T14:21:39Z</time>
      </trkpt>
      <trkpt lat="43.42719" lon="6.02149">
        <ele>526</ele>
        <time>2017-01-18T14:21:41Z</time>
      </trkpt>
      <trkpt lat="43.4272" lon="6.02161">
        <ele>525.59997558594</ele>
        <time>2017-01-18T14:21:43Z</time>
      </trkpt>
      <trkpt lat="43.42722" lon="6.02167">
        <ele>525.40002441406</ele>
        <time>2017-01-18T14:21:44Z</time>
      </trkpt>
      <trkpt lat="43.42724" lon="6.02172">
        <ele>525</ele>
        <time>2017-01-18T14:21:45Z</time>
      </trkpt>
      <trkpt lat="43.42731" lon="6.02179">
        <ele>524.20001220703</ele>
        <time>2017-01-18T14:21:47Z</time>
      </trkpt>
      <trkpt lat="43.42735" lon="6.02181">
        <ele>524</ele>
        <time>2017-01-18T14:21:48Z</time>
      </trkpt>
      <trkpt lat="43.42748" lon="6.02187">
        <ele>523.20001220703</ele>
        <time>2017-01-18T14:21:51Z</time>
      </trkpt>
      <trkpt lat="43.42752" lon="6.02189">
        <ele>522.79998779297</ele>
        <time>2017-01-18T14:21:52Z</time>
      </trkpt>
      <trkpt lat="43.42764" lon="6.022">
        <ele>521.59997558594</ele>
        <time>2017-01-18T14:21:55Z</time>
      </trkpt>
      <trkpt lat="43.42769" lon="6.02209">
        <ele>520.40002441406</ele>
        <time>2017-01-18T14:21:57Z</time>
      </trkpt>
      <trkpt lat="43.42773" lon="6.02219">
        <ele>518.79998779297</ele>
        <time>2017-01-18T14:21:59Z</time>
      </trkpt>
      <trkpt lat="43.4278" lon="6.02237">
        <ele>517.59997558594</ele>
        <time>2017-01-18T14:22:02Z</time>
      </trkpt>
      <trkpt lat="43.42786" lon="6.02247">
        <ele>516</ele>
        <time>2017-01-18T14:22:04Z</time>
      </trkpt>
      <trkpt lat="43.42793" lon="6.02256">
        <ele>515</ele>
        <time>2017-01-18T14:22:06Z</time>
      </trkpt>
      <trkpt lat="43.42796" lon="6.02264">
        <ele>514.20001220703</ele>
        <time>2017-01-18T14:22:08Z</time>
      </trkpt>
      <trkpt lat="43.42791" lon="6.02272">
        <ele>513.79998779297</ele>
        <time>2017-01-18T14:22:10Z</time>
      </trkpt>
      <trkpt lat="43.42788" lon="6.02278">
        <ele>513.59997558594</ele>
        <time>2017-01-18T14:22:11Z</time>
      </trkpt>
      <trkpt lat="43.42788" lon="6.02288">
        <ele>513</ele>
        <time>2017-01-18T14:22:13Z</time>
      </trkpt>
      <trkpt lat="43.42791" lon="6.02291">
        <ele>513</ele>
        <time>2017-01-18T14:22:14Z</time>
      </trkpt>
      <trkpt lat="43.42794" lon="6.02292">
        <ele>512.59997558594</ele>
        <time>2017-01-18T14:22:15Z</time>
      </trkpt>
      <trkpt lat="43.42809" lon="6.02298">
        <ele>511.60000610352</ele>
        <time>2017-01-18T14:22:19Z</time>
      </trkpt>
      <trkpt lat="43.42805" lon="6.02318">
        <ele>510.79998779297</ele>
        <time>2017-01-18T14:22:24Z</time>
      </trkpt>
      <trkpt lat="43.42801" lon="6.02328">
        <ele>510.39999389648</ele>
        <time>2017-01-18T14:22:26Z</time>
      </trkpt>
      <trkpt lat="43.42798" lon="6.02333">
        <ele>510.20001220703</ele>
        <time>2017-01-18T14:22:27Z</time>
      </trkpt>
      <trkpt lat="43.42792" lon="6.02343">
        <ele>509</ele>
        <time>2017-01-18T14:22:30Z</time>
      </trkpt>
      <trkpt lat="43.42788" lon="6.02353">
        <ele>508.39999389648</ele>
        <time>2017-01-18T14:22:31Z</time>
      </trkpt>
      <trkpt lat="43.42788" lon="6.02358">
        <ele>507.79998779297</ele>
        <time>2017-01-18T14:22:32Z</time>
      </trkpt>
      <trkpt lat="43.42789" lon="6.02367">
        <ele>507.79998779297</ele>
        <time>2017-01-18T14:22:34Z</time>
      </trkpt>
      <trkpt lat="43.42794" lon="6.02382">
        <ele>507.39999389648</ele>
        <time>2017-01-18T14:22:37Z</time>
      </trkpt>
      <trkpt lat="43.42798" lon="6.02393">
        <ele>506.60000610352</ele>
        <time>2017-01-18T14:22:39Z</time>
      </trkpt>
      <trkpt lat="43.428" lon="6.02399">
        <ele>506</ele>
        <time>2017-01-18T14:22:40Z</time>
      </trkpt>
      <trkpt lat="43.42804" lon="6.02411">
        <ele>504.39999389648</ele>
        <time>2017-01-18T14:22:42Z</time>
      </trkpt>
      <trkpt lat="43.42801" lon="6.02435">
        <ele>502.39999389648</ele>
        <time>2017-01-18T14:22:46Z</time>
      </trkpt>
      <trkpt lat="43.42801" lon="6.02442">
        <ele>501.79998779297</ele>
        <time>2017-01-18T14:22:47Z</time>
      </trkpt>
      <trkpt lat="43.42802" lon="6.02448">
        <ele>501.39999389648</ele>
        <time>2017-01-18T14:22:48Z</time>
      </trkpt>
      <trkpt lat="43.42805" lon="6.02463">
        <ele>500.20001220703</ele>
        <time>2017-01-18T14:22:51Z</time>
      </trkpt>
      <trkpt lat="43.42804" lon="6.02474">
        <ele>499.79998779297</ele>
        <time>2017-01-18T14:22:53Z</time>
      </trkpt>
      <trkpt lat="43.42801" lon="6.02491">
        <ele>499.20001220703</ele>
        <time>2017-01-18T14:22:56Z</time>
      </trkpt>
      <trkpt lat="43.42796" lon="6.02507">
        <ele>498.20001220703</ele>
        <time>2017-01-18T14:22:59Z</time>
      </trkpt>
      <trkpt lat="43.42797" lon="6.02512">
        <ele>497.79998779297</ele>
        <time>2017-01-18T14:23:00Z</time>
      </trkpt>
      <trkpt lat="43.428" lon="6.02516">
        <ele>497.39999389648</ele>
        <time>2017-01-18T14:23:01Z</time>
      </trkpt>
      <trkpt lat="43.42809" lon="6.02521">
        <ele>496.60000610352</ele>
        <time>2017-01-18T14:23:03Z</time>
      </trkpt>
      <trkpt lat="43.42813" lon="6.02521">
        <ele>496.39999389648</ele>
        <time>2017-01-18T14:23:04Z</time>
      </trkpt>
      <trkpt lat="43.42828" lon="6.02519">
        <ele>496.20001220703</ele>
        <time>2017-01-18T14:23:07Z</time>
      </trkpt>
      <trkpt lat="43.42835" lon="6.02523">
        <ele>495.79998779297</ele>
        <time>2017-01-18T14:23:09Z</time>
      </trkpt>
      <trkpt lat="43.42838" lon="6.02527">
        <ele>495.60000610352</ele>
        <time>2017-01-18T14:23:10Z</time>
      </trkpt>
      <trkpt lat="43.42844" lon="6.02536">
        <ele>495</ele>
        <time>2017-01-18T14:23:12Z</time>
      </trkpt>
      <trkpt lat="43.42847" lon="6.02541">
        <ele>494.60000610352</ele>
        <time>2017-01-18T14:23:13Z</time>
      </trkpt>
      <trkpt lat="43.4285" lon="6.02545">
        <ele>494.20001220703</ele>
        <time>2017-01-18T14:23:14Z</time>
      </trkpt>
      <trkpt lat="43.42863" lon="6.02556">
        <ele>493.39999389648</ele>
        <time>2017-01-18T14:23:18Z</time>
      </trkpt>
      <trkpt lat="43.42868" lon="6.02565">
        <ele>492.79998779297</ele>
        <time>2017-01-18T14:23:20Z</time>
      </trkpt>
      <trkpt lat="43.42875" lon="6.02574">
        <ele>492.20001220703</ele>
        <time>2017-01-18T14:23:22Z</time>
      </trkpt>
      <trkpt lat="43.42878" lon="6.02579">
        <ele>491.79998779297</ele>
        <time>2017-01-18T14:23:23Z</time>
      </trkpt>
      <trkpt lat="43.42882" lon="6.02584">
        <ele>491.39999389648</ele>
        <time>2017-01-18T14:23:24Z</time>
      </trkpt>
      <trkpt lat="43.42888" lon="6.02594">
        <ele>490.79998779297</ele>
        <time>2017-01-18T14:23:26Z</time>
      </trkpt>
      <trkpt lat="43.42892" lon="6.0261">
        <ele>489.60000610352</ele>
        <time>2017-01-18T14:23:29Z</time>
      </trkpt>
      <trkpt lat="43.42892" lon="6.02617">
        <ele>489.20001220703</ele>
        <time>2017-01-18T14:23:30Z</time>
      </trkpt>
      <trkpt lat="43.42899" lon="6.02633">
        <ele>488.20001220703</ele>
        <time>2017-01-18T14:23:33Z</time>
      </trkpt>
      <trkpt lat="43.429" lon="6.02638">
        <ele>487.39999389648</ele>
        <time>2017-01-18T14:23:34Z</time>
      </trkpt>
      <trkpt lat="43.429" lon="6.02638">
        <ele>486.79998779297</ele>
        <time>2017-01-18T14:23:35Z</time>
      </trkpt>
      <trkpt lat="43.42905" lon="6.02662">
        <ele>486</ele>
        <time>2017-01-18T14:23:39Z</time>
      </trkpt>
      <trkpt lat="43.42911" lon="6.02666">
        <ele>485.79998779297</ele>
        <time>2017-01-18T14:23:41Z</time>
      </trkpt>
      <trkpt lat="43.4292" lon="6.02671">
        <ele>485.39999389648</ele>
        <time>2017-01-18T14:23:44Z</time>
      </trkpt>
      <trkpt lat="43.42923" lon="6.02673">
        <ele>485.39999389648</ele>
        <time>2017-01-18T14:23:45Z</time>
      </trkpt>
      <trkpt lat="43.42925" lon="6.02689">
        <ele>484.60000610352</ele>
        <time>2017-01-18T14:23:48Z</time>
      </trkpt>
      <trkpt lat="43.42926" lon="6.02708">
        <ele>483.39999389648</ele>
        <time>2017-01-18T14:23:51Z</time>
      </trkpt>
      <trkpt lat="43.42928" lon="6.02718">
        <ele>483</ele>
        <time>2017-01-18T14:23:53Z</time>
      </trkpt>
      <trkpt lat="43.42931" lon="6.02721">
        <ele>482.60000610352</ele>
        <time>2017-01-18T14:23:54Z</time>
      </trkpt>
      <trkpt lat="43.42935" lon="6.02723">
        <ele>482.20001220703</ele>
        <time>2017-01-18T14:23:55Z</time>
      </trkpt>
      <trkpt lat="43.42938" lon="6.02726">
        <ele>481.79998779297</ele>
        <time>2017-01-18T14:23:56Z</time>
      </trkpt>
      <trkpt lat="43.42942" lon="6.02731">
        <ele>481.20001220703</ele>
        <time>2017-01-18T14:23:57Z</time>
      </trkpt>
      <trkpt lat="43.42957" lon="6.02754">
        <ele>480.20001220703</ele>
        <time>2017-01-18T14:24:01Z</time>
      </trkpt>
      <trkpt lat="43.42965" lon="6.02767">
        <ele>479.60000610352</ele>
        <time>2017-01-18T14:24:03Z</time>
      </trkpt>
      <trkpt lat="43.42969" lon="6.02773">
        <ele>479.20001220703</ele>
        <time>2017-01-18T14:24:04Z</time>
      </trkpt>
      <trkpt lat="43.42973" lon="6.02778">
        <ele>478.79998779297</ele>
        <time>2017-01-18T14:24:05Z</time>
      </trkpt>
      <trkpt lat="43.42982" lon="6.02797">
        <ele>477.79998779297</ele>
        <time>2017-01-18T14:24:08Z</time>
      </trkpt>
      <trkpt lat="43.42985" lon="6.02804">
        <ele>477.39999389648</ele>
        <time>2017-01-18T14:24:09Z</time>
      </trkpt>
      <trkpt lat="43.42988" lon="6.02817">
        <ele>476.79998779297</ele>
        <time>2017-01-18T14:24:11Z</time>
      </trkpt>
      <trkpt lat="43.42988" lon="6.02823">
        <ele>476.39999389648</ele>
        <time>2017-01-18T14:24:12Z</time>
      </trkpt>
      <trkpt lat="43.42989" lon="6.02834">
        <ele>475.60000610352</ele>
        <time>2017-01-18T14:24:14Z</time>
      </trkpt>
      <trkpt lat="43.42989" lon="6.02834">
        <ele>475.20001220703</ele>
        <time>2017-01-18T14:24:15Z</time>
      </trkpt>
      <trkpt lat="43.42992" lon="6.02845">
        <ele>474.79998779297</ele>
        <time>2017-01-18T14:24:16Z</time>
      </trkpt>
      <trkpt lat="43.42995" lon="6.02858">
        <ele>474.20001220703</ele>
        <time>2017-01-18T14:24:18Z</time>
      </trkpt>
      <trkpt lat="43.42999" lon="6.02863">
        <ele>474</ele>
        <time>2017-01-18T14:24:19Z</time>
      </trkpt>
      <trkpt lat="43.43002" lon="6.02866">
        <ele>473.79998779297</ele>
        <time>2017-01-18T14:24:20Z</time>
      </trkpt>
      <trkpt lat="43.43013" lon="6.02867">
        <ele>472.79998779297</ele>
        <time>2017-01-18T14:24:23Z</time>
      </trkpt>
      <trkpt lat="43.43017" lon="6.02868">
        <ele>472.39999389648</ele>
        <time>2017-01-18T14:24:24Z</time>
      </trkpt>
      <trkpt lat="43.43029" lon="6.02876">
        <ele>471.60000610352</ele>
        <time>2017-01-18T14:24:27Z</time>
      </trkpt>
      <trkpt lat="43.43037" lon="6.02881">
        <ele>471.39999389648</ele>
        <time>2017-01-18T14:24:29Z</time>
      </trkpt>
      <trkpt lat="43.4305" lon="6.02894">
        <ele>470.39999389648</ele>
        <time>2017-01-18T14:24:33Z</time>
      </trkpt>
      <trkpt lat="43.43053" lon="6.02898">
        <ele>470.20001220703</ele>
        <time>2017-01-18T14:24:34Z</time>
      </trkpt>
      <trkpt lat="43.43064" lon="6.02914">
        <ele>469.20001220703</ele>
        <time>2017-01-18T14:24:37Z</time>
      </trkpt>
      <trkpt lat="43.43084" lon="6.02941">
        <ele>467.60000610352</ele>
        <time>2017-01-18T14:24:42Z</time>
      </trkpt>
      <trkpt lat="43.43091" lon="6.02952">
        <ele>466.79998779297</ele>
        <time>2017-01-18T14:24:44Z</time>
      </trkpt>
      <trkpt lat="43.43098" lon="6.02964">
        <ele>466.60000610352</ele>
        <time>2017-01-18T14:24:46Z</time>
      </trkpt>
      <trkpt lat="43.4311" lon="6.0298">
        <ele>465.39999389648</ele>
        <time>2017-01-18T14:24:49Z</time>
      </trkpt>
      <trkpt lat="43.43115" lon="6.02991">
        <ele>464.60000610352</ele>
        <time>2017-01-18T14:24:51Z</time>
      </trkpt>
      <trkpt lat="43.43117" lon="6.02997">
        <ele>464.20001220703</ele>
        <time>2017-01-18T14:24:52Z</time>
      </trkpt>
      <trkpt lat="43.43122" lon="6.03009">
        <ele>463.79998779297</ele>
        <time>2017-01-18T14:24:54Z</time>
      </trkpt>
      <trkpt lat="43.4313" lon="6.03028">
        <ele>463.20001220703</ele>
        <time>2017-01-18T14:24:57Z</time>
      </trkpt>
      <trkpt lat="43.43137" lon="6.03046">
        <ele>462.20001220703</ele>
        <time>2017-01-18T14:25:00Z</time>
      </trkpt>
      <trkpt lat="43.43138" lon="6.03054">
        <ele>462</ele>
        <time>2017-01-18T14:25:01Z</time>
      </trkpt>
      <trkpt lat="43.43139" lon="6.03068">
        <ele>460.79998779297</ele>
        <time>2017-01-18T14:25:03Z</time>
      </trkpt>
      <trkpt lat="43.43139" lon="6.03075">
        <ele>460</ele>
        <time>2017-01-18T14:25:04Z</time>
      </trkpt>
      <trkpt lat="43.43139" lon="6.0308">
        <ele>459.20001220703</ele>
        <time>2017-01-18T14:25:05Z</time>
      </trkpt>
      <trkpt lat="43.43139" lon="6.03086">
        <ele>459</ele>
        <time>2017-01-18T14:25:14Z</time>
      </trkpt>
      <trkpt lat="43.43139" lon="6.03087">
        <ele>458.79998779297</ele>
        <time>2017-01-18T14:25:24Z</time>
      </trkpt>
      <trkpt lat="43.43139" lon="6.03087">
        <ele>458.79998779297</ele>
        <time>2017-01-18T14:25:34Z</time>
      </trkpt>
      <trkpt lat="43.43139" lon="6.03087">
        <ele>458.79998779297</ele>
        <time>2017-01-18T14:25:41Z</time>
      </trkpt>
      <trkpt lat="43.43139" lon="6.03087">
        <ele>458.79998779297</ele>
        <time>2017-01-18T14:25:44Z</time>
      </trkpt>
      <trkpt lat="43.43138" lon="6.03088">
        <ele>458.79998779297</ele>
        <time>2017-01-18T14:25:54Z</time>
      </trkpt>
      <trkpt lat="43.43138" lon="6.03087">
        <ele>458.79998779297</ele>
        <time>2017-01-18T14:25:58Z</time>
      </trkpt>
      <trkpt lat="43.43137" lon="6.03087">
        <ele>458.60000610352</ele>
        <time>2017-01-18T14:26:04Z</time>
      </trkpt>
      <trkpt lat="43.43137" lon="6.03088">
        <ele>458.60000610352</ele>
        <time>2017-01-18T14:26:14Z</time>
      </trkpt>
      <trkpt lat="43.43137" lon="6.03087">
        <ele>458.60000610352</ele>
        <time>2017-01-18T14:26:19Z</time>
      </trkpt>
      <trkpt lat="43.43137" lon="6.03087">
        <ele>458.60000610352</ele>
        <time>2017-01-18T14:26:34Z</time>
      </trkpt>
      <trkpt lat="43.43137" lon="6.03086">
        <ele>458.60000610352</ele>
        <time>2017-01-18T14:26:48Z</time>
      </trkpt>
      <trkpt lat="43.43137" lon="6.03087">
        <ele>458.60000610352</ele>
        <time>2017-01-18T14:26:54Z</time>
      </trkpt>
      <trkpt lat="43.43136" lon="6.03085">
        <ele>458.60000610352</ele>
        <time>2017-01-18T14:27:00Z</time>
      </trkpt>
      <trkpt lat="43.43136" lon="6.03082">
        <ele>458.60000610352</ele>
        <time>2017-01-18T14:27:02Z</time>
      </trkpt>
      <trkpt lat="43.43137" lon="6.03078">
        <ele>458.79998779297</ele>
        <time>2017-01-18T14:27:04Z</time>
      </trkpt>
      <trkpt lat="43.43139" lon="6.03059">
        <ele>459.39999389648</ele>
        <time>2017-01-18T14:27:14Z</time>
      </trkpt>
      <trkpt lat="43.4314" lon="6.03052">
        <ele>460</ele>
        <time>2017-01-18T14:27:18Z</time>
      </trkpt>
      <trkpt lat="43.4314" lon="6.03049">
        <ele>460.60000610352</ele>
        <time>2017-01-18T14:27:20Z</time>
      </trkpt>
      <trkpt lat="43.4314" lon="6.03047">
        <ele>461.20001220703</ele>
        <time>2017-01-18T14:27:22Z</time>
      </trkpt>
      <trkpt lat="43.43141" lon="6.03042">
        <ele>461.79998779297</ele>
        <time>2017-01-18T14:27:24Z</time>
      </trkpt>
      <trkpt lat="43.43142" lon="6.03037">
        <ele>462.60000610352</ele>
        <time>2017-01-18T14:27:27Z</time>
      </trkpt>
      <trkpt lat="43.43142" lon="6.03034">
        <ele>463.20001220703</ele>
        <time>2017-01-18T14:27:29Z</time>
      </trkpt>
      <trkpt lat="43.43143" lon="6.0303">
        <ele>464</ele>
        <time>2017-01-18T14:27:32Z</time>
      </trkpt>
      <trkpt lat="43.43144" lon="6.03008">
        <ele>467.60000610352</ele>
        <time>2017-01-18T14:27:48Z</time>
      </trkpt>
      <trkpt lat="43.43145" lon="6.03002">
        <ele>469</ele>
        <time>2017-01-18T14:27:53Z</time>
      </trkpt>
      <trkpt lat="43.43145" lon="6.03001">
        <ele>469.20001220703</ele>
        <time>2017-01-18T14:27:54Z</time>
      </trkpt>
      <trkpt lat="43.43146" lon="6.02999">
        <ele>470</ele>
        <time>2017-01-18T14:28:04Z</time>
      </trkpt>
      <trkpt lat="43.43145" lon="6.02999">
        <ele>470</ele>
        <time>2017-01-18T14:28:08Z</time>
      </trkpt>
      <trkpt lat="43.43145" lon="6.02999">
        <ele>470.20001220703</ele>
        <time>2017-01-18T14:28:12Z</time>
      </trkpt>
      <trkpt lat="43.43145" lon="6.02999">
        <ele>470</ele>
        <time>2017-01-18T14:28:18Z</time>
      </trkpt>
      <trkpt lat="43.43145" lon="6.02999">
        <ele>470</ele>
        <time>2017-01-18T14:28:24Z</time>
      </trkpt>
      <trkpt lat="43.43145" lon="6.02999">
        <ele>470</ele>
        <time>2017-01-18T14:28:27Z</time>
      </trkpt>
      <trkpt lat="43.43145" lon="6.02999">
        <ele>470</ele>
        <time>2017-01-18T14:28:44Z</time>
      </trkpt>
      <trkpt lat="43.43145" lon="6.02999">
        <ele>470</ele>
        <time>2017-01-18T14:28:51Z</time>
      </trkpt>
      <trkpt lat="43.43146" lon="6.02999">
        <ele>470</ele>
        <time>2017-01-18T14:28:54Z</time>
      </trkpt>
      <trkpt lat="43.43145" lon="6.02999">
        <ele>469.79998779297</ele>
        <time>2017-01-18T14:29:00Z</time>
      </trkpt>
      <trkpt lat="43.43145" lon="6.02999">
        <ele>469.79998779297</ele>
        <time>2017-01-18T14:29:04Z</time>
      </trkpt>
      <trkpt lat="43.43145" lon="6.02998">
        <ele>470</ele>
        <time>2017-01-18T14:29:09Z</time>
      </trkpt>
      <trkpt lat="43.43146" lon="6.02997">
        <ele>470</ele>
        <time>2017-01-18T14:29:10Z</time>
      </trkpt>
      <trkpt lat="43.43146" lon="6.02995">
        <ele>470</ele>
        <time>2017-01-18T14:29:12Z</time>
      </trkpt>
      <trkpt lat="43.43145" lon="6.02994">
        <ele>470.60000610352</ele>
        <time>2017-01-18T14:29:16Z</time>
      </trkpt>
      <trkpt lat="43.43146" lon="6.02993">
        <ele>471</ele>
        <time>2017-01-18T14:29:20Z</time>
      </trkpt>
      <trkpt lat="43.43147" lon="6.02991">
        <ele>471.79998779297</ele>
        <time>2017-01-18T14:29:24Z</time>
      </trkpt>
      <trkpt lat="43.43147" lon="6.0299">
        <ele>472</ele>
        <time>2017-01-18T14:29:26Z</time>
      </trkpt>
      <trkpt lat="43.43147" lon="6.02986">
        <ele>472.60000610352</ele>
        <time>2017-01-18T14:29:32Z</time>
      </trkpt>
      <trkpt lat="43.43147" lon="6.02983">
        <ele>473.20001220703</ele>
        <time>2017-01-18T14:29:37Z</time>
      </trkpt>
      <trkpt lat="43.43147" lon="6.02981">
        <ele>474</ele>
        <time>2017-01-18T14:29:44Z</time>
      </trkpt>
      <trkpt lat="43.43146" lon="6.0298">
        <ele>474.20001220703</ele>
        <time>2017-01-18T14:29:46Z</time>
      </trkpt>
      <trkpt lat="43.43145" lon="6.02978">
        <ele>474.79998779297</ele>
        <time>2017-01-18T14:29:54Z</time>
      </trkpt>
      <trkpt lat="43.43145" lon="6.02978">
        <ele>474.60000610352</ele>
        <time>2017-01-18T14:30:01Z</time>
      </trkpt>
      <trkpt lat="43.43145" lon="6.02979">
        <ele>474.60000610352</ele>
        <time>2017-01-18T14:30:04Z</time>
      </trkpt>
      <trkpt lat="43.43145" lon="6.02979">
        <ele>474.60000610352</ele>
        <time>2017-01-18T14:30:14Z</time>
      </trkpt>
      <trkpt lat="43.43145" lon="6.02979">
        <ele>474.60000610352</ele>
        <time>2017-01-18T14:30:16Z</time>
      </trkpt>
      <trkpt lat="43.43145" lon="6.02979">
        <ele>474.60000610352</ele>
        <time>2017-01-18T14:30:19Z</time>
      </trkpt>
      <trkpt lat="43.43145" lon="6.02979">
        <ele>474.60000610352</ele>
        <time>2017-01-18T14:30:24Z</time>
      </trkpt>
      <trkpt lat="43.43145" lon="6.02979">
        <ele>475</ele>
        <time>2017-01-18T14:30:34Z</time>
      </trkpt>
      <trkpt lat="43.43145" lon="6.02979">
        <ele>474.79998779297</ele>
        <time>2017-01-18T14:30:54Z</time>
      </trkpt>
      <trkpt lat="43.43145" lon="6.02979">
        <ele>474.39999389648</ele>
        <time>2017-01-18T14:31:02Z</time>
      </trkpt>
      <trkpt lat="43.43145" lon="6.02979">
        <ele>474.60000610352</ele>
        <time>2017-01-18T14:31:32Z</time>
      </trkpt>
      <trkpt lat="43.43145" lon="6.02978">
        <ele>474.60000610352</ele>
        <time>2017-01-18T14:31:34Z</time>
      </trkpt>
      <trkpt lat="43.43145" lon="6.02978">
        <ele>474.79998779297</ele>
        <time>2017-01-18T14:31:37Z</time>
      </trkpt>
      <trkpt lat="43.43145" lon="6.02978">
        <ele>474.79998779297</ele>
        <time>2017-01-18T14:31:41Z</time>
      </trkpt>
      <trkpt lat="43.43145" lon="6.02977">
        <ele>475</ele>
        <time>2017-01-18T14:31:44Z</time>
      </trkpt>
      <trkpt lat="43.43146" lon="6.02978">
        <ele>475</ele>
        <time>2017-01-18T14:31:45Z</time>
      </trkpt>
      <trkpt lat="43.43147" lon="6.02977">
        <ele>475.20001220703</ele>
        <time>2017-01-18T14:31:49Z</time>
      </trkpt>
      <trkpt lat="43.43147" lon="6.02976">
        <ele>475.20001220703</ele>
        <time>2017-01-18T14:31:54Z</time>
      </trkpt>
      <trkpt lat="43.43146" lon="6.02975">
        <ele>475.20001220703</ele>
        <time>2017-01-18T14:32:04Z</time>
      </trkpt>
      <trkpt lat="43.43146" lon="6.02975">
        <ele>475</ele>
        <time>2017-01-18T14:32:08Z</time>
      </trkpt>
      <trkpt lat="43.43146" lon="6.02975">
        <ele>475</ele>
        <time>2017-01-18T14:32:18Z</time>
      </trkpt>
      <trkpt lat="43.43147" lon="6.02975">
        <ele>475.39999389648</ele>
        <time>2017-01-18T14:32:24Z</time>
      </trkpt>
      <trkpt lat="43.43147" lon="6.02975">
        <ele>475</ele>
        <time>2017-01-18T14:32:34Z</time>
      </trkpt>
      <trkpt lat="43.43146" lon="6.02973">
        <ele>475.39999389648</ele>
        <time>2017-01-18T14:32:44Z</time>
      </trkpt>
      <trkpt lat="43.43146" lon="6.02968">
        <ele>475.79998779297</ele>
        <time>2017-01-18T14:32:49Z</time>
      </trkpt>
      <trkpt lat="43.43146" lon="6.02964">
        <ele>476.39999389648</ele>
        <time>2017-01-18T14:32:53Z</time>
      </trkpt>
      <trkpt lat="43.43146" lon="6.02963">
        <ele>476.60000610352</ele>
        <time>2017-01-18T14:32:54Z</time>
      </trkpt>
      <trkpt lat="43.43147" lon="6.02961">
        <ele>477.39999389648</ele>
        <time>2017-01-18T14:32:59Z</time>
      </trkpt>
      <trkpt lat="43.43147" lon="6.02961">
        <ele>477.60000610352</ele>
        <time>2017-01-18T14:33:04Z</time>
      </trkpt>
      <trkpt lat="43.43147" lon="6.0296">
        <ele>477.20001220703</ele>
        <time>2017-01-18T14:33:14Z</time>
      </trkpt>
      <trkpt lat="43.43147" lon="6.02961">
        <ele>477.20001220703</ele>
        <time>2017-01-18T14:33:24Z</time>
      </trkpt>
      <trkpt lat="43.43147" lon="6.02954">
        <ele>477.60000610352</ele>
        <time>2017-01-18T14:33:29Z</time>
      </trkpt>
      <trkpt lat="43.43147" lon="6.02949">
        <ele>478</ele>
        <time>2017-01-18T14:33:32Z</time>
      </trkpt>
      <trkpt lat="43.43147" lon="6.02945">
        <ele>478.20001220703</ele>
        <time>2017-01-18T14:33:34Z</time>
      </trkpt>
      <trkpt lat="43.43146" lon="6.02937">
        <ele>478.79998779297</ele>
        <time>2017-01-18T14:33:37Z</time>
      </trkpt>
      <trkpt lat="43.43145" lon="6.02933">
        <ele>479.79998779297</ele>
        <time>2017-01-18T14:33:39Z</time>
      </trkpt>
      <trkpt lat="43.43145" lon="6.02927">
        <ele>480.60000610352</ele>
        <time>2017-01-18T14:33:42Z</time>
      </trkpt>
      <trkpt lat="43.43145" lon="6.02922">
        <ele>481</ele>
        <time>2017-01-18T14:33:44Z</time>
      </trkpt>
      <trkpt lat="43.43145" lon="6.02918">
        <ele>481.60000610352</ele>
        <time>2017-01-18T14:33:46Z</time>
      </trkpt>
      <trkpt lat="43.43146" lon="6.02915">
        <ele>482</ele>
        <time>2017-01-18T14:33:47Z</time>
      </trkpt>
      <trkpt lat="43.43145" lon="6.02908">
        <ele>483</ele>
        <time>2017-01-18T14:33:51Z</time>
      </trkpt>
      <trkpt lat="43.43144" lon="6.02902">
        <ele>483.20001220703</ele>
        <time>2017-01-18T14:33:54Z</time>
      </trkpt>
      <trkpt lat="43.43142" lon="6.02889">
        <ele>484</ele>
        <time>2017-01-18T14:34:02Z</time>
      </trkpt>
      <trkpt lat="43.43142" lon="6.02886">
        <ele>484.20001220703</ele>
        <time>2017-01-18T14:34:04Z</time>
      </trkpt>
      <trkpt lat="43.4314" lon="6.02878">
        <ele>484.79998779297</ele>
        <time>2017-01-18T14:34:11Z</time>
      </trkpt>
      <trkpt lat="43.43139" lon="6.02875">
        <ele>484.79998779297</ele>
        <time>2017-01-18T14:34:14Z</time>
      </trkpt>
      <trkpt lat="43.43137" lon="6.02874">
        <ele>484.79998779297</ele>
        <time>2017-01-18T14:34:16Z</time>
      </trkpt>
      <trkpt lat="43.43139" lon="6.02867">
        <ele>484.60000610352</ele>
        <time>2017-01-18T14:34:22Z</time>
      </trkpt>
      <trkpt lat="43.4314" lon="6.02867">
        <ele>484.60000610352</ele>
        <time>2017-01-18T14:34:24Z</time>
      </trkpt>
      <trkpt lat="43.43141" lon="6.02869">
        <ele>484.60000610352</ele>
        <time>2017-01-18T14:34:25Z</time>
      </trkpt>
      <trkpt lat="43.43143" lon="6.02876">
        <ele>484.79998779297</ele>
        <time>2017-01-18T14:34:30Z</time>
      </trkpt>
      <trkpt lat="43.43142" lon="6.02885">
        <ele>484.79998779297</ele>
        <time>2017-01-18T14:34:36Z</time>
      </trkpt>
      <trkpt lat="43.43142" lon="6.02887">
        <ele>484.79998779297</ele>
        <time>2017-01-18T14:34:38Z</time>
      </trkpt>
      <trkpt lat="43.43142" lon="6.0289">
        <ele>484.60000610352</ele>
        <time>2017-01-18T14:34:41Z</time>
      </trkpt>
      <trkpt lat="43.43142" lon="6.02891">
        <ele>484.60000610352</ele>
        <time>2017-01-18T14:34:42Z</time>
      </trkpt>
      <trkpt lat="43.43137" lon="6.02892">
        <ele>484.39999389648</ele>
        <time>2017-01-18T14:34:47Z</time>
      </trkpt>
      <trkpt lat="43.43136" lon="6.02889">
        <ele>484.20001220703</ele>
        <time>2017-01-18T14:34:49Z</time>
      </trkpt>
      <trkpt lat="43.43136" lon="6.0288">
        <ele>484</ele>
        <time>2017-01-18T14:34:54Z</time>
      </trkpt>
      <trkpt lat="43.43139" lon="6.02863">
        <ele>485</ele>
        <time>2017-01-18T14:35:04Z</time>
      </trkpt>
      <trkpt lat="43.43139" lon="6.02845">
        <ele>484.79998779297</ele>
        <time>2017-01-18T14:35:13Z</time>
      </trkpt>
      <trkpt lat="43.43138" lon="6.02842">
        <ele>484.60000610352</ele>
        <time>2017-01-18T14:35:14Z</time>
      </trkpt>
      <trkpt lat="43.43136" lon="6.02826">
        <ele>484.20001220703</ele>
        <time>2017-01-18T14:35:20Z</time>
      </trkpt>
      <trkpt lat="43.43136" lon="6.02816">
        <ele>484</ele>
        <time>2017-01-18T14:35:23Z</time>
      </trkpt>
      <trkpt lat="43.43136" lon="6.02813">
        <ele>483.79998779297</ele>
        <time>2017-01-18T14:35:24Z</time>
      </trkpt>
      <trkpt lat="43.43135" lon="6.02805">
        <ele>483.20001220703</ele>
        <time>2017-01-18T14:35:28Z</time>
      </trkpt>
      <trkpt lat="43.43134" lon="6.02804">
        <ele>483.60000610352</ele>
        <time>2017-01-18T14:35:33Z</time>
      </trkpt>
      <trkpt lat="43.43134" lon="6.02804">
        <ele>483.60000610352</ele>
        <time>2017-01-18T14:35:34Z</time>
      </trkpt>
      <trkpt lat="43.43134" lon="6.02804">
        <ele>483.60000610352</ele>
        <time>2017-01-18T14:35:44Z</time>
      </trkpt>
      <trkpt lat="43.43134" lon="6.02804">
        <ele>483.79998779297</ele>
        <time>2017-01-18T14:35:50Z</time>
      </trkpt>
      <trkpt lat="43.43134" lon="6.02804">
        <ele>483.79998779297</ele>
        <time>2017-01-18T14:35:54Z</time>
      </trkpt>
      <trkpt lat="43.43134" lon="6.02804">
        <ele>483.60000610352</ele>
        <time>2017-01-18T14:35:56Z</time>
      </trkpt>
      <trkpt lat="43.43134" lon="6.02804">
        <ele>483.79998779297</ele>
        <time>2017-01-18T14:36:04Z</time>
      </trkpt>
      <trkpt lat="43.43133" lon="6.02803">
        <ele>483.39999389648</ele>
        <time>2017-01-18T14:36:24Z</time>
      </trkpt>
      <trkpt lat="43.43133" lon="6.02803">
        <ele>483.60000610352</ele>
        <time>2017-01-18T14:36:44Z</time>
      </trkpt>
      <trkpt lat="43.43133" lon="6.02803">
        <ele>483.60000610352</ele>
        <time>2017-01-18T14:37:04Z</time>
      </trkpt>
      <trkpt lat="43.43132" lon="6.02802">
        <ele>483.60000610352</ele>
        <time>2017-01-18T14:37:12Z</time>
      </trkpt>
      <trkpt lat="43.4313" lon="6.02802">
        <ele>483.60000610352</ele>
        <time>2017-01-18T14:37:14Z</time>
      </trkpt>
      <trkpt lat="43.43129" lon="6.02803">
        <ele>483.20001220703</ele>
        <time>2017-01-18T14:37:15Z</time>
      </trkpt>
      <trkpt lat="43.43118" lon="6.02806">
        <ele>480.79998779297</ele>
        <time>2017-01-18T14:37:20Z</time>
      </trkpt>
      <trkpt lat="43.43114" lon="6.02807">
        <ele>482</ele>
        <time>2017-01-18T14:37:21Z</time>
      </trkpt>
      <trkpt lat="43.43107" lon="6.02811">
        <ele>482.60000610352</ele>
        <time>2017-01-18T14:37:24Z</time>
      </trkpt>
      <trkpt lat="43.431" lon="6.02821">
        <ele>480.60000610352</ele>
        <time>2017-01-18T14:37:26Z</time>
      </trkpt>
      <trkpt lat="43.43093" lon="6.02835">
        <ele>479.39999389648</ele>
        <time>2017-01-18T14:37:29Z</time>
      </trkpt>
      <trkpt lat="43.43087" lon="6.0285">
        <ele>479</ele>
        <time>2017-01-18T14:37:33Z</time>
      </trkpt>
      <trkpt lat="43.43085" lon="6.02852">
        <ele>478.60000610352</ele>
        <time>2017-01-18T14:37:34Z</time>
      </trkpt>
      <trkpt lat="43.43085" lon="6.02852">
        <ele>478.20001220703</ele>
        <time>2017-01-18T14:37:35Z</time>
      </trkpt>
      <trkpt lat="43.43082" lon="6.02853">
        <ele>478</ele>
        <time>2017-01-18T14:37:36Z</time>
      </trkpt>
      <trkpt lat="43.43071" lon="6.0285">
        <ele>477</ele>
        <time>2017-01-18T14:37:38Z</time>
      </trkpt>
      <trkpt lat="43.43066" lon="6.02848">
        <ele>476.60000610352</ele>
        <time>2017-01-18T14:37:39Z</time>
      </trkpt>
      <trkpt lat="43.43057" lon="6.02844">
        <ele>475.60000610352</ele>
        <time>2017-01-18T14:37:41Z</time>
      </trkpt>
      <trkpt lat="43.43048" lon="6.02843">
        <ele>474.39999389648</ele>
        <time>2017-01-18T14:37:43Z</time>
      </trkpt>
      <trkpt lat="43.43048" lon="6.02843">
        <ele>473.79998779297</ele>
        <time>2017-01-18T14:37:44Z</time>
      </trkpt>
      <trkpt lat="43.43045" lon="6.02847">
        <ele>473.39999389648</ele>
        <time>2017-01-18T14:37:45Z</time>
      </trkpt>
      <trkpt lat="43.43042" lon="6.0285">
        <ele>473</ele>
        <time>2017-01-18T14:37:46Z</time>
      </trkpt>
      <trkpt lat="43.43041" lon="6.0286">
        <ele>472.39999389648</ele>
        <time>2017-01-18T14:37:48Z</time>
      </trkpt>
      <trkpt lat="43.43044" lon="6.02881">
        <ele>470.79998779297</ele>
        <time>2017-01-18T14:37:51Z</time>
      </trkpt>
      <trkpt lat="43.43047" lon="6.02891">
        <ele>470</ele>
        <time>2017-01-18T14:37:53Z</time>
      </trkpt>
      <trkpt lat="43.43049" lon="6.02896">
        <ele>469.79998779297</ele>
        <time>2017-01-18T14:37:54Z</time>
      </trkpt>
      <trkpt lat="43.43052" lon="6.02899">
        <ele>469.39999389648</ele>
        <time>2017-01-18T14:37:55Z</time>
      </trkpt>
      <trkpt lat="43.43065" lon="6.02914">
        <ele>468.39999389648</ele>
        <time>2017-01-18T14:37:59Z</time>
      </trkpt>
      <trkpt lat="43.43081" lon="6.02935">
        <ele>468.20001220703</ele>
        <time>2017-01-18T14:38:04Z</time>
      </trkpt>
      <trkpt lat="43.4309" lon="6.02948">
        <ele>468</ele>
        <time>2017-01-18T14:38:07Z</time>
      </trkpt>
      <trkpt lat="43.43097" lon="6.02962">
        <ele>467.39999389648</ele>
        <time>2017-01-18T14:38:10Z</time>
      </trkpt>
      <trkpt lat="43.43106" lon="6.02973">
        <ele>466.20001220703</ele>
        <time>2017-01-18T14:38:13Z</time>
      </trkpt>
      <trkpt lat="43.43112" lon="6.02982">
        <ele>465.39999389648</ele>
        <time>2017-01-18T14:38:15Z</time>
      </trkpt>
      <trkpt lat="43.43114" lon="6.02988">
        <ele>465</ele>
        <time>2017-01-18T14:38:16Z</time>
      </trkpt>
      <trkpt lat="43.43119" lon="6.02999">
        <ele>464</ele>
        <time>2017-01-18T14:38:18Z</time>
      </trkpt>
      <trkpt lat="43.43126" lon="6.03017">
        <ele>463.60000610352</ele>
        <time>2017-01-18T14:38:21Z</time>
      </trkpt>
      <trkpt lat="43.43134" lon="6.03034">
        <ele>463</ele>
        <time>2017-01-18T14:38:24Z</time>
      </trkpt>
      <trkpt lat="43.43135" lon="6.0304">
        <ele>462.79998779297</ele>
        <time>2017-01-18T14:38:25Z</time>
      </trkpt>
      <trkpt lat="43.43139" lon="6.0306">
        <ele>461.39999389648</ele>
        <time>2017-01-18T14:38:28Z</time>
      </trkpt>
      <trkpt lat="43.43139" lon="6.03067">
        <ele>460.60000610352</ele>
        <time>2017-01-18T14:38:29Z</time>
      </trkpt>
      <trkpt lat="43.43139" lon="6.03076">
        <ele>459.60000610352</ele>
        <time>2017-01-18T14:38:30Z</time>
      </trkpt>
      <trkpt lat="43.43135" lon="6.03106">
        <ele>458.60000610352</ele>
        <time>2017-01-18T14:38:34Z</time>
      </trkpt>
      <trkpt lat="43.43135" lon="6.03112">
        <ele>458.39999389648</ele>
        <time>2017-01-18T14:38:35Z</time>
      </trkpt>
      <trkpt lat="43.43133" lon="6.03147">
        <ele>458</ele>
        <time>2017-01-18T14:38:40Z</time>
      </trkpt>
      <trkpt lat="43.43132" lon="6.0317">
        <ele>457.39999389648</ele>
        <time>2017-01-18T14:38:44Z</time>
      </trkpt>
      <trkpt lat="43.43133" lon="6.03179">
        <ele>458</ele>
        <time>2017-01-18T14:38:47Z</time>
      </trkpt>
      <trkpt lat="43.43133" lon="6.03182">
        <ele>458.60000610352</ele>
        <time>2017-01-18T14:38:48Z</time>
      </trkpt>
      <trkpt lat="43.43132" lon="6.03186">
        <ele>459.79998779297</ele>
        <time>2017-01-18T14:38:50Z</time>
      </trkpt>
      <trkpt lat="43.43132" lon="6.0319">
        <ele>460.60000610352</ele>
        <time>2017-01-18T14:38:52Z</time>
      </trkpt>
      <trkpt lat="43.43132" lon="6.0319">
        <ele>461</ele>
        <time>2017-01-18T14:38:53Z</time>
      </trkpt>
      <trkpt lat="43.43132" lon="6.03192">
        <ele>461.39999389648</ele>
        <time>2017-01-18T14:38:54Z</time>
      </trkpt>
      <trkpt lat="43.43132" lon="6.03196">
        <ele>462.20001220703</ele>
        <time>2017-01-18T14:38:56Z</time>
      </trkpt>
      <trkpt lat="43.43132" lon="6.03198">
        <ele>462.39999389648</ele>
        <time>2017-01-18T14:38:57Z</time>
      </trkpt>
      <trkpt lat="43.43132" lon="6.03202">
        <ele>462.79998779297</ele>
        <time>2017-01-18T14:38:58Z</time>
      </trkpt>
      <trkpt lat="43.43131" lon="6.03207">
        <ele>463.39999389648</ele>
        <time>2017-01-18T14:39:00Z</time>
      </trkpt>
      <trkpt lat="43.43131" lon="6.03212">
        <ele>463.79998779297</ele>
        <time>2017-01-18T14:39:02Z</time>
      </trkpt>
      <trkpt lat="43.4313" lon="6.03217">
        <ele>464.39999389648</ele>
        <time>2017-01-18T14:39:04Z</time>
      </trkpt>
      <trkpt lat="43.43128" lon="6.03244">
        <ele>465.60000610352</ele>
        <time>2017-01-18T14:39:14Z</time>
      </trkpt>
      <trkpt lat="43.43126" lon="6.03262">
        <ele>465.60000610352</ele>
        <time>2017-01-18T14:39:19Z</time>
      </trkpt>
      <trkpt lat="43.43125" lon="6.0331">
        <ele>464.39999389648</ele>
        <time>2017-01-18T14:39:28Z</time>
      </trkpt>
      <trkpt lat="43.43124" lon="6.03331">
        <ele>463.20001220703</ele>
        <time>2017-01-18T14:39:31Z</time>
      </trkpt>
      <trkpt lat="43.43123" lon="6.03355">
        <ele>462.60000610352</ele>
        <time>2017-01-18T14:39:34Z</time>
      </trkpt>
      <trkpt lat="43.43122" lon="6.03363">
        <ele>462.20001220703</ele>
        <time>2017-01-18T14:39:35Z</time>
      </trkpt>
      <trkpt lat="43.4312" lon="6.03402">
        <ele>461</ele>
        <time>2017-01-18T14:39:40Z</time>
      </trkpt>
      <trkpt lat="43.43118" lon="6.03431">
        <ele>460.79998779297</ele>
        <time>2017-01-18T14:39:44Z</time>
      </trkpt>
      <trkpt lat="43.43116" lon="6.03444">
        <ele>460.79998779297</ele>
        <time>2017-01-18T14:39:46Z</time>
      </trkpt>
      <trkpt lat="43.43113" lon="6.03468">
        <ele>460.79998779297</ele>
        <time>2017-01-18T14:39:50Z</time>
      </trkpt>
      <trkpt lat="43.43111" lon="6.0348">
        <ele>460.60000610352</ele>
        <time>2017-01-18T14:39:52Z</time>
      </trkpt>
      <trkpt lat="43.4311" lon="6.03492">
        <ele>460.39999389648</ele>
        <time>2017-01-18T14:39:54Z</time>
      </trkpt>
      <trkpt lat="43.4311" lon="6.03513">
        <ele>459.79998779297</ele>
        <time>2017-01-18T14:39:57Z</time>
      </trkpt>
      <trkpt lat="43.43108" lon="6.03546">
        <ele>458.20001220703</ele>
        <time>2017-01-18T14:40:01Z</time>
      </trkpt>
      <trkpt lat="43.43106" lon="6.0357">
        <ele>457.20001220703</ele>
        <time>2017-01-18T14:40:04Z</time>
      </trkpt>
      <trkpt lat="43.43106" lon="6.03577">
        <ele>457</ele>
        <time>2017-01-18T14:40:05Z</time>
      </trkpt>
      <trkpt lat="43.43106" lon="6.03592">
        <ele>457</ele>
        <time>2017-01-18T14:40:07Z</time>
      </trkpt>
      <trkpt lat="43.43105" lon="6.036">
        <ele>458.79998779297</ele>
        <time>2017-01-18T14:40:08Z</time>
      </trkpt>
      <trkpt lat="43.43104" lon="6.03632">
        <ele>459.60000610352</ele>
        <time>2017-01-18T14:40:12Z</time>
      </trkpt>
      <trkpt lat="43.43102" lon="6.03647">
        <ele>459</ele>
        <time>2017-01-18T14:40:14Z</time>
      </trkpt>
      <trkpt lat="43.431" lon="6.03655">
        <ele>459.20001220703</ele>
        <time>2017-01-18T14:40:15Z</time>
      </trkpt>
      <trkpt lat="43.431" lon="6.03691">
        <ele>459</ele>
        <time>2017-01-18T14:40:20Z</time>
      </trkpt>
      <trkpt lat="43.43099" lon="6.03713">
        <ele>458.79998779297</ele>
        <time>2017-01-18T14:40:23Z</time>
      </trkpt>
      <trkpt lat="43.43098" lon="6.0372">
        <ele>458.79998779297</ele>
        <time>2017-01-18T14:40:24Z</time>
      </trkpt>
      <trkpt lat="43.43096" lon="6.0375">
        <ele>458.60000610352</ele>
        <time>2017-01-18T14:40:28Z</time>
      </trkpt>
      <trkpt lat="43.43095" lon="6.03793">
        <ele>458.39999389648</ele>
        <time>2017-01-18T14:40:34Z</time>
      </trkpt>
      <trkpt lat="43.43094" lon="6.03806">
        <ele>458.20001220703</ele>
        <time>2017-01-18T14:40:36Z</time>
      </trkpt>
      <trkpt lat="43.43092" lon="6.03827">
        <ele>458.20001220703</ele>
        <time>2017-01-18T14:40:39Z</time>
      </trkpt>
      <trkpt lat="43.43088" lon="6.03861">
        <ele>457.60000610352</ele>
        <time>2017-01-18T14:40:44Z</time>
      </trkpt>
      <trkpt lat="43.43088" lon="6.03867">
        <ele>457.39999389648</ele>
        <time>2017-01-18T14:40:45Z</time>
      </trkpt>
      <trkpt lat="43.43086" lon="6.03918">
        <ele>456.60000610352</ele>
        <time>2017-01-18T14:40:52Z</time>
      </trkpt>
      <trkpt lat="43.43082" lon="6.03936">
        <ele>455.20001220703</ele>
        <time>2017-01-18T14:40:54Z</time>
      </trkpt>
      <trkpt lat="43.4308" lon="6.03946">
        <ele>454.39999389648</ele>
        <time>2017-01-18T14:40:55Z</time>
      </trkpt>
      <trkpt lat="43.43076" lon="6.03967">
        <ele>453.20001220703</ele>
        <time>2017-01-18T14:40:57Z</time>
      </trkpt>
      <trkpt lat="43.4307" lon="6.03997">
        <ele>451.79998779297</ele>
        <time>2017-01-18T14:41:00Z</time>
      </trkpt>
      <trkpt lat="43.43062" lon="6.04035">
        <ele>450.20001220703</ele>
        <time>2017-01-18T14:41:04Z</time>
      </trkpt>
      <trkpt lat="43.43044" lon="6.04118">
        <ele>448.60000610352</ele>
        <time>2017-01-18T14:41:14Z</time>
      </trkpt>
      <trkpt lat="43.43038" lon="6.04143">
        <ele>448.60000610352</ele>
        <time>2017-01-18T14:41:17Z</time>
      </trkpt>
      <trkpt lat="43.43035" lon="6.04159">
        <ele>448.79998779297</ele>
        <time>2017-01-18T14:41:19Z</time>
      </trkpt>
      <trkpt lat="43.43032" lon="6.04183">
        <ele>449</ele>
        <time>2017-01-18T14:41:22Z</time>
      </trkpt>
      <trkpt lat="43.43028" lon="6.04198">
        <ele>449.20001220703</ele>
        <time>2017-01-18T14:41:24Z</time>
      </trkpt>
      <trkpt lat="43.43025" lon="6.04212">
        <ele>449.60000610352</ele>
        <time>2017-01-18T14:41:26Z</time>
      </trkpt>
      <trkpt lat="43.43021" lon="6.04233">
        <ele>449.79998779297</ele>
        <time>2017-01-18T14:41:29Z</time>
      </trkpt>
      <trkpt lat="43.43015" lon="6.04255">
        <ele>449.79998779297</ele>
        <time>2017-01-18T14:41:32Z</time>
      </trkpt>
      <trkpt lat="43.43012" lon="6.04271">
        <ele>449.79998779297</ele>
        <time>2017-01-18T14:41:34Z</time>
      </trkpt>
      <trkpt lat="43.43005" lon="6.04333">
        <ele>448.79998779297</ele>
        <time>2017-01-18T14:41:41Z</time>
      </trkpt>
      <trkpt lat="43.43004" lon="6.04358">
        <ele>448.60000610352</ele>
        <time>2017-01-18T14:41:44Z</time>
      </trkpt>
      <trkpt lat="43.43002" lon="6.0438">
        <ele>448.79998779297</ele>
        <time>2017-01-18T14:41:47Z</time>
      </trkpt>
      <trkpt lat="43.42996" lon="6.04399">
        <ele>449</ele>
        <time>2017-01-18T14:41:50Z</time>
      </trkpt>
      <trkpt lat="43.42991" lon="6.04419">
        <ele>450.39999389648</ele>
        <time>2017-01-18T14:41:54Z</time>
      </trkpt>
      <trkpt lat="43.4299" lon="6.04423">
        <ele>450.79998779297</ele>
        <time>2017-01-18T14:41:55Z</time>
      </trkpt>
      <trkpt lat="43.42986" lon="6.04454">
        <ele>450.39999389648</ele>
        <time>2017-01-18T14:42:04Z</time>
      </trkpt>
      <trkpt lat="43.42984" lon="6.04462">
        <ele>449.60000610352</ele>
        <time>2017-01-18T14:42:06Z</time>
      </trkpt>
      <trkpt lat="43.42981" lon="6.04472">
        <ele>449.39999389648</ele>
        <time>2017-01-18T14:42:08Z</time>
      </trkpt>
      <trkpt lat="43.42977" lon="6.04493">
        <ele>449</ele>
        <time>2017-01-18T14:42:11Z</time>
      </trkpt>
      <trkpt lat="43.42976" lon="6.04501">
        <ele>448.60000610352</ele>
        <time>2017-01-18T14:42:12Z</time>
      </trkpt>
      <trkpt lat="43.42976" lon="6.04511">
        <ele>447.79998779297</ele>
        <time>2017-01-18T14:42:13Z</time>
      </trkpt>
      <trkpt lat="43.42976" lon="6.04522">
        <ele>446.60000610352</ele>
        <time>2017-01-18T14:42:14Z</time>
      </trkpt>
      <trkpt lat="43.42978" lon="6.04533">
        <ele>445.39999389648</ele>
        <time>2017-01-18T14:42:15Z</time>
      </trkpt>
      <trkpt lat="43.42978" lon="6.04545">
        <ele>444.20001220703</ele>
        <time>2017-01-18T14:42:16Z</time>
      </trkpt>
      <trkpt lat="43.42978" lon="6.04557">
        <ele>443.20001220703</ele>
        <time>2017-01-18T14:42:17Z</time>
      </trkpt>
      <trkpt lat="43.42979" lon="6.04566">
        <ele>442.79998779297</ele>
        <time>2017-01-18T14:42:18Z</time>
      </trkpt>
      <trkpt lat="43.42978" lon="6.04574">
        <ele>442.20001220703</ele>
        <time>2017-01-18T14:42:19Z</time>
      </trkpt>
      <trkpt lat="43.42974" lon="6.04602">
        <ele>442.79998779297</ele>
        <time>2017-01-18T14:42:24Z</time>
      </trkpt>
      <trkpt lat="43.42967" lon="6.04655">
        <ele>443.20001220703</ele>
        <time>2017-01-18T14:42:33Z</time>
      </trkpt>
      <trkpt lat="43.42966" lon="6.04661">
        <ele>443.20001220703</ele>
        <time>2017-01-18T14:42:34Z</time>
      </trkpt>
      <trkpt lat="43.42961" lon="6.04718">
        <ele>444</ele>
        <time>2017-01-18T14:42:44Z</time>
      </trkpt>
      <trkpt lat="43.42957" lon="6.04741">
        <ele>444</ele>
        <time>2017-01-18T14:42:48Z</time>
      </trkpt>
      <trkpt lat="43.42955" lon="6.04775">
        <ele>443.39999389648</ele>
        <time>2017-01-18T14:42:54Z</time>
      </trkpt>
      <trkpt lat="43.42953" lon="6.04795">
        <ele>442.60000610352</ele>
        <time>2017-01-18T14:42:57Z</time>
      </trkpt>
      <trkpt lat="43.42949" lon="6.04824">
        <ele>441.79998779297</ele>
        <time>2017-01-18T14:43:01Z</time>
      </trkpt>
      <trkpt lat="43.42945" lon="6.04844">
        <ele>440.60000610352</ele>
        <time>2017-01-18T14:43:04Z</time>
      </trkpt>
      <trkpt lat="43.42939" lon="6.04867">
        <ele>440.39999389648</ele>
        <time>2017-01-18T14:43:09Z</time>
      </trkpt>
      <trkpt lat="43.42937" lon="6.04874">
        <ele>442</ele>
        <time>2017-01-18T14:43:11Z</time>
      </trkpt>
      <trkpt lat="43.42936" lon="6.0488">
        <ele>443.20001220703</ele>
        <time>2017-01-18T14:43:13Z</time>
      </trkpt>
      <trkpt lat="43.42936" lon="6.04883">
        <ele>443.39999389648</ele>
        <time>2017-01-18T14:43:14Z</time>
      </trkpt>
      <trkpt lat="43.42936" lon="6.04887">
        <ele>444.20001220703</ele>
        <time>2017-01-18T14:43:16Z</time>
      </trkpt>
      <trkpt lat="43.42935" lon="6.04899">
        <ele>445.39999389648</ele>
        <time>2017-01-18T14:43:21Z</time>
      </trkpt>
      <trkpt lat="43.42935" lon="6.04906">
        <ele>446.39999389648</ele>
        <time>2017-01-18T14:43:24Z</time>
      </trkpt>
      <trkpt lat="43.42935" lon="6.04917">
        <ele>447.79998779297</ele>
        <time>2017-01-18T14:43:31Z</time>
      </trkpt>
      <trkpt lat="43.42935" lon="6.0492">
        <ele>447.79998779297</ele>
        <time>2017-01-18T14:43:33Z</time>
      </trkpt>
      <trkpt lat="43.42935" lon="6.0492">
        <ele>447.79998779297</ele>
        <time>2017-01-18T14:43:38Z</time>
      </trkpt>
      <trkpt lat="43.42934" lon="6.0492">
        <ele>447.79998779297</ele>
        <time>2017-01-18T14:43:41Z</time>
      </trkpt>
      <trkpt lat="43.42934" lon="6.0492">
        <ele>447.79998779297</ele>
        <time>2017-01-18T14:43:50Z</time>
      </trkpt>
      <trkpt lat="43.42934" lon="6.0492">
        <ele>447.79998779297</ele>
        <time>2017-01-18T14:43:54Z</time>
      </trkpt>
      <trkpt lat="43.42934" lon="6.0492">
        <ele>447.79998779297</ele>
        <time>2017-01-18T14:43:57Z</time>
      </trkpt>
      <trkpt lat="43.42934" lon="6.0492">
        <ele>447.60000610352</ele>
        <time>2017-01-18T14:44:00Z</time>
      </trkpt>
      <trkpt lat="43.42934" lon="6.04919">
        <ele>447.79998779297</ele>
        <time>2017-01-18T14:44:06Z</time>
      </trkpt>
      <trkpt lat="43.42934" lon="6.04919">
        <ele>447.60000610352</ele>
        <time>2017-01-18T14:44:14Z</time>
      </trkpt>
      <trkpt lat="43.42934" lon="6.04919">
        <ele>447.79998779297</ele>
        <time>2017-01-18T14:44:19Z</time>
      </trkpt>
      <trkpt lat="43.42933" lon="6.04918">
        <ele>447.60000610352</ele>
        <time>2017-01-18T14:44:24Z</time>
      </trkpt>
      <trkpt lat="43.42933" lon="6.04918">
        <ele>447.39999389648</ele>
        <time>2017-01-18T14:44:31Z</time>
      </trkpt>
      <trkpt lat="43.42934" lon="6.04918">
        <ele>447.60000610352</ele>
        <time>2017-01-18T14:44:38Z</time>
      </trkpt>
      <trkpt lat="43.42933" lon="6.04918">
        <ele>447.60000610352</ele>
        <time>2017-01-18T14:44:40Z</time>
      </trkpt>
      <trkpt lat="43.42933" lon="6.04918">
        <ele>447.60000610352</ele>
        <time>2017-01-18T14:44:44Z</time>
      </trkpt>
      <trkpt lat="43.42933" lon="6.04917">
        <ele>447.60000610352</ele>
        <time>2017-01-18T14:44:54Z</time>
      </trkpt>
      <trkpt lat="43.42933" lon="6.04917">
        <ele>447.60000610352</ele>
        <time>2017-01-18T14:44:59Z</time>
      </trkpt>
      <trkpt lat="43.42933" lon="6.04917">
        <ele>447.60000610352</ele>
        <time>2017-01-18T14:45:04Z</time>
      </trkpt>
      <trkpt lat="43.42933" lon="6.04917">
        <ele>447.60000610352</ele>
        <time>2017-01-18T14:45:10Z</time>
      </trkpt>
      <trkpt lat="43.42933" lon="6.04918">
        <ele>447.60000610352</ele>
        <time>2017-01-18T14:45:24Z</time>
      </trkpt>
      <trkpt lat="43.42933" lon="6.04918">
        <ele>447.60000610352</ele>
        <time>2017-01-18T14:45:31Z</time>
      </trkpt>
      <trkpt lat="43.42933" lon="6.04919">
        <ele>447.60000610352</ele>
        <time>2017-01-18T14:45:54Z</time>
      </trkpt>
      <trkpt lat="43.42933" lon="6.04919">
        <ele>447.60000610352</ele>
        <time>2017-01-18T14:46:04Z</time>
      </trkpt>
      <trkpt lat="43.42933" lon="6.04919">
        <ele>447.60000610352</ele>
        <time>2017-01-18T14:46:14Z</time>
      </trkpt>
      <trkpt lat="43.42933" lon="6.04918">
        <ele>447.60000610352</ele>
        <time>2017-01-18T14:46:24Z</time>
      </trkpt>
      <trkpt lat="43.42933" lon="6.04919">
        <ele>447.60000610352</ele>
        <time>2017-01-18T14:46:34Z</time>
      </trkpt>
      <trkpt lat="43.42933" lon="6.04919">
        <ele>447.60000610352</ele>
        <time>2017-01-18T14:46:44Z</time>
      </trkpt>
      <trkpt lat="43.42933" lon="6.04919">
        <ele>447.60000610352</ele>
        <time>2017-01-18T14:46:54Z</time>
      </trkpt>
      <trkpt lat="43.42933" lon="6.04919">
        <ele>447.60000610352</ele>
        <time>2017-01-18T14:47:04Z</time>
      </trkpt>
      <trkpt lat="43.42933" lon="6.04919">
        <ele>447.60000610352</ele>
        <time>2017-01-18T14:47:14Z</time>
      </trkpt>
      <trkpt lat="43.42934" lon="6.04919">
        <ele>447.60000610352</ele>
        <time>2017-01-18T14:47:34Z</time>
      </trkpt>
      <trkpt lat="43.42934" lon="6.0492">
        <ele>447.60000610352</ele>
        <time>2017-01-18T14:47:50Z</time>
      </trkpt>
      <trkpt lat="43.42934" lon="6.0492">
        <ele>447.60000610352</ele>
        <time>2017-01-18T14:47:54Z</time>
      </trkpt>
      <trkpt lat="43.42935" lon="6.04923">
        <ele>447.60000610352</ele>
        <time>2017-01-18T14:47:57Z</time>
      </trkpt>
      <trkpt lat="43.42936" lon="6.04927">
        <ele>447.60000610352</ele>
        <time>2017-01-18T14:48:00Z</time>
      </trkpt>
      <trkpt lat="43.42934" lon="6.04935">
        <ele>447.60000610352</ele>
        <time>2017-01-18T14:48:04Z</time>
      </trkpt>
      <trkpt lat="43.42933" lon="6.04944">
        <ele>448</ele>
        <time>2017-01-18T14:48:07Z</time>
      </trkpt>
      <trkpt lat="43.42933" lon="6.04955">
        <ele>448.39999389648</ele>
        <time>2017-01-18T14:48:10Z</time>
      </trkpt>
      <trkpt lat="43.42931" lon="6.04972">
        <ele>448.39999389648</ele>
        <time>2017-01-18T14:48:14Z</time>
      </trkpt>
      <trkpt lat="43.42928" lon="6.04999">
        <ele>448.79998779297</ele>
        <time>2017-01-18T14:48:20Z</time>
      </trkpt>
      <trkpt lat="43.42926" lon="6.05018">
        <ele>449</ele>
        <time>2017-01-18T14:48:24Z</time>
      </trkpt>
      <trkpt lat="43.42923" lon="6.05052">
        <ele>449.60000610352</ele>
        <time>2017-01-18T14:48:30Z</time>
      </trkpt>
      <trkpt lat="43.42921" lon="6.05064">
        <ele>449.79998779297</ele>
        <time>2017-01-18T14:48:32Z</time>
      </trkpt>
      <trkpt lat="43.42919" lon="6.05076">
        <ele>450.20001220703</ele>
        <time>2017-01-18T14:48:34Z</time>
      </trkpt>
      <trkpt lat="43.42917" lon="6.05104">
        <ele>451.20001220703</ele>
        <time>2017-01-18T14:48:39Z</time>
      </trkpt>
      <trkpt lat="43.42916" lon="6.0511">
        <ele>451.39999389648</ele>
        <time>2017-01-18T14:48:40Z</time>
      </trkpt>
      <trkpt lat="43.42913" lon="6.0513">
        <ele>451.39999389648</ele>
        <time>2017-01-18T14:48:44Z</time>
      </trkpt>
      <trkpt lat="43.42908" lon="6.05164">
        <ele>452.39999389648</ele>
        <time>2017-01-18T14:48:51Z</time>
      </trkpt>
      <trkpt lat="43.42906" lon="6.05175">
        <ele>452.79998779297</ele>
        <time>2017-01-18T14:48:54Z</time>
      </trkpt>
      <trkpt lat="43.42905" lon="6.05182">
        <ele>453.39999389648</ele>
        <time>2017-01-18T14:48:56Z</time>
      </trkpt>
      <trkpt lat="43.42903" lon="6.05202">
        <ele>454.39999389648</ele>
        <time>2017-01-18T14:49:01Z</time>
      </trkpt>
      <trkpt lat="43.42902" lon="6.05215">
        <ele>454.39999389648</ele>
        <time>2017-01-18T14:49:04Z</time>
      </trkpt>
      <trkpt lat="43.42896" lon="6.05259">
        <ele>454.60000610352</ele>
        <time>2017-01-18T14:49:14Z</time>
      </trkpt>
      <trkpt lat="43.42891" lon="6.05305">
        <ele>455.20001220703</ele>
        <time>2017-01-18T14:49:24Z</time>
      </trkpt>
      <trkpt lat="43.42884" lon="6.05347">
        <ele>453.60000610352</ele>
        <time>2017-01-18T14:49:31Z</time>
      </trkpt>
      <trkpt lat="43.42881" lon="6.05368">
        <ele>452.79998779297</ele>
        <time>2017-01-18T14:49:34Z</time>
      </trkpt>
      <trkpt lat="43.4288" lon="6.05375">
        <ele>452.60000610352</ele>
        <time>2017-01-18T14:49:35Z</time>
      </trkpt>
      <trkpt lat="43.4288" lon="6.05406">
        <ele>451.20001220703</ele>
        <time>2017-01-18T14:49:39Z</time>
      </trkpt>
      <trkpt lat="43.42879" lon="6.05415">
        <ele>450.79998779297</ele>
        <time>2017-01-18T14:49:40Z</time>
      </trkpt>
      <trkpt lat="43.42876" lon="6.05431">
        <ele>450.20001220703</ele>
        <time>2017-01-18T14:49:42Z</time>
      </trkpt>
      <trkpt lat="43.42874" lon="6.05447">
        <ele>450</ele>
        <time>2017-01-18T14:49:44Z</time>
      </trkpt>
      <trkpt lat="43.42872" lon="6.05462">
        <ele>449.79998779297</ele>
        <time>2017-01-18T14:49:46Z</time>
      </trkpt>
      <trkpt lat="43.42869" lon="6.05503">
        <ele>449.39999389648</ele>
        <time>2017-01-18T14:49:52Z</time>
      </trkpt>
      <trkpt lat="43.42868" lon="6.05516">
        <ele>449.79998779297</ele>
        <time>2017-01-18T14:49:54Z</time>
      </trkpt>
      <trkpt lat="43.42867" lon="6.05522">
        <ele>449.60000610352</ele>
        <time>2017-01-18T14:49:55Z</time>
      </trkpt>
      <trkpt lat="43.42863" lon="6.05541">
        <ele>449.39999389648</ele>
        <time>2017-01-18T14:49:58Z</time>
      </trkpt>
      <trkpt lat="43.42858" lon="6.05578">
        <ele>448.79998779297</ele>
        <time>2017-01-18T14:50:04Z</time>
      </trkpt>
      <trkpt lat="43.42857" lon="6.05589">
        <ele>449</ele>
        <time>2017-01-18T14:50:06Z</time>
      </trkpt>
      <trkpt lat="43.42855" lon="6.05605">
        <ele>449.20001220703</ele>
        <time>2017-01-18T14:50:09Z</time>
      </trkpt>
      <trkpt lat="43.42852" lon="6.05634">
        <ele>449.60000610352</ele>
        <time>2017-01-18T14:50:14Z</time>
      </trkpt>
      <trkpt lat="43.42849" lon="6.05661">
        <ele>450.39999389648</ele>
        <time>2017-01-18T14:50:19Z</time>
      </trkpt>
      <trkpt lat="43.42847" lon="6.05675">
        <ele>450.79998779297</ele>
        <time>2017-01-18T14:50:22Z</time>
      </trkpt>
      <trkpt lat="43.42846" lon="6.05683">
        <ele>450.79998779297</ele>
        <time>2017-01-18T14:50:24Z</time>
      </trkpt>
      <trkpt lat="43.42843" lon="6.05715">
        <ele>451</ele>
        <time>2017-01-18T14:50:31Z</time>
      </trkpt>
      <trkpt lat="43.42842" lon="6.05731">
        <ele>450.39999389648</ele>
        <time>2017-01-18T14:50:34Z</time>
      </trkpt>
      <trkpt lat="43.42841" lon="6.05747">
        <ele>450</ele>
        <time>2017-01-18T14:50:37Z</time>
      </trkpt>
      <trkpt lat="43.42839" lon="6.05762">
        <ele>450</ele>
        <time>2017-01-18T14:50:41Z</time>
      </trkpt>
      <trkpt lat="43.42837" lon="6.05773">
        <ele>450</ele>
        <time>2017-01-18T14:50:44Z</time>
      </trkpt>
      <trkpt lat="43.42835" lon="6.05791">
        <ele>450.20001220703</ele>
        <time>2017-01-18T14:50:48Z</time>
      </trkpt>
      <trkpt lat="43.42831" lon="6.05816">
        <ele>450.60000610352</ele>
        <time>2017-01-18T14:50:54Z</time>
      </trkpt>
      <trkpt lat="43.42829" lon="6.05833">
        <ele>451.79998779297</ele>
        <time>2017-01-18T14:50:58Z</time>
      </trkpt>
      <trkpt lat="43.42826" lon="6.05847">
        <ele>452.39999389648</ele>
        <time>2017-01-18T14:51:02Z</time>
      </trkpt>
      <trkpt lat="43.42825" lon="6.05853">
        <ele>453.39999389648</ele>
        <time>2017-01-18T14:51:04Z</time>
      </trkpt>
      <trkpt lat="43.42822" lon="6.05859">
        <ele>454</ele>
        <time>2017-01-18T14:51:06Z</time>
      </trkpt>
      <trkpt lat="43.42818" lon="6.05867">
        <ele>455.20001220703</ele>
        <time>2017-01-18T14:51:09Z</time>
      </trkpt>
      <trkpt lat="43.42817" lon="6.05869">
        <ele>455.60000610352</ele>
        <time>2017-01-18T14:51:10Z</time>
      </trkpt>
      <trkpt lat="43.42814" lon="6.05877">
        <ele>456.20001220703</ele>
        <time>2017-01-18T14:51:13Z</time>
      </trkpt>
      <trkpt lat="43.42812" lon="6.05881">
        <ele>456.60000610352</ele>
        <time>2017-01-18T14:51:15Z</time>
      </trkpt>
      <trkpt lat="43.42807" lon="6.0589">
        <ele>458</ele>
        <time>2017-01-18T14:51:19Z</time>
      </trkpt>
      <trkpt lat="43.42802" lon="6.059">
        <ele>459</ele>
        <time>2017-01-18T14:51:24Z</time>
      </trkpt>
      <trkpt lat="43.42798" lon="6.05908">
        <ele>460</ele>
        <time>2017-01-18T14:51:29Z</time>
      </trkpt>
      <trkpt lat="43.42795" lon="6.05914">
        <ele>461.20001220703</ele>
        <time>2017-01-18T14:51:33Z</time>
      </trkpt>
      <trkpt lat="43.42794" lon="6.05916">
        <ele>461.20001220703</ele>
        <time>2017-01-18T14:51:34Z</time>
      </trkpt>
      <trkpt lat="43.42788" lon="6.05935">
        <ele>462.20001220703</ele>
        <time>2017-01-18T14:51:44Z</time>
      </trkpt>
      <trkpt lat="43.42782" lon="6.05954">
        <ele>462.79998779297</ele>
        <time>2017-01-18T14:51:54Z</time>
      </trkpt>
      <trkpt lat="43.4278" lon="6.05956">
        <ele>463</ele>
        <time>2017-01-18T14:51:56Z</time>
      </trkpt>
      <trkpt lat="43.42777" lon="6.0596">
        <ele>463.20001220703</ele>
        <time>2017-01-18T14:51:59Z</time>
      </trkpt>
      <trkpt lat="43.42773" lon="6.05964">
        <ele>463.60000610352</ele>
        <time>2017-01-18T14:52:04Z</time>
      </trkpt>
      <trkpt lat="43.42766" lon="6.05968">
        <ele>464.39999389648</ele>
        <time>2017-01-18T14:52:10Z</time>
      </trkpt>
      <trkpt lat="43.42765" lon="6.0597">
        <ele>465.20001220703</ele>
        <time>2017-01-18T14:52:13Z</time>
      </trkpt>
      <trkpt lat="43.42766" lon="6.05971">
        <ele>465.39999389648</ele>
        <time>2017-01-18T14:52:14Z</time>
      </trkpt>
      <trkpt lat="43.42767" lon="6.05973">
        <ele>465.39999389648</ele>
        <time>2017-01-18T14:52:16Z</time>
      </trkpt>
      <trkpt lat="43.42767" lon="6.05976">
        <ele>465.20001220703</ele>
        <time>2017-01-18T14:52:24Z</time>
      </trkpt>
      <trkpt lat="43.42768" lon="6.05978">
        <ele>465.20001220703</ele>
        <time>2017-01-18T14:52:28Z</time>
      </trkpt>
      <trkpt lat="43.42773" lon="6.05982">
        <ele>464.60000610352</ele>
        <time>2017-01-18T14:52:33Z</time>
      </trkpt>
      <trkpt lat="43.42777" lon="6.05985">
        <ele>464.39999389648</ele>
        <time>2017-01-18T14:52:34Z</time>
      </trkpt>
      <trkpt lat="43.4278" lon="6.05984">
        <ele>463.79998779297</ele>
        <time>2017-01-18T14:52:36Z</time>
      </trkpt>
      <trkpt lat="43.42781" lon="6.05981">
        <ele>463.39999389648</ele>
        <time>2017-01-18T14:52:39Z</time>
      </trkpt>
      <trkpt lat="43.42781" lon="6.05976">
        <ele>463.20001220703</ele>
        <time>2017-01-18T14:52:43Z</time>
      </trkpt>
      <trkpt lat="43.42781" lon="6.05974">
        <ele>463.20001220703</ele>
        <time>2017-01-18T14:52:44Z</time>
      </trkpt>
      <trkpt lat="43.4278" lon="6.05972">
        <ele>463.20001220703</ele>
        <time>2017-01-18T14:52:47Z</time>
      </trkpt>
      <trkpt lat="43.4278" lon="6.05972">
        <ele>463.39999389648</ele>
        <time>2017-01-18T14:52:52Z</time>
      </trkpt>
      <trkpt lat="43.4278" lon="6.05972">
        <ele>463.60000610352</ele>
        <time>2017-01-18T14:52:54Z</time>
      </trkpt>
      <trkpt lat="43.4278" lon="6.05972">
        <ele>463.60000610352</ele>
        <time>2017-01-18T14:53:02Z</time>
      </trkpt>
      <trkpt lat="43.42779" lon="6.05972">
        <ele>463.60000610352</ele>
        <time>2017-01-18T14:53:04Z</time>
      </trkpt>
      <trkpt lat="43.4278" lon="6.05972">
        <ele>463.60000610352</ele>
        <time>2017-01-18T14:53:10Z</time>
      </trkpt>
      <trkpt lat="43.4278" lon="6.05972">
        <ele>463.60000610352</ele>
        <time>2017-01-18T14:53:13Z</time>
      </trkpt>
      <trkpt lat="43.4278" lon="6.05972">
        <ele>463.60000610352</ele>
        <time>2017-01-18T14:53:19Z</time>
      </trkpt>
      <trkpt lat="43.4278" lon="6.05972">
        <ele>463.39999389648</ele>
        <time>2017-01-18T14:53:24Z</time>
      </trkpt>
      <trkpt lat="43.4278" lon="6.05972">
        <ele>463.39999389648</ele>
        <time>2017-01-18T14:53:29Z</time>
      </trkpt>
      <trkpt lat="43.4278" lon="6.05972">
        <ele>463.20001220703</ele>
        <time>2017-01-18T14:53:34Z</time>
      </trkpt>
      <trkpt lat="43.4278" lon="6.05972">
        <ele>463.39999389648</ele>
        <time>2017-01-18T14:53:38Z</time>
      </trkpt>
      <trkpt lat="43.4278" lon="6.05972">
        <ele>463.60000610352</ele>
        <time>2017-01-18T14:53:42Z</time>
      </trkpt>
      <trkpt lat="43.4278" lon="6.05971">
        <ele>463.20001220703</ele>
        <time>2017-01-18T14:53:54Z</time>
      </trkpt>
      <trkpt lat="43.42779" lon="6.0597">
        <ele>463.20001220703</ele>
        <time>2017-01-18T14:53:59Z</time>
      </trkpt>
      <trkpt lat="43.42778" lon="6.0597">
        <ele>463.20001220703</ele>
        <time>2017-01-18T14:54:01Z</time>
      </trkpt>
      <trkpt lat="43.42778" lon="6.0597">
        <ele>463.20001220703</ele>
        <time>2017-01-18T14:54:04Z</time>
      </trkpt>
      <trkpt lat="43.42778" lon="6.0597">
        <ele>463.20001220703</ele>
        <time>2017-01-18T14:54:08Z</time>
      </trkpt>
      <trkpt lat="43.42778" lon="6.0597">
        <ele>463.20001220703</ele>
        <time>2017-01-18T14:54:10Z</time>
      </trkpt>
      <trkpt lat="43.42777" lon="6.05973">
        <ele>463.20001220703</ele>
        <time>2017-01-18T14:54:13Z</time>
      </trkpt>
      <trkpt lat="43.42777" lon="6.05974">
        <ele>463.20001220703</ele>
        <time>2017-01-18T14:54:14Z</time>
      </trkpt>
      <trkpt lat="43.42778" lon="6.05986">
        <ele>463.20001220703</ele>
        <time>2017-01-18T14:54:20Z</time>
      </trkpt>
      <trkpt lat="43.42781" lon="6.05989">
        <ele>463.20001220703</ele>
        <time>2017-01-18T14:54:22Z</time>
      </trkpt>
      <trkpt lat="43.42785" lon="6.05989">
        <ele>463</ele>
        <time>2017-01-18T14:54:24Z</time>
      </trkpt>
      <trkpt lat="43.42796" lon="6.05986">
        <ele>461.79998779297</ele>
        <time>2017-01-18T14:54:27Z</time>
      </trkpt>
      <trkpt lat="43.42807" lon="6.05986">
        <ele>460.79998779297</ele>
        <time>2017-01-18T14:54:29Z</time>
      </trkpt>
      <trkpt lat="43.42816" lon="6.0599">
        <ele>459.39999389648</ele>
        <time>2017-01-18T14:54:31Z</time>
      </trkpt>
      <trkpt lat="43.42822" lon="6.05993">
        <ele>458.39999389648</ele>
        <time>2017-01-18T14:54:33Z</time>
      </trkpt>
      <trkpt lat="43.42825" lon="6.05995">
        <ele>458</ele>
        <time>2017-01-18T14:54:34Z</time>
      </trkpt>
      <trkpt lat="43.42835" lon="6.06001">
        <ele>457.20001220703</ele>
        <time>2017-01-18T14:54:37Z</time>
      </trkpt>
      <trkpt lat="43.4284" lon="6.06007">
        <ele>456</ele>
        <time>2017-01-18T14:54:39Z</time>
      </trkpt>
      <trkpt lat="43.42843" lon="6.06011">
        <ele>455.39999389648</ele>
        <time>2017-01-18T14:54:40Z</time>
      </trkpt>
      <trkpt lat="43.42847" lon="6.0602">
        <ele>454.79998779297</ele>
        <time>2017-01-18T14:54:42Z</time>
      </trkpt>
      <trkpt lat="43.4285" lon="6.06024">
        <ele>454</ele>
        <time>2017-01-18T14:54:43Z</time>
      </trkpt>
      <trkpt lat="43.42854" lon="6.06029">
        <ele>452.79998779297</ele>
        <time>2017-01-18T14:54:44Z</time>
      </trkpt>
      <trkpt lat="43.42857" lon="6.06033">
        <ele>451.79998779297</ele>
        <time>2017-01-18T14:54:45Z</time>
      </trkpt>
      <trkpt lat="43.42864" lon="6.06039">
        <ele>450</ele>
        <time>2017-01-18T14:54:47Z</time>
      </trkpt>
      <trkpt lat="43.42867" lon="6.06044">
        <ele>449</ele>
        <time>2017-01-18T14:54:48Z</time>
      </trkpt>
      <trkpt lat="43.42871" lon="6.06054">
        <ele>447.60000610352</ele>
        <time>2017-01-18T14:54:50Z</time>
      </trkpt>
      <trkpt lat="43.42872" lon="6.06061">
        <ele>447</ele>
        <time>2017-01-18T14:54:51Z</time>
      </trkpt>
      <trkpt lat="43.42871" lon="6.06068">
        <ele>446.20001220703</ele>
        <time>2017-01-18T14:54:52Z</time>
      </trkpt>
      <trkpt lat="43.42871" lon="6.06074">
        <ele>445.39999389648</ele>
        <time>2017-01-18T14:54:53Z</time>
      </trkpt>
      <trkpt lat="43.4287" lon="6.0608">
        <ele>445.20001220703</ele>
        <time>2017-01-18T14:54:54Z</time>
      </trkpt>
      <trkpt lat="43.42869" lon="6.06089">
        <ele>444.39999389648</ele>
        <time>2017-01-18T14:54:56Z</time>
      </trkpt>
      <trkpt lat="43.42867" lon="6.06102">
        <ele>442.20001220703</ele>
        <time>2017-01-18T14:54:58Z</time>
      </trkpt>
      <trkpt lat="43.42867" lon="6.06109">
        <ele>440.39999389648</ele>
        <time>2017-01-18T14:54:59Z</time>
      </trkpt>
      <trkpt lat="43.42869" lon="6.06123">
        <ele>438.60000610352</ele>
        <time>2017-01-18T14:55:01Z</time>
      </trkpt>
      <trkpt lat="43.42871" lon="6.06128">
        <ele>437.39999389648</ele>
        <time>2017-01-18T14:55:02Z</time>
      </trkpt>
      <trkpt lat="43.42874" lon="6.06139">
        <ele>436.79998779297</ele>
        <time>2017-01-18T14:55:04Z</time>
      </trkpt>
      <trkpt lat="43.42874" lon="6.06145">
        <ele>436</ele>
        <time>2017-01-18T14:55:05Z</time>
      </trkpt>
      <trkpt lat="43.42875" lon="6.0615">
        <ele>435</ele>
        <time>2017-01-18T14:55:06Z</time>
      </trkpt>
      <trkpt lat="43.42877" lon="6.06167">
        <ele>433.39999389648</ele>
        <time>2017-01-18T14:55:09Z</time>
      </trkpt>
      <trkpt lat="43.42879" lon="6.06178">
        <ele>432.79998779297</ele>
        <time>2017-01-18T14:55:11Z</time>
      </trkpt>
      <trkpt lat="43.42879" lon="6.06189">
        <ele>432</ele>
        <time>2017-01-18T14:55:13Z</time>
      </trkpt>
      <trkpt lat="43.42879" lon="6.06201">
        <ele>431</ele>
        <time>2017-01-18T14:55:15Z</time>
      </trkpt>
      <trkpt lat="43.42878" lon="6.06207">
        <ele>430.20001220703</ele>
        <time>2017-01-18T14:55:16Z</time>
      </trkpt>
      <trkpt lat="43.42876" lon="6.06213">
        <ele>429.39999389648</ele>
        <time>2017-01-18T14:55:17Z</time>
      </trkpt>
      <trkpt lat="43.42862" lon="6.06224">
        <ele>429</ele>
        <time>2017-01-18T14:55:21Z</time>
      </trkpt>
      <trkpt lat="43.42859" lon="6.06227">
        <ele>428</ele>
        <time>2017-01-18T14:55:24Z</time>
      </trkpt>
      <trkpt lat="43.42857" lon="6.06229">
        <ele>426.79998779297</ele>
        <time>2017-01-18T14:55:27Z</time>
      </trkpt>
      <trkpt lat="43.42857" lon="6.06229">
        <ele>426.60000610352</ele>
        <time>2017-01-18T14:55:34Z</time>
      </trkpt>
      <trkpt lat="43.42855" lon="6.06227">
        <ele>426.60000610352</ele>
        <time>2017-01-18T14:55:44Z</time>
      </trkpt>
      <trkpt lat="43.42855" lon="6.06225">
        <ele>426.39999389648</ele>
        <time>2017-01-18T14:55:51Z</time>
      </trkpt>
      <trkpt lat="43.42855" lon="6.06226">
        <ele>426.39999389648</ele>
        <time>2017-01-18T14:55:54Z</time>
      </trkpt>
      <trkpt lat="43.42854" lon="6.06228">
        <ele>426.60000610352</ele>
        <time>2017-01-18T14:56:04Z</time>
      </trkpt>
      <trkpt lat="43.42849" lon="6.06228">
        <ele>426.60000610352</ele>
        <time>2017-01-18T14:56:10Z</time>
      </trkpt>
      <trkpt lat="43.42838" lon="6.06225">
        <ele>425.79998779297</ele>
        <time>2017-01-18T14:56:14Z</time>
      </trkpt>
      <trkpt lat="43.42836" lon="6.06227">
        <ele>425.20001220703</ele>
        <time>2017-01-18T14:56:15Z</time>
      </trkpt>
      <trkpt lat="43.42832" lon="6.06232">
        <ele>424.20001220703</ele>
        <time>2017-01-18T14:56:17Z</time>
      </trkpt>
      <trkpt lat="43.42828" lon="6.06238">
        <ele>423.20001220703</ele>
        <time>2017-01-18T14:56:19Z</time>
      </trkpt>
      <trkpt lat="43.42826" lon="6.06241">
        <ele>422.79998779297</ele>
        <time>2017-01-18T14:56:20Z</time>
      </trkpt>
      <trkpt lat="43.42827" lon="6.06255">
        <ele>421.79998779297</ele>
        <time>2017-01-18T14:56:23Z</time>
      </trkpt>
      <trkpt lat="43.42828" lon="6.06259">
        <ele>421.39999389648</ele>
        <time>2017-01-18T14:56:24Z</time>
      </trkpt>
      <trkpt lat="43.4283" lon="6.0629">
        <ele>420.39999389648</ele>
        <time>2017-01-18T14:56:32Z</time>
      </trkpt>
      <trkpt lat="43.42829" lon="6.06297">
        <ele>419</ele>
        <time>2017-01-18T14:56:34Z</time>
      </trkpt>
      <trkpt lat="43.42825" lon="6.063">
        <ele>418.39999389648</ele>
        <time>2017-01-18T14:56:36Z</time>
      </trkpt>
      <trkpt lat="43.42817" lon="6.06301">
        <ele>417.60000610352</ele>
        <time>2017-01-18T14:56:39Z</time>
      </trkpt>
      <trkpt lat="43.42809" lon="6.06309">
        <ele>416.60000610352</ele>
        <time>2017-01-18T14:56:43Z</time>
      </trkpt>
      <trkpt lat="43.42806" lon="6.0631">
        <ele>416</ele>
        <time>2017-01-18T14:56:44Z</time>
      </trkpt>
      <trkpt lat="43.42802" lon="6.06313">
        <ele>415.39999389648</ele>
        <time>2017-01-18T14:56:46Z</time>
      </trkpt>
      <trkpt lat="43.42799" lon="6.06314">
        <ele>415.20001220703</ele>
        <time>2017-01-18T14:56:47Z</time>
      </trkpt>
      <trkpt lat="43.42789" lon="6.0631">
        <ele>414.20001220703</ele>
        <time>2017-01-18T14:56:50Z</time>
      </trkpt>
      <trkpt lat="43.42774" lon="6.06308">
        <ele>413.39999389648</ele>
        <time>2017-01-18T14:56:54Z</time>
      </trkpt>
      <trkpt lat="43.42771" lon="6.06306">
        <ele>413.20001220703</ele>
        <time>2017-01-18T14:56:55Z</time>
      </trkpt>
      <trkpt lat="43.42758" lon="6.06305">
        <ele>412.20001220703</ele>
        <time>2017-01-18T14:56:58Z</time>
      </trkpt>
      <trkpt lat="43.42743" lon="6.06311">
        <ele>411</ele>
        <time>2017-01-18T14:57:01Z</time>
      </trkpt>
      <trkpt lat="43.42735" lon="6.06314">
        <ele>410.60000610352</ele>
        <time>2017-01-18T14:57:03Z</time>
      </trkpt>
      <trkpt lat="43.42721" lon="6.06322">
        <ele>409.79998779297</ele>
        <time>2017-01-18T14:57:06Z</time>
      </trkpt>
      <trkpt lat="43.42713" lon="6.0633">
        <ele>409.39999389648</ele>
        <time>2017-01-18T14:57:08Z</time>
      </trkpt>
      <trkpt lat="43.42703" lon="6.0634">
        <ele>408.79998779297</ele>
        <time>2017-01-18T14:57:11Z</time>
      </trkpt>
      <trkpt lat="43.42699" lon="6.0634">
        <ele>408.60000610352</ele>
        <time>2017-01-18T14:57:12Z</time>
      </trkpt>
      <trkpt lat="43.42693" lon="6.06338">
        <ele>408.39999389648</ele>
        <time>2017-01-18T14:57:14Z</time>
      </trkpt>
      <trkpt lat="43.42685" lon="6.06331">
        <ele>408.79998779297</ele>
        <time>2017-01-18T14:57:24Z</time>
      </trkpt>
      <trkpt lat="43.42685" lon="6.06331">
        <ele>408.60000610352</ele>
        <time>2017-01-18T14:57:34Z</time>
      </trkpt>
      <trkpt lat="43.42685" lon="6.0633">
        <ele>408.79998779297</ele>
        <time>2017-01-18T14:57:44Z</time>
      </trkpt>
      <trkpt lat="43.42683" lon="6.06328">
        <ele>409</ele>
        <time>2017-01-18T14:57:50Z</time>
      </trkpt>
      <trkpt lat="43.42681" lon="6.06325">
        <ele>408.79998779297</ele>
        <time>2017-01-18T14:57:52Z</time>
      </trkpt>
      <trkpt lat="43.42675" lon="6.06322">
        <ele>408.60000610352</ele>
        <time>2017-01-18T14:57:54Z</time>
      </trkpt>
      <trkpt lat="43.42668" lon="6.0632">
        <ele>408.20001220703</ele>
        <time>2017-01-18T14:57:56Z</time>
      </trkpt>
      <trkpt lat="43.42659" lon="6.06319">
        <ele>407.60000610352</ele>
        <time>2017-01-18T14:57:58Z</time>
      </trkpt>
      <trkpt lat="43.42649" lon="6.06318">
        <ele>406.60000610352</ele>
        <time>2017-01-18T14:58:00Z</time>
      </trkpt>
      <trkpt lat="43.42644" lon="6.06317">
        <ele>406</ele>
        <time>2017-01-18T14:58:01Z</time>
      </trkpt>
      <trkpt lat="43.4263" lon="6.06313">
        <ele>405.20001220703</ele>
        <time>2017-01-18T14:58:04Z</time>
      </trkpt>
      <trkpt lat="43.4262" lon="6.06309">
        <ele>405</ele>
        <time>2017-01-18T14:58:06Z</time>
      </trkpt>
      <trkpt lat="43.42615" lon="6.06306">
        <ele>404.79998779297</ele>
        <time>2017-01-18T14:58:07Z</time>
      </trkpt>
      <trkpt lat="43.42605" lon="6.06306">
        <ele>404.79998779297</ele>
        <time>2017-01-18T14:58:09Z</time>
      </trkpt>
      <trkpt lat="43.42595" lon="6.06311">
        <ele>404.20001220703</ele>
        <time>2017-01-18T14:58:11Z</time>
      </trkpt>
      <trkpt lat="43.4259" lon="6.06314">
        <ele>403.60000610352</ele>
        <time>2017-01-18T14:58:12Z</time>
      </trkpt>
      <trkpt lat="43.42585" lon="6.06318">
        <ele>403.60000610352</ele>
        <time>2017-01-18T14:58:13Z</time>
      </trkpt>
      <trkpt lat="43.42581" lon="6.06323">
        <ele>403.39999389648</ele>
        <time>2017-01-18T14:58:14Z</time>
      </trkpt>
      <trkpt lat="43.42572" lon="6.06332">
        <ele>403.20001220703</ele>
        <time>2017-01-18T14:58:16Z</time>
      </trkpt>
      <trkpt lat="43.42568" lon="6.06336">
        <ele>402.20001220703</ele>
        <time>2017-01-18T14:58:17Z</time>
      </trkpt>
      <trkpt lat="43.42563" lon="6.06339">
        <ele>401</ele>
        <time>2017-01-18T14:58:18Z</time>
      </trkpt>
      <trkpt lat="43.42552" lon="6.06345">
        <ele>399.39999389648</ele>
        <time>2017-01-18T14:58:20Z</time>
      </trkpt>
      <trkpt lat="43.42541" lon="6.06352">
        <ele>398.39999389648</ele>
        <time>2017-01-18T14:58:22Z</time>
      </trkpt>
      <trkpt lat="43.4253" lon="6.06357">
        <ele>398.39999389648</ele>
        <time>2017-01-18T14:58:24Z</time>
      </trkpt>
      <trkpt lat="43.42506" lon="6.06367">
        <ele>397.60000610352</ele>
        <time>2017-01-18T14:58:28Z</time>
      </trkpt>
      <trkpt lat="43.42493" lon="6.06374">
        <ele>396.79998779297</ele>
        <time>2017-01-18T14:58:30Z</time>
      </trkpt>
      <trkpt lat="43.4248" lon="6.06376">
        <ele>396.20001220703</ele>
        <time>2017-01-18T14:58:32Z</time>
      </trkpt>
      <trkpt lat="43.42466" lon="6.06376">
        <ele>396</ele>
        <time>2017-01-18T14:58:34Z</time>
      </trkpt>
      <trkpt lat="43.42452" lon="6.0638">
        <ele>395.20001220703</ele>
        <time>2017-01-18T14:58:36Z</time>
      </trkpt>
      <trkpt lat="43.42446" lon="6.06383">
        <ele>395</ele>
        <time>2017-01-18T14:58:37Z</time>
      </trkpt>
      <trkpt lat="43.42419" lon="6.06403">
        <ele>394.79998779297</ele>
        <time>2017-01-18T14:58:42Z</time>
      </trkpt>
      <trkpt lat="43.42409" lon="6.06402">
        <ele>394.79998779297</ele>
        <time>2017-01-18T14:58:44Z</time>
      </trkpt>
      <trkpt lat="43.42403" lon="6.06401">
        <ele>394.79998779297</ele>
        <time>2017-01-18T14:58:45Z</time>
      </trkpt>
      <trkpt lat="43.42398" lon="6.06399">
        <ele>394.79998779297</ele>
        <time>2017-01-18T14:58:46Z</time>
      </trkpt>
      <trkpt lat="43.42387" lon="6.06395">
        <ele>394.60000610352</ele>
        <time>2017-01-18T14:58:48Z</time>
      </trkpt>
      <trkpt lat="43.42374" lon="6.064">
        <ele>394</ele>
        <time>2017-01-18T14:58:50Z</time>
      </trkpt>
      <trkpt lat="43.42359" lon="6.06415">
        <ele>393</ele>
        <time>2017-01-18T14:58:53Z</time>
      </trkpt>
      <trkpt lat="43.42355" lon="6.06421">
        <ele>392.79998779297</ele>
        <time>2017-01-18T14:58:54Z</time>
      </trkpt>
      <trkpt lat="43.42335" lon="6.06436">
        <ele>392</ele>
        <time>2017-01-18T14:58:58Z</time>
      </trkpt>
      <trkpt lat="43.42303" lon="6.0647">
        <ele>391.20001220703</ele>
        <time>2017-01-18T14:59:04Z</time>
      </trkpt>
      <trkpt lat="43.42298" lon="6.06479">
        <ele>390.39999389648</ele>
        <time>2017-01-18T14:59:05Z</time>
      </trkpt>
      <trkpt lat="43.42292" lon="6.06487">
        <ele>389.79998779297</ele>
        <time>2017-01-18T14:59:06Z</time>
      </trkpt>
      <trkpt lat="43.42282" lon="6.065">
        <ele>389.20001220703</ele>
        <time>2017-01-18T14:59:08Z</time>
      </trkpt>
      <trkpt lat="43.42269" lon="6.06511">
        <ele>388.20001220703</ele>
        <time>2017-01-18T14:59:10Z</time>
      </trkpt>
      <trkpt lat="43.42262" lon="6.06514">
        <ele>387.60000610352</ele>
        <time>2017-01-18T14:59:11Z</time>
      </trkpt>
      <trkpt lat="43.42256" lon="6.06515">
        <ele>387</ele>
        <time>2017-01-18T14:59:12Z</time>
      </trkpt>
      <trkpt lat="43.42249" lon="6.06513">
        <ele>386.39999389648</ele>
        <time>2017-01-18T14:59:13Z</time>
      </trkpt>
      <trkpt lat="43.42226" lon="6.06507">
        <ele>385.39999389648</ele>
        <time>2017-01-18T14:59:16Z</time>
      </trkpt>
      <trkpt lat="43.42207" lon="6.06505">
        <ele>383.79998779297</ele>
        <time>2017-01-18T14:59:19Z</time>
      </trkpt>
      <trkpt lat="43.422" lon="6.06507">
        <ele>383.20001220703</ele>
        <time>2017-01-18T14:59:20Z</time>
      </trkpt>
      <trkpt lat="43.422" lon="6.06507">
        <ele>382.60000610352</ele>
        <time>2017-01-18T14:59:21Z</time>
      </trkpt>
      <trkpt lat="43.42196" lon="6.06504">
        <ele>382.20001220703</ele>
        <time>2017-01-18T14:59:22Z</time>
      </trkpt>
      <trkpt lat="43.42192" lon="6.06487">
        <ele>382</ele>
        <time>2017-01-18T14:59:24Z</time>
      </trkpt>
      <trkpt lat="43.42189" lon="6.06463">
        <ele>381.79998779297</ele>
        <time>2017-01-18T14:59:28Z</time>
      </trkpt>
      <trkpt lat="43.42182" lon="6.06422">
        <ele>382</ele>
        <time>2017-01-18T14:59:34Z</time>
      </trkpt>
      <trkpt lat="43.42175" lon="6.06393">
        <ele>381.60000610352</ele>
        <time>2017-01-18T14:59:38Z</time>
      </trkpt>
      <trkpt lat="43.42167" lon="6.06352">
        <ele>381.60000610352</ele>
        <time>2017-01-18T14:59:44Z</time>
      </trkpt>
      <trkpt lat="43.42161" lon="6.06317">
        <ele>382.20001220703</ele>
        <time>2017-01-18T14:59:49Z</time>
      </trkpt>
      <trkpt lat="43.42159" lon="6.06306">
        <ele>382.60000610352</ele>
        <time>2017-01-18T14:59:51Z</time>
      </trkpt>
      <trkpt lat="43.42158" lon="6.06291">
        <ele>383.20001220703</ele>
        <time>2017-01-18T14:59:54Z</time>
      </trkpt>
      <trkpt lat="43.42157" lon="6.06278">
        <ele>383.79998779297</ele>
        <time>2017-01-18T14:59:57Z</time>
      </trkpt>
      <trkpt lat="43.42157" lon="6.06266">
        <ele>385.39999389648</ele>
        <time>2017-01-18T15:00:00Z</time>
      </trkpt>
      <trkpt lat="43.42157" lon="6.06249">
        <ele>386.39999389648</ele>
        <time>2017-01-18T15:00:04Z</time>
      </trkpt>
      <trkpt lat="43.42156" lon="6.06236">
        <ele>387</ele>
        <time>2017-01-18T15:00:07Z</time>
      </trkpt>
      <trkpt lat="43.42156" lon="6.06228">
        <ele>387.79998779297</ele>
        <time>2017-01-18T15:00:09Z</time>
      </trkpt>
      <trkpt lat="43.42149" lon="6.06216">
        <ele>388.79998779297</ele>
        <time>2017-01-18T15:00:13Z</time>
      </trkpt>
      <trkpt lat="43.42146" lon="6.06215">
        <ele>389</ele>
        <time>2017-01-18T15:00:14Z</time>
      </trkpt>
      <trkpt lat="43.42114" lon="6.06223">
        <ele>388.20001220703</ele>
        <time>2017-01-18T15:00:22Z</time>
      </trkpt>
      <trkpt lat="43.42109" lon="6.06224">
        <ele>387.79998779297</ele>
        <time>2017-01-18T15:00:23Z</time>
      </trkpt>
      <trkpt lat="43.42103" lon="6.06226">
        <ele>387.39999389648</ele>
        <time>2017-01-18T15:00:24Z</time>
      </trkpt>
      <trkpt lat="43.42092" lon="6.0623">
        <ele>386.39999389648</ele>
        <time>2017-01-18T15:00:26Z</time>
      </trkpt>
      <trkpt lat="43.42082" lon="6.06234">
        <ele>385.20001220703</ele>
        <time>2017-01-18T15:00:28Z</time>
      </trkpt>
      <trkpt lat="43.42069" lon="6.06238">
        <ele>383.79998779297</ele>
        <time>2017-01-18T15:00:31Z</time>
      </trkpt>
      <trkpt lat="43.4206" lon="6.06241">
        <ele>382.60000610352</ele>
        <time>2017-01-18T15:00:34Z</time>
      </trkpt>
      <trkpt lat="43.42052" lon="6.06244">
        <ele>381.20001220703</ele>
        <time>2017-01-18T15:00:37Z</time>
      </trkpt>
      <trkpt lat="43.42037" lon="6.06249">
        <ele>380</ele>
        <time>2017-01-18T15:00:41Z</time>
      </trkpt>
      <trkpt lat="43.42018" lon="6.06255">
        <ele>378.39999389648</ele>
        <time>2017-01-18T15:00:44Z</time>
      </trkpt>
      <trkpt lat="43.42002" lon="6.0626">
        <ele>376.79998779297</ele>
        <time>2017-01-18T15:00:46Z</time>
      </trkpt>
      <trkpt lat="43.41984" lon="6.06267">
        <ele>374.79998779297</ele>
        <time>2017-01-18T15:00:48Z</time>
      </trkpt>
      <trkpt lat="43.41974" lon="6.0627">
        <ele>373.60000610352</ele>
        <time>2017-01-18T15:00:49Z</time>
      </trkpt>
      <trkpt lat="43.41964" lon="6.06274">
        <ele>372.60000610352</ele>
        <time>2017-01-18T15:00:50Z</time>
      </trkpt>
      <trkpt lat="43.41953" lon="6.06277">
        <ele>371.39999389648</ele>
        <time>2017-01-18T15:00:51Z</time>
      </trkpt>
      <trkpt lat="43.41943" lon="6.0628">
        <ele>370</ele>
        <time>2017-01-18T15:00:52Z</time>
      </trkpt>
      <trkpt lat="43.41924" lon="6.06285">
        <ele>368.60000610352</ele>
        <time>2017-01-18T15:00:54Z</time>
      </trkpt>
      <trkpt lat="43.41904" lon="6.06288">
        <ele>367.39999389648</ele>
        <time>2017-01-18T15:00:56Z</time>
      </trkpt>
      <trkpt lat="43.41883" lon="6.06289">
        <ele>366.20001220703</ele>
        <time>2017-01-18T15:00:58Z</time>
      </trkpt>
      <trkpt lat="43.41863" lon="6.06287">
        <ele>364.79998779297</ele>
        <time>2017-01-18T15:01:00Z</time>
      </trkpt>
      <trkpt lat="43.41842" lon="6.06286">
        <ele>363.39999389648</ele>
        <time>2017-01-18T15:01:02Z</time>
      </trkpt>
      <trkpt lat="43.41822" lon="6.06285">
        <ele>362.20001220703</ele>
        <time>2017-01-18T15:01:04Z</time>
      </trkpt>
      <trkpt lat="43.41813" lon="6.06284">
        <ele>361.60000610352</ele>
        <time>2017-01-18T15:01:05Z</time>
      </trkpt>
      <trkpt lat="43.41804" lon="6.0628">
        <ele>361</ele>
        <time>2017-01-18T15:01:06Z</time>
      </trkpt>
      <trkpt lat="43.41796" lon="6.06274">
        <ele>360.39999389648</ele>
        <time>2017-01-18T15:01:07Z</time>
      </trkpt>
      <trkpt lat="43.41779" lon="6.06261">
        <ele>359.39999389648</ele>
        <time>2017-01-18T15:01:09Z</time>
      </trkpt>
      <trkpt lat="43.41762" lon="6.06252">
        <ele>358.60000610352</ele>
        <time>2017-01-18T15:01:11Z</time>
      </trkpt>
      <trkpt lat="43.41752" lon="6.06249">
        <ele>358.20001220703</ele>
        <time>2017-01-18T15:01:12Z</time>
      </trkpt>
      <trkpt lat="43.41733" lon="6.06247">
        <ele>357</ele>
        <time>2017-01-18T15:01:14Z</time>
      </trkpt>
      <trkpt lat="43.41714" lon="6.06245">
        <ele>355.39999389648</ele>
        <time>2017-01-18T15:01:16Z</time>
      </trkpt>
      <trkpt lat="43.41687" lon="6.06244">
        <ele>354.39999389648</ele>
        <time>2017-01-18T15:01:19Z</time>
      </trkpt>
      <trkpt lat="43.41649" lon="6.06237">
        <ele>354.20001220703</ele>
        <time>2017-01-18T15:01:24Z</time>
      </trkpt>
      <trkpt lat="43.41615" lon="6.06227">
        <ele>354</ele>
        <time>2017-01-18T15:01:34Z</time>
      </trkpt>
      <trkpt lat="43.41607" lon="6.06229">
        <ele>353.60000610352</ele>
        <time>2017-01-18T15:01:41Z</time>
      </trkpt>
      <trkpt lat="43.41604" lon="6.06234">
        <ele>353.39999389648</ele>
        <time>2017-01-18T15:01:43Z</time>
      </trkpt>
      <trkpt lat="43.41603" lon="6.06237">
        <ele>353.39999389648</ele>
        <time>2017-01-18T15:01:44Z</time>
      </trkpt>
      <trkpt lat="43.41602" lon="6.06243">
        <ele>353.39999389648</ele>
        <time>2017-01-18T15:01:46Z</time>
      </trkpt>
      <trkpt lat="43.41598" lon="6.06253">
        <ele>353</ele>
        <time>2017-01-18T15:01:49Z</time>
      </trkpt>
      <trkpt lat="43.41587" lon="6.06267">
        <ele>352.60000610352</ele>
        <time>2017-01-18T15:01:53Z</time>
      </trkpt>
      <trkpt lat="43.41585" lon="6.06272">
        <ele>352.39999389648</ele>
        <time>2017-01-18T15:01:54Z</time>
      </trkpt>
      <trkpt lat="43.41584" lon="6.06279">
        <ele>352.20001220703</ele>
        <time>2017-01-18T15:01:55Z</time>
      </trkpt>
      <trkpt lat="43.41586" lon="6.063">
        <ele>351.60000610352</ele>
        <time>2017-01-18T15:01:58Z</time>
      </trkpt>
      <trkpt lat="43.41582" lon="6.06314">
        <ele>351.20001220703</ele>
        <time>2017-01-18T15:02:00Z</time>
      </trkpt>
      <trkpt lat="43.41565" lon="6.06342">
        <ele>350.20001220703</ele>
        <time>2017-01-18T15:02:04Z</time>
      </trkpt>
      <trkpt lat="43.41561" lon="6.06351">
        <ele>350</ele>
        <time>2017-01-18T15:02:05Z</time>
      </trkpt>
      <trkpt lat="43.41554" lon="6.06382">
        <ele>348.79998779297</ele>
        <time>2017-01-18T15:02:08Z</time>
      </trkpt>
      <trkpt lat="43.4155" lon="6.06404">
        <ele>347.20001220703</ele>
        <time>2017-01-18T15:02:10Z</time>
      </trkpt>
      <trkpt lat="43.41544" lon="6.06435">
        <ele>345.79998779297</ele>
        <time>2017-01-18T15:02:13Z</time>
      </trkpt>
      <trkpt lat="43.41544" lon="6.06442">
        <ele>345.39999389648</ele>
        <time>2017-01-18T15:02:14Z</time>
      </trkpt>
      <trkpt lat="43.41544" lon="6.06452">
        <ele>344.60000610352</ele>
        <time>2017-01-18T15:02:16Z</time>
      </trkpt>
      <trkpt lat="43.41544" lon="6.06459">
        <ele>344.20001220703</ele>
        <time>2017-01-18T15:02:21Z</time>
      </trkpt>
      <trkpt lat="43.41539" lon="6.06462">
        <ele>344.20001220703</ele>
        <time>2017-01-18T15:02:24Z</time>
      </trkpt>
      <trkpt lat="43.41537" lon="6.06464">
        <ele>344.20001220703</ele>
        <time>2017-01-18T15:02:25Z</time>
      </trkpt>
      <trkpt lat="43.41534" lon="6.06474">
        <ele>343</ele>
        <time>2017-01-18T15:02:27Z</time>
      </trkpt>
      <trkpt lat="43.41533" lon="6.06479">
        <ele>342.20001220703</ele>
        <time>2017-01-18T15:02:28Z</time>
      </trkpt>
      <trkpt lat="43.41531" lon="6.06485">
        <ele>342</ele>
        <time>2017-01-18T15:02:29Z</time>
      </trkpt>
      <trkpt lat="43.41526" lon="6.06503">
        <ele>341.79998779297</ele>
        <time>2017-01-18T15:02:32Z</time>
      </trkpt>
      <trkpt lat="43.41523" lon="6.06516">
        <ele>342.39999389648</ele>
        <time>2017-01-18T15:02:34Z</time>
      </trkpt>
      <trkpt lat="43.4152" lon="6.06538">
        <ele>342.60000610352</ele>
        <time>2017-01-18T15:02:37Z</time>
      </trkpt>
      <trkpt lat="43.41515" lon="6.06569">
        <ele>342.20001220703</ele>
        <time>2017-01-18T15:02:41Z</time>
      </trkpt>
      <trkpt lat="43.41511" lon="6.06592">
        <ele>342</ele>
        <time>2017-01-18T15:02:44Z</time>
      </trkpt>
      <trkpt lat="43.41505" lon="6.06642">
        <ele>342</ele>
        <time>2017-01-18T15:02:50Z</time>
      </trkpt>
      <trkpt lat="43.415" lon="6.06677">
        <ele>342</ele>
        <time>2017-01-18T15:02:54Z</time>
      </trkpt>
      <trkpt lat="43.41498" lon="6.06724">
        <ele>340.60000610352</ele>
        <time>2017-01-18T15:02:59Z</time>
      </trkpt>
      <trkpt lat="43.41493" lon="6.06772">
        <ele>339.60000610352</ele>
        <time>2017-01-18T15:03:04Z</time>
      </trkpt>
      <trkpt lat="43.41483" lon="6.06817">
        <ele>338.79998779297</ele>
        <time>2017-01-18T15:03:09Z</time>
      </trkpt>
      <trkpt lat="43.41481" lon="6.06824">
        <ele>338.60000610352</ele>
        <time>2017-01-18T15:03:10Z</time>
      </trkpt>
      <trkpt lat="43.41476" lon="6.06844">
        <ele>338.39999389648</ele>
        <time>2017-01-18T15:03:14Z</time>
      </trkpt>
      <trkpt lat="43.41477" lon="6.06871">
        <ele>339</ele>
        <time>2017-01-18T15:03:21Z</time>
      </trkpt>
      <trkpt lat="43.41478" lon="6.06875">
        <ele>339.20001220703</ele>
        <time>2017-01-18T15:03:22Z</time>
      </trkpt>
      <trkpt lat="43.41477" lon="6.06884">
        <ele>339.20001220703</ele>
        <time>2017-01-18T15:03:24Z</time>
      </trkpt>
      <trkpt lat="43.41473" lon="6.06915">
        <ele>338.60000610352</ele>
        <time>2017-01-18T15:03:31Z</time>
      </trkpt>
      <trkpt lat="43.41469" lon="6.06927">
        <ele>338.60000610352</ele>
        <time>2017-01-18T15:03:34Z</time>
      </trkpt>
      <trkpt lat="43.41495" lon="6.06957">
        <ele>338.20001220703</ele>
        <time>2017-01-18T15:03:44Z</time>
      </trkpt>
      <trkpt lat="43.41525" lon="6.06974">
        <ele>338.39999389648</ele>
        <time>2017-01-18T15:03:54Z</time>
      </trkpt>
      <trkpt lat="43.41557" lon="6.06971">
        <ele>338.60000610352</ele>
        <time>2017-01-18T15:04:04Z</time>
      </trkpt>
      <trkpt lat="43.41574" lon="6.06982">
        <ele>338.79998779297</ele>
        <time>2017-01-18T15:04:11Z</time>
      </trkpt>
      <trkpt lat="43.41577" lon="6.06994">
        <ele>339</ele>
        <time>2017-01-18T15:04:14Z</time>
      </trkpt>
      <trkpt lat="43.41583" lon="6.07029">
        <ele>339</ele>
        <time>2017-01-18T15:04:23Z</time>
      </trkpt>
      <trkpt lat="43.41582" lon="6.07031">
        <ele>339</ele>
        <time>2017-01-18T15:04:24Z</time>
      </trkpt>
      <trkpt lat="43.41578" lon="6.07034">
        <ele>339.20001220703</ele>
        <time>2017-01-18T15:04:28Z</time>
      </trkpt>
      <trkpt lat="43.41577" lon="6.07034">
        <ele>339.60000610352</ele>
        <time>2017-01-18T15:04:31Z</time>
      </trkpt>
      <trkpt lat="43.41576" lon="6.07036">
        <ele>339.60000610352</ele>
        <time>2017-01-18T15:04:34Z</time>
      </trkpt>
      <trkpt lat="43.41577" lon="6.07036">
        <ele>339.79998779297</ele>
        <time>2017-01-18T15:04:44Z</time>
      </trkpt>
      <trkpt lat="43.41577" lon="6.07036">
        <ele>340</ele>
        <time>2017-01-18T15:05:02Z</time>
      </trkpt>
    </trkseg>
  </trk>
</gpx>